[[{"header":{"parameterUnit":"m.s-1","parameterCategory":1,"la1":30.6,"la2":28.766,"lo1":-90.7593,"lo2":-88.6598,"dy":0.0162,"dx":0.0183,"nx":116,"ny":114,"refTime":"2024-05-27T12:00:00:Z","depth":0,"parameterNumber":2,"parameterNumberName":"U-component_of_WINDS"},"data":[0.0,0.0,0.0,0.0,0.0,0.0,0.0,0.0,0.0,0.0,0.0,0.0,0.0,0.0,0.0,0.0,0.0,0.0,0.0,0.0,0.0,0.0,0.0,0.0,0.0,0.0,0.0,0.0,0.0,0.0,0.0,0.0,0.0,0.0,0.0,0.0,0.0,0.0,0.0,0.0,0.0,0.0,0.0,0.0,0.0,0.0,0.0,0.0,0.0,0.0,0.0,0.0,0.0,0.0,0.0,0.0,0.0,0.0,0.0,0.0,0.0,0.0,0.0,0.0,0.0,0.0,0.0,0.0,0.0,0.0,0.0,0.0,0.0,0.0,0.0,0.0,0.0,0.0,0.0,0.0,0.0,0.0,0.0,0.0,0.0,0.0,0.0,0.0,0.0,0.0,0.0,0.0,0.0,0.0,0.0,0.0,0.0,0.0,0.0,0.0,0.0,0.0,0.0,0.0,0.0,0.0,0.0,0.0,0.0,0.0,0.0,0.0,0.0,0.0,0.0,0.0,0.0,0.0,0.0,0.0,0.0,0.0,0.0,0.0,0.0,0.0,0.0,0.0,0.0,0.0,0.0,0.0,0.0,0.0,0.0,0.0,0.0,0.0,0.0,0.0,0.0,0.0,0.0,0.0,0.0,0.0,0.0,0.0,0.0,0.0,0.0,0.0,0.0,0.0,0.0,0.0,0.0,0.0,0.0,0.0,0.0,0.0,0.0,0.0,0.0,0.0,0.0,0.0,0.0,0.0,0.0,0.0,0.0,0.0,0.0,0.0,0.0,0.0,0.0,0.0,0.0,0.0,0.0,0.0,0.0,0.0,0.0,0.0,0.0,0.0,0.0,0.0,0.0,0.0,0.0,0.0,0.0,0.0,0.0,0.0,0.0,0.0,0.0,0.0,0.0,0.0,0.0,0.0,0.0,0.0,0.0,0.0,0.0,0.0,0.0,0.0,0.0,0.0,0.0,0.0,0.0,0.0,0.0,0.0,0.0,0.0,0.0,0.0,0.0,0.0,0.0,0.0,0.0,0.0,0.0,0.0,0.0,0.0,0.0,0.0,0.0,0.0,0.0,0.0,0.0,0.0,0.0,0.0,0.0,0.0,0.0,0.0,0.0,0.0,0.0,0.0,0.0,0.0,0.0,0.0,0.0,0.0,0.0,0.0,0.0,0.0,0.0,0.0,0.0,0.0,0.0,0.0,0.0,0.0,0.0,0.0,0.0,0.0,0.0,0.0,0.0,0.0,0.0,0.0,0.0,0.0,0.0,0.0,0.0,0.0,0.0,0.0,0.0,0.0,0.0,0.0,0.0,0.0,0.0,0.0,0.0,0.0,0.0,0.0,0.0,0.0,0.0,0.0,0.0,0.0,0.0,0.0,0.0,0.0,0.0,0.0,0.0,0.0,0.0,0.0,0.0,0.0,0.0,0.0,0.0,0.0,0.0,0.0,0.0,0.0,0.0,0.0,0.0,0.0,0.0,0.0,0.0,0.0,0.0,0.0,0.0,0.0,0.0,0.0,0.0,0.0,0.0,0.0,0.0,0.0,0.0,0.0,0.0,0.0,0.0,0.0,0.0,0.0,0.0,0.0,0.0,0.0,0.0,0.0,0.0,0.0,0.0,0.0,0.0,0.0,0.0,0.0,0.0,0.0,0.0,0.0,0.0,0.0,0.0,0.0,0.0,0.0,0.0,0.0,0.0,0.0,0.0,0.0,0.0,0.0,0.0,0.0,0.0,0.0,0.0,0.0,0.0,0.0,0.0,0.0,0.0,0.0,0.0,0.0,0.0,0.0,0.0,0.0,0.0,0.0,0.0,0.0,0.0,0.0,0.0,0.0,0.0,0.0,0.0,0.0,0.0,0.0,0.0,0.0,0.0,0.0,0.0,0.0,0.0,0.0,0.0,0.0,0.0,0.0,0.0,0.0,0.0,0.0,0.0,0.0,0.0,0.0,0.0,0.0,0.0,0.0,0.0,0.0,0.0,0.0,0.0,0.0,0.0,0.0,0.0,0.0,0.0,0.0,0.0,0.0,0.0,0.0,0.0,0.0,0.0,0.0,0.0,0.0,0.0,0.0,0.0,0.0,0.0,0.0,0.0,0.0,0.0,0.0,0.0,0.0,0.0,0.0,0.0,0.0,0.0,0.0,0.0,0.0,0.0,0.0,0.0,0.0,0.0,0.0,0.0,0.0,0.0,0.0,0.0,0.0,0.0,0.0,0.0,0.0,0.0,0.0,0.0,0.0,0.0,0.0,0.0,0.0,0.0,0.0,0.0,0.0,0.0,0.0,0.0,0.0,0.0,0.0,0.0,0.0,0.0,0.0,0.0,0.0,0.0,0.0,0.0,0.0,0.0,0.0,0.0,0.0,0.0,0.0,0.0,0.0,0.0,0.0,0.0,0.0,0.0,0.0,0.0,0.0,0.0,0.0,0.0,0.0,0.0,0.0,0.0,0.0,0.0,0.0,0.0,0.0,0.0,0.0,0.0,0.0,0.0,0.0,0.0,0.0,0.0,0.0,0.0,0.0,0.0,0.0,0.0,0.0,0.0,0.0,0.0,0.0,0.0,0.0,0.0,0.0,0.0,0.0,0.0,0.0,0.0,0.0,0.0,0.0,0.0,0.0,0.0,0.0,0.0,0.0,0.0,0.0,0.0,0.0,0.0,0.0,0.0,0.0,0.0,0.0,0.0,0.0,0.0,0.0,0.0,0.0,0.0,0.0,0.0,0.0,0.0,0.0,0.0,0.0,0.0,0.0,0.0,0.0,0.0,0.0,0.0,0.0,0.0,0.0,0.0,0.0,0.0,0.0,0.0,0.0,0.0,0.0,0.0,0.0,0.0,0.0,0.0,0.0,0.0,0.0,0.0,0.0,0.0,0.0,0.0,0.0,0.0,0.0,0.0,0.0,0.0,0.0,0.0,0.0,0.0,0.0,0.0,0.0,0.0,0.0,0.0,0.0,0.0,0.0,0.0,0.0,0.0,0.0,0.0,0.0,0.0,0.0,0.0,0.0,0.0,0.0,0.0,0.0,0.0,0.0,0.0,0.0,0.0,0.0,0.0,0.0,0.0,0.0,0.0,0.0,0.0,0.0,0.0,0.0,0.0,0.0,0.0,0.0,0.0,0.0,0.0,0.0,0.0,0.0,0.0,0.0,0.0,0.0,0.0,0.0,0.0,0.0,0.0,0.0,0.0,0.0,0.0,0.0,0.0,0.0,0.0,0.0,0.0,0.0,0.0,0.0,0.0,0.0,0.0,0.0,0.0,0.0,0.0,0.0,0.0,0.0,0.0,0.0,0.0,0.0,0.0,0.0,0.0,0.0,0.0,0.0,0.0,0.0,0.0,0.0,0.0,0.0,0.0,0.0,0.0,0.0,0.0,0.0,0.0,0.0,0.0,0.0,0.0,0.0,0.0,0.0,0.0,0.0,0.0,0.0,0.0,0.0,0.0,0.0,0.0,0.0,0.0,0.0,0.0,0.0,0.0,0.0,0.0,0.0,0.0,0.0,0.0,0.0,0.0,0.0,0.0,0.0,0.0,0.0,0.0,0.0,0.0,0.0,0.0,0.0,0.0,0.0,0.0,0.0,0.0,0.0,0.0,0.0,0.0,0.0,0.0,0.0,0.0,0.0,0.0,0.0,0.0,0.0,0.0,0.0,0.0,0.0,0.0,0.0,0.0,0.0,0.0,0.0,0.0,0.0,0.0,0.0,0.0,0.0,0.0,0.0,0.0,0.0,0.0,0.0,0.0,0.0,0.0,0.0,0.0,0.0,0.0,0.0,0.0,0.0,0.0,0.0,0.0,0.0,0.0,0.0,0.0,0.0,0.0,0.0,0.0,0.0,0.0,0.0,0.0,0.0,0.0,0.0,0.0,0.0,0.0,0.0,0.0,0.0,0.0,0.0,0.0,0.0,0.0,0.0,0.0,0.0,0.0,0.0,0.0,0.0,0.0,0.0,0.0,0.0,0.0,0.0,0.0,0.0,0.0,0.0,0.0,0.0,0.0,0.0,0.0,0.0,0.0,0.0,0.0,0.0,0.0,0.0,0.0,0.0,0.0,0.0,0.0,0.0,0.0,0.0,0.0,0.0,0.0,0.0,0.0,0.0,0.0,0.0,0.0,0.0,0.0,0.0,0.0,0.0,0.0,0.0,0.0,0.0,0.0,0.0,0.0,0.0,0.0,0.0,0.0,0.0,0.0,0.0,0.0,0.0,0.0,0.0,0.0,0.0,0.0,0.0,0.0,0.0,0.0,0.0,0.0,0.0,0.0,0.0,0.0,0.0,0.0,0.0,0.0,0.0,0.0,0.0,0.0,0.0,0.0,0.0,0.0,0.0,0.0,0.0,0.0,0.0,0.0,0.0,0.0,0.0,0.0,0.0,0.0,0.0,0.0,0.0,0.0,0.0,0.0,0.0,0.0,0.0,0.0,0.0,0.0,0.0,0.0,0.0,0.0,0.0,0.0,0.0,0.0,0.0,0.0,0.0,0.0,0.0,0.0,0.0,0.0,0.0,0.0,0.0,0.0,0.0,0.0,0.0,0.0,0.0,0.0,0.0,0.0,0.0,0.0,0.0,0.0,0.0,0.0,0.0,0.0,0.0,0.0,0.0,0.0,0.0,0.0,0.0,0.0,0.0,0.0,0.0,0.0,0.0,0.0,0.0,0.0,0.0,0.0,0.0,0.0,0.0,0.0,0.0,0.0,0.0,0.0,0.0,0.0,0.0,0.0,0.0,0.0,0.0,0.0,0.0,0.0,0.0,0.0,0.0,0.0,0.0,0.0,0.0,0.0,0.0,0.0,0.0,0.0,0.0,0.0,0.0,0.0,0.0,0.0,0.0,0.0,0.0,0.0,0.0,0.0,0.0,0.0,0.0,0.0,0.0,0.0,0.0,0.0,0.0,0.0,0.0,0.0,0.0,0.0,0.0,0.0,0.0,0.0,0.0,0.0,0.0,0.0,0.0,0.0,0.0,0.0,0.0,0.0,0.0,0.0,0.0,0.0,0.0,0.0,0.0,0.0,0.0,0.0,0.0,0.0,0.0,0.0,0.0,0.0,0.0,0.0,0.0,0.0,0.0,0.0,0.0,0.0,0.0,0.0,0.0,0.0,0.0,0.0,0.0,0.0,0.0,0.0,0.0,0.0,0.0,0.0,0.0,0.0,0.0,0.0,0.0,0.0,0.0,0.0,0.0,0.0,0.0,0.0,0.0,0.0,0.0,0.0,0.0,0.0,0.0,0.0,0.0,0.0,0.0,0.0,0.0,0.0,0.0,0.0,0.0,0.0,0.0,0.0,0.0,0.0,0.0,0.0,0.0,0.0,0.0,0.0,0.0,0.0,0.0,0.0,0.0,0.0,0.0,0.0,0.0,0.0,0.0,0.0,0.0,0.0,0.0,0.0,0.0,0.0,0.0,0.0,0.0,0.0,0.0,0.0,0.0,0.0,0.0,0.0,0.0,0.0,0.0,0.0,0.0,0.0,0.0,0.0,0.0,0.0,0.0,0.0,0.0,0.0,0.0,0.0,0.0,0.0,0.0,0.0,0.0,0.0,0.0,0.0,0.0,0.0,0.0,0.0,0.0,0.0,0.0,0.0,0.0,0.0,0.0,0.0,0.0,0.0,0.0,0.0,0.0,0.0,0.0,0.0,0.0,0.0,0.0,0.0,0.0,0.0,0.0,0.0,0.0,0.0,0.0,0.0,0.0,0.0,0.0,0.0,0.0,0.0,0.0,0.0,0.0,0.0,0.0,0.0,0.0,0.0,0.0,0.0,0.0,0.0,0.0,0.0,0.0,0.0,0.0,0.0,0.0,0.0,0.0,0.0,0.0,0.0,0.0,0.0,0.0,0.0,0.0,0.0,0.0,0.0,0.0,0.0,0.0,0.0,0.0,0.0,0.0,0.0,0.0,0.0,0.0,0.0,0.0,0.0,0.0,0.0,0.0,0.0,0.0,0.0,0.0,0.0,0.0,0.0,0.0,0.0,0.0,0.0,0.0,0.0,0.0,0.0,0.0,0.0,0.0,0.0,0.0,0.0,0.0,0.0,0.0,0.0,0.0,0.0,0.0,0.0,0.0,0.0,0.0,0.0,0.0,-4.4951,0.0,0.0,0.0,0.0,0.0,0.0,0.0,0.0,0.0,0.0,0.0,0.0,0.0,0.0,0.0,0.0,0.0,0.0,0.0,0.0,0.0,0.0,0.0,0.0,-3.3301,-3.4003,-3.4075,-3.5185,-3.5929,-3.6094,0.0,0.0,0.0,0.0,0.0,-3.3124,-3.3106,-3.3091,-3.3008,-3.3008,-3.307,-3.3175,-3.3408,-3.3675,-3.3959,0.0,0.0,0.0,0.0,0.0,0.0,0.0,0.0,0.0,0.0,0.0,0.0,0.0,0.0,0.0,0.0,0.0,0.0,0.0,0.0,0.0,0.0,0.0,0.0,0.0,0.0,0.0,0.0,0.0,0.0,0.0,0.0,0.0,0.0,0.0,0.0,0.0,0.0,0.0,0.0,0.0,0.0,0.0,0.0,0.0,0.0,0.0,0.0,0.0,0.0,0.0,0.0,0.0,0.0,0.0,0.0,0.0,0.0,0.0,0.0,0.0,0.0,0.0,0.0,0.0,0.0,0.0,0.0,0.0,0.0,0.0,-4.4575,0.0,0.0,0.0,0.0,0.0,0.0,0.0,0.0,0.0,0.0,0.0,0.0,0.0,0.0,0.0,0.0,0.0,0.0,0.0,0.0,0.0,-3.1839,-3.1839,-3.3142,-3.405,-3.4163,-3.5595,-3.6584,-3.6781,-3.6173,0.0,0.0,0.0,-3.3428,-3.2804,-3.277,-3.2721,-3.2603,-3.2603,-3.2619,-3.27,-3.2814,-3.3099,-3.3498,-3.3611,0.0,0.0,0.0,0.0,0.0,0.0,0.0,0.0,0.0,0.0,0.0,0.0,0.0,0.0,0.0,0.0,0.0,0.0,0.0,0.0,0.0,0.0,0.0,0.0,0.0,0.0,0.0,0.0,0.0,0.0,0.0,0.0,0.0,0.0,0.0,0.0,0.0,0.0,0.0,0.0,0.0,0.0,0.0,0.0,0.0,0.0,0.0,0.0,0.0,0.0,0.0,0.0,0.0,0.0,0.0,0.0,0.0,0.0,0.0,0.0,0.0,0.0,0.0,-4.3488,-4.3532,-4.3549,-4.3718,-4.3687,-4.3549,-4.4079,-4.4064,-4.3697,-4.3989,0.0,0.0,0.0,0.0,0.0,0.0,0.0,0.0,0.0,0.0,0.0,0.0,0.0,0.0,0.0,0.0,0.0,0.0,0.0,-3.1538,-3.1538,-3.231,-3.2826,-3.2845,-3.4318,-3.5359,-3.5618,-3.4948,0.0,-3.4743,-3.3319,-3.2475,-3.2386,-3.2318,-3.2284,-3.2266,-3.2144,-3.2162,-3.2266,-3.237,-3.2506,-3.2672,-3.3039,-3.3193,-3.3193,0.0,0.0,0.0,0.0,0.0,0.0,0.0,0.0,0.0,0.0,0.0,0.0,0.0,0.0,0.0,0.0,0.0,0.0,0.0,0.0,0.0,0.0,0.0,0.0,0.0,0.0,0.0,0.0,0.0,0.0,0.0,0.0,0.0,0.0,0.0,0.0,0.0,0.0,0.0,0.0,0.0,-4.1342,-4.1262,0.0,0.0,0.0,0.0,0.0,0.0,0.0,0.0,0.0,0.0,0.0,0.0,0.0,-4.3858,-4.3685,-4.4237,-4.4512,-4.448,-4.4512,-4.4512,-4.4512,-4.4545,-4.448,-4.4348,-4.4233,0.0,-4.3188,-4.3383,0.0,0.0,0.0,0.0,0.0,0.0,0.0,0.0,0.0,0.0,0.0,0.0,0.0,0.0,0.0,0.0,0.0,0.0,0.0,0.0,0.0,-3.199,-3.2471,-3.2531,-3.356,-3.4295,-3.4496,-3.4234,-3.3932,-3.3647,-3.2991,-3.2418,-3.193,-3.1875,-3.1802,-3.1693,-3.1638,-3.1638,-3.1693,-3.184,-3.1948,-3.2002,-3.2266,-3.2538,-3.2818,-3.2818,0.0,0.0,0.0,0.0,0.0,0.0,0.0,0.0,0.0,0.0,0.0,0.0,0.0,0.0,0.0,0.0,0.0,0.0,0.0,0.0,0.0,0.0,0.0,0.0,0.0,0.0,0.0,0.0,0.0,0.0,0.0,0.0,0.0,0.0,0.0,0.0,0.0,0.0,0.0,-4.1377,-4.1572,-4.1901,-4.2295,-4.253,0.0,0.0,0.0,0.0,0.0,0.0,0.0,0.0,0.0,-4.3735,-4.3944,-4.3891,-4.3538,-4.3822,-4.3915,-4.3796,-4.3931,-4.3965,-4.3965,-4.4052,-4.4018,-4.3878,-4.3794,-4.3498,-4.3097,-4.3154,-4.3405,-4.3732,0.0,0.0,0.0,0.0,-4.3372,-4.3218,0.0,0.0,0.0,0.0,0.0,0.0,0.0,0.0,0.0,0.0,0.0,0.0,-3.119,-3.1661,-3.2002,-3.212,-3.2757,-3.3256,-3.338,-3.341,-3.3214,-3.2684,-3.2539,-3.2143,-3.1464,-3.1389,-3.1293,-3.11,-3.11,-3.112,-3.1179,-3.1334,-3.1428,-3.1485,-3.1596,-3.1929,-3.2404,-3.2403,-3.2454,-3.2504,0.0,0.0,0.0,0.0,0.0,0.0,0.0,0.0,0.0,0.0,0.0,0.0,0.0,0.0,0.0,0.0,0.0,0.0,0.0,0.0,0.0,0.0,0.0,0.0,0.0,0.0,0.0,0.0,0.0,0.0,0.0,0.0,0.0,0.0,0.0,0.0,0.0,-4.1526,-4.1691,-4.2205,-4.2601,-4.2851,0.0,0.0,0.0,0.0,0.0,0.0,-4.391,-4.3864,-4.3894,-4.3968,-4.4124,-4.3978,-4.3588,-4.3776,-4.3783,-4.3644,-4.3783,-4.387,-4.3854,-4.3965,-4.3945,-4.387,-4.3818,-4.3731,-4.3602,-4.3092,-4.3132,-4.3444,-4.2909,-4.279,-4.2898,-4.2759,-4.2634,-4.2508,0.0,0.0,0.0,0.0,0.0,0.0,0.0,0.0,0.0,0.0,0.0,-3.119,-3.119,-3.1125,-3.1066,-3.1066,-3.1691,-3.2127,-3.2268,-3.2218,-3.2225,-3.2313,-3.1653,-3.1205,-3.1035,-3.0834,-3.0692,-3.0531,-3.0531,-3.0638,-3.0825,-3.0845,-3.0982,-3.121,-3.123,-3.1462,-3.1838,-3.1912,-3.193,-3.1948,-3.2161,0.0,0.0,0.0,0.0,0.0,0.0,0.0,0.0,0.0,0.0,0.0,0.0,0.0,0.0,0.0,0.0,0.0,0.0,0.0,0.0,0.0,0.0,0.0,0.0,0.0,0.0,0.0,0.0,0.0,0.0,0.0,0.0,0.0,0.0,0.0,0.0,0.0,0.0,-4.1374,-4.1851,0.0,0.0,0.0,0.0,-4.2648,-4.3105,-4.3314,-4.3149,-4.3518,-4.3621,-4.3443,-4.3861,-4.4081,-4.4081,-4.4767,-4.511,-4.5073,-4.511,-4.511,-4.511,-4.511,-4.511,-4.511,-4.4909,-4.4946,-4.4954,-4.3087,-4.2597,-4.2903,-4.2349,-4.227,-4.2413,-4.2206,-4.1948,-4.1621,0.0,0.0,0.0,0.0,0.0,-2.9111,-2.9454,-3.0018,-3.0587,-3.1145,-3.119,-3.1171,-3.1092,-3.0975,-3.0895,-3.0814,-3.0867,-3.0933,-3.0975,-3.0958,-3.0962,-3.1004,-3.0771,-3.0514,-3.0225,-3.0156,-3.0049,-2.9919,-3.0006,-3.0135,-3.03,-3.0384,-3.051,-3.0688,-3.0733,-3.0818,-3.0978,-3.1312,-3.1466,-3.1524,-3.1581,-3.1673,0.0,0.0,0.0,0.0,0.0,0.0,0.0,0.0,0.0,0.0,0.0,0.0,0.0,0.0,0.0,0.0,0.0,0.0,0.0,0.0,0.0,0.0,0.0,0.0,0.0,0.0,0.0,0.0,0.0,0.0,0.0,0.0,0.0,0.0,0.0,0.0,0.0,-4.1187,-4.1439,0.0,-4.2171,-4.2452,-4.2776,-4.3206,-4.3339,-4.3551,-4.3908,-4.3965,-4.4059,-4.4366,-4.4542,-4.4539,-4.4427,-4.469,-4.4814,-4.4814,-4.4814,-4.4814,-4.4814,-4.4814,-4.4814,-4.4814,-4.4739,-4.4739,-4.4721,-4.3619,-4.3109,-4.2956,-4.2352,-4.1899,-4.1554,-4.1488,-4.1388,-4.1254,0.0,0.0,0.0,0.0,-2.8876,-2.9394,-2.9489,-3.0224,-3.0859,-3.1162,-3.1151,-3.1092,-3.0992,-3.0814,-3.0634,-3.0468,-3.0225,-3.0038,-3.0032,-3.0032,-3.0032,-3.0032,-2.9989,-2.9859,-2.9633,-2.9589,-2.9522,-2.9432,-2.9522,-2.9627,-2.9776,-2.9908,-3.0022,-3.013,-3.0215,-3.03,-3.0359,-3.0613,-3.0992,-3.1392,-3.1432,-3.1644,-3.1941,0.0,0.0,0.0,0.0,0.0,0.0,0.0,0.0,0.0,0.0,0.0,0.0,0.0,0.0,0.0,0.0,0.0,0.0,0.0,0.0,0.0,0.0,0.0,0.0,0.0,0.0,0.0,0.0,0.0,0.0,0.0,0.0,0.0,0.0,0.0,-4.0727,-4.0727,-4.1034,-4.1467,-4.2003,-4.2426,-4.2893,-4.3383,-4.3561,-4.3783,-4.4184,-4.4325,-4.4505,-4.4783,-4.4799,-4.4723,-4.461,-4.461,-4.461,-4.461,-4.461,-4.461,-4.461,-4.461,-4.461,-4.461,-4.461,-4.461,-4.4579,-4.4132,-4.3519,-4.2854,-4.226,-4.1576,-4.1,-4.1,-4.0966,-4.0898,0.0,0.0,0.0,-2.8389,-2.9319,-2.9955,-2.9592,-3.0652,-3.144,-3.1247,-3.1092,-3.0975,-3.0912,-3.0535,-3.0225,-3.0027,-2.9728,-2.9544,-2.947,-2.947,-2.947,-2.947,-2.9335,-2.9282,-2.9282,-2.9144,-2.9075,-2.9075,-2.9075,-2.9144,-2.9266,-2.9403,-2.9499,-2.9589,-2.9705,-2.9853,-2.9951,-2.9832,-3.0489,-3.1588,-3.1651,-3.2109,-3.2774,0.0,0.0,0.0,0.0,0.0,0.0,0.0,0.0,0.0,0.0,0.0,0.0,0.0,0.0,0.0,0.0,0.0,0.0,0.0,0.0,0.0,0.0,0.0,0.0,0.0,0.0,0.0,0.0,0.0,0.0,0.0,0.0,0.0,-4.0181,-4.0086,-4.0011,-4.0026,-4.07,-4.1275,-4.1515,-4.2294,-4.2911,-4.3141,-4.3764,-4.4013,-4.3845,-4.4518,-4.4799,-4.461,-4.461,-4.461,-4.461,-4.461,-4.461,-4.461,-4.461,-4.461,-4.461,-4.461,-4.461,-4.461,-4.461,-4.461,-4.461,-4.461,-4.3818,-4.2571,-4.2025,-4.1419,-4.0799,-4.0799,-4.0662,-4.0489,0.0,0.0,-2.8788,-2.9062,-2.9659,-3.0147,-3.0283,-3.0979,-3.144,-3.1247,-3.1092,-3.0935,-3.0773,-3.0347,-3.0006,-2.9798,-2.9266,-2.8943,-2.892,-2.8834,-2.8772,-2.8772,-2.874,-2.8646,-2.851,-2.8549,-2.8549,-2.8453,-2.8549,-2.8692,-2.8873,-2.8897,-2.9036,-2.9236,-2.9266,-2.9328,-2.935,-2.9328,-3.0058,-3.131,-3.1174,-3.1521,-3.2141,0.0,0.0,0.0,0.0,0.0,0.0,0.0,0.0,0.0,0.0,0.0,0.0,0.0,0.0,0.0,0.0,0.0,0.0,0.0,0.0,0.0,0.0,0.0,0.0,0.0,0.0,0.0,0.0,0.0,0.0,0.0,0.0,-3.9839,-4.0016,-4.0031,-4.0178,-4.0663,-4.0912,-4.1471,-4.2482,-4.2816,-4.3234,-4.3912,-4.4149,-4.4295,-4.437,-4.4593,-4.4648,-4.461,-4.461,-4.461,-4.461,-4.461,-4.461,-4.461,-4.461,-4.461,-4.461,-4.461,-4.461,-4.461,-4.461,-4.461,-4.461,-4.461,-4.4117,-4.327,-4.2643,-4.1641,-4.0593,-4.0593,-4.0558,-4.0489,0.0,-2.8881,-2.8898,-2.9431,-2.9905,-3.0331,-3.0664,-3.1191,-3.1464,-3.1271,-3.1075,-3.0875,-3.0651,-3.0156,-2.97,-2.9396,-2.8889,-2.8525,-2.8414,-2.8326,-2.8277,-2.8277,-2.8277,-2.8244,-2.8128,-2.8177,-2.8177,-2.8128,-2.8177,-2.8299,-2.8429,-2.8462,-2.8581,-2.8724,-2.8787,-2.8818,-2.885,-2.8818,-2.9632,-3.0927,-3.0749,-3.1421,-3.2487,-3.2487,-3.2487,-3.2487,-3.2487,-3.2487,-3.2487,-3.2487,0.0,0.0,0.0,0.0,0.0,0.0,0.0,0.0,0.0,0.0,0.0,0.0,0.0,0.0,0.0,0.0,0.0,0.0,0.0,0.0,0.0,0.0,0.0,0.0,-3.9369,-3.973,-4.0124,-4.0169,-4.0305,-4.0697,-4.1225,-4.1912,-4.2811,-4.3129,-4.3539,-4.4135,-4.4166,-4.4327,-4.4772,-4.4849,-4.5026,-4.5302,-4.538,-4.528,-4.5003,-4.5003,-4.4902,-4.461,-4.461,-4.461,-4.461,-4.461,-4.461,0.0,-4.461,-4.461,-4.461,-4.461,-4.4209,0.0,0.0,0.0,0.0,0.0,-4.0455,-4.0401,0.0,-2.9025,-2.9143,-2.9723,-3.0227,-3.068,-3.101,-3.1389,-3.156,-3.1334,-3.1058,-3.081,-3.0531,-2.9962,-2.9432,-2.8951,-2.8597,-2.825,-2.798,-2.7955,-2.7955,-2.7955,-2.7955,-2.7955,-2.7955,-2.7955,-2.7955,-2.7955,-2.7955,-2.7955,-2.798,-2.8088,-2.8162,-2.8186,-2.8299,-2.8381,-2.8431,-2.8381,-2.9206,-3.0526,-3.0407,-3.1487,-3.3187,-3.3187,-3.3187,-3.3187,-3.3187,-3.3187,-3.3187,-3.3187,0.0,0.0,0.0,0.0,0.0,0.0,0.0,0.0,0.0,0.0,0.0,0.0,0.0,0.0,0.0,0.0,0.0,0.0,0.0,0.0,0.0,0.0,0.0,0.0,-3.9697,-3.9843,-4.0427,-4.0576,-4.0621,-4.0621,-4.1692,-4.2518,-4.2724,-4.3305,-4.3784,-4.4055,-4.4055,-4.4382,-4.505,0.0,0.0,0.0,0.0,-4.6311,-4.5711,-4.5634,-4.528,-4.4733,-4.4656,-4.461,-4.461,-4.461,-4.461,-4.461,-4.461,-4.461,-4.461,-4.461,-4.4178,-4.3424,-4.2756,-4.2078,-4.1401,-4.072,-4.0401,-4.0277,0.0,-2.9623,-3.0088,-3.0586,-3.1146,-3.1615,-3.1916,-3.1897,-3.1711,-3.1353,-3.1117,-3.0855,-3.0547,-2.9962,-2.9454,-2.9098,-2.8573,-2.8088,-2.77,-2.7675,-2.7675,-2.7675,-2.7675,-2.7675,-2.7675,-2.7675,-2.7675,-2.7675,-2.7675,-2.774,-2.784,-2.7865,-2.7955,-2.8029,-2.8054,-2.8079,-2.8103,-2.8079,-2.8855,-3.0099,-3.0099,-3.1079,-3.2563,-3.2563,-3.2563,-3.2563,-3.2563,-3.2563,-3.2563,-3.2563,-3.2563,-3.2655,-3.324,-3.3411,0.0,0.0,0.0,0.0,0.0,0.0,0.0,0.0,0.0,0.0,0.0,0.0,0.0,0.0,0.0,0.0,0.0,0.0,0.0,-4.0261,-4.0688,-4.1055,-4.1175,-4.1692,-4.2021,-4.2021,-4.2246,-4.2605,-4.3129,-4.3309,-4.3673,-4.4438,-4.4469,-4.485,-4.5693,-4.5779,-4.5945,-4.6284,-4.6324,-4.6383,-4.6403,-4.5865,-4.5526,-4.5387,0.0,0.0,-4.461,-4.461,-4.461,-4.461,-4.461,-4.461,-4.461,-4.461,-4.3879,-4.2725,-4.2063,-4.1355,-4.0689,-4.0412,-4.0312,-4.0226,-3.0053,-3.0169,-3.0552,-3.1488,-3.1748,-3.1969,-3.2331,-3.2162,-3.1893,-3.1579,-3.1291,-3.0995,-3.0679,-3.014,-2.9633,-2.9236,-2.8525,-2.7989,-2.7715,-2.765,-2.76,-2.76,-2.76,-2.76,-2.76,-2.76,-2.76,-2.76,-2.76,-2.7625,-2.7715,-2.8036,-2.8226,-2.8318,-2.865,-2.88,-2.88,-2.88,-2.9373,-3.0262,-3.0262,-3.0933,-3.1966,-3.2135,-3.2191,-3.2191,-3.2191,-3.2191,-3.2191,-3.2191,-3.242,-3.2756,-3.3093,-3.3414,-3.3705,0.0,0.0,0.0,0.0,0.0,0.0,0.0,0.0,0.0,0.0,0.0,0.0,0.0,0.0,-3.9394,0.0,0.0,-4.0891,-4.0891,-4.1175,-4.1527,-4.1856,-4.2186,-4.2396,-4.2396,-4.2656,-4.297,-4.326,-4.3589,-4.3998,-4.4408,-4.4779,-4.53,-4.6075,-4.6214,-4.649,-4.6963,-4.7087,-4.7058,-4.6819,-4.6483,-4.6003,-4.5432,-4.511,-4.4849,-4.461,-4.461,-4.461,-4.461,-4.461,-4.461,-4.461,-4.461,-4.3802,-4.2571,-4.2232,-4.1463,-4.0489,-4.0347,-4.0156,-3.991,-3.1064,-3.1017,-3.1229,-3.2276,-3.2317,-3.2331,-3.2631,-3.2421,-3.2144,-3.1892,-3.1557,-3.1213,-3.0885,-3.0393,-2.9875,-2.9312,-2.8558,-2.81,-2.8072,-2.7921,-2.7845,-2.7845,-2.782,-2.7735,-2.76,-2.76,-2.766,-2.7794,-2.7794,-2.7869,-2.8004,-2.8532,-2.8786,-2.8816,-2.934,-2.9606,-2.9606,-2.9606,-2.9939,-3.0507,-3.0507,-3.0883,-3.1524,-3.1798,-3.1912,-3.1912,-3.1912,-3.1912,-3.1912,-3.1912,-3.226,-3.2744,-3.3017,-3.344,-3.3864,-3.4122,-3.4528,0.0,0.0,0.0,0.0,0.0,0.0,0.0,0.0,-3.8212,-3.8616,-3.8751,-3.9649,-4.0442,-4.0561,-4.113,-4.1564,-4.1564,-4.1669,-4.1953,-4.2515,-4.259,-4.259,-4.259,-4.3015,-4.3349,-4.3469,-4.3962,-4.4421,-4.4691,-4.52,-4.5798,-4.6471,-4.6656,-4.7009,-4.7566,-4.7794,-4.7679,-4.7205,-4.7084,-4.6468,-4.5434,-4.5343,-4.5032,-4.4549,-4.4572,-4.461,-4.461,-4.461,-4.461,-4.461,-4.461,-4.3802,-4.2602,-4.2565,-4.1684,-4.0436,-4.0261,-3.9945,-3.9502,0.0,-3.2635,-3.2907,-3.2699,-3.3081,-3.3306,-3.3006,-3.2766,-3.2505,-3.2126,-3.1856,-3.156,-3.1123,-3.0699,-3.0092,-2.9205,-2.8716,-2.862,-2.9002,-2.8819,-2.8665,-2.8665,-2.855,-2.8203,-2.76,-2.76,-2.7899,-2.8487,-2.8487,-2.8786,-2.9382,-2.9457,-2.9502,-2.9502,-2.9577,-2.9606,-2.9606,-2.9606,-2.9939,-3.0507,-3.0507,-3.0883,-3.1511,-3.1539,-3.1568,-3.1568,-3.1568,-3.1568,-3.1568,-3.1568,-3.1613,-3.1883,-3.3081,-3.3486,-3.3785,-3.4953,-3.5357,-3.54,-3.54,-3.5911,-3.6671,-3.7883,-3.8227,-3.8437,0.0,-3.9209,-3.9469,-4.0053,-4.0292,-4.0576,-4.116,-4.1856,-4.2291,-4.2291,-4.2746,-4.3095,-4.317,-4.3185,-4.3185,-4.3185,-4.3245,-4.3529,-4.4152,-4.4272,-4.4811,-4.6007,-4.613,-4.6501,-4.716,-4.7233,-4.7349,-4.7581,-4.7624,-4.7722,-4.79,-4.7297,-4.6629,-4.5935,-4.5492,-4.4969,-4.4358,-4.4511,-4.461,-4.461,-4.461,-4.461,-4.461,-4.461,-4.3802,-4.2565,-4.2404,-4.149,-4.0277,-3.991,-3.9502,-3.9068,0.0,-3.307,-3.3587,-3.3765,-3.3751,-3.3583,-3.3232,-3.3003,-3.2768,-3.2438,-3.2179,-3.1893,-3.1542,-3.0902,-3.022,-2.9572,-2.9097,-2.906,-2.9509,-2.923,-2.921,-2.9605,-2.9489,-2.9286,-2.8999,-2.8999,-2.9135,-2.9395,-2.9395,-2.9573,-2.9845,-3.0226,-3.0422,-3.0437,-3.083,-3.1207,-3.157,-3.1441,-3.1804,-3.2405,-3.2272,-3.2422,-3.2632,-3.2213,-3.2079,-3.2019,-3.1645,-3.1511,0.0,-3.1511,-3.1765,-3.2243,-3.32,-3.3754,-3.4262,-3.522,-3.5504,-3.5594,-3.5968,-3.6537,-3.724,-3.8167,-3.8691,-3.9065,-3.9349,-3.9709,-4.0068,-4.0337,-4.101,-4.1662,-4.1931,-4.2491,-4.2925,0.0,-4.3125,-4.329,-4.329,-4.329,-4.329,-4.329,-4.3633,-4.4003,-4.4287,-4.4661,-4.5289,-4.6204,-4.6681,-4.701,-4.7294,-4.7309,-4.7352,-4.7424,-4.7424,-4.7467,-4.7596,-4.7282,-4.6689,-4.5742,-4.5551,-4.5069,-4.4281,-4.4396,-4.4511,-4.461,-4.461,-4.461,-4.461,-4.461,-4.3802,-4.2565,-4.2404,-4.1346,-3.991,-3.9502,-3.909,-3.8634,0.0,-3.3597,-3.4207,-3.4607,-3.434,-3.3902,-3.3508,-3.3294,-3.3052,-3.2786,-3.2538,-3.2249,-3.1874,-3.1179,-3.0559,-3.0118,-2.9839,-2.9869,-3.0361,-3.0164,-3.0228,-3.0695,-3.0554,-3.0357,-3.0121,-3.0105,-3.0197,-3.0395,-3.0632,-3.0842,-3.1041,-3.1772,-3.2066,-3.2053,-3.2542,-3.2988,-3.3403,-3.3212,-3.3411,-3.388,-3.3652,-3.3591,-3.3516,-3.2976,-3.2781,-3.2677,-3.1809,-3.1511,-3.1511,-3.1511,-3.1824,-3.2363,-3.323,-3.3829,-3.4382,-3.525,-3.5504,-3.5684,-3.6507,-3.706,-3.7614,-3.8452,-3.905,-3.9388,-3.9388,-3.9783,-4.0232,-4.0591,-4.1467,-4.2246,-4.2566,-4.3015,-4.329,-4.329,-4.329,-4.329,-4.329,-4.329,-4.329,-4.329,-4.3873,-4.4392,-4.4571,-4.5185,-4.5858,-4.6546,-4.704,-4.7309,-4.7309,-4.7309,-4.7309,-4.7309,-4.7309,-4.7309,-4.7309,-4.713,-4.6526,-4.5522,-4.5382,-4.4906,-4.4143,-4.4243,-4.4396,-4.461,-4.461,-4.461,-4.461,-4.461,-4.3802,-4.2565,-4.2331,-4.1149,-3.9538,-3.898,-3.856,-3.8136,0.0,0.0,-3.5015,-3.4908,-3.4761,-3.4473,-3.3868,-3.3671,-3.3459,-3.3132,-3.2961,-3.2639,-3.1966,-3.1584,-3.1206,-3.0808,-3.0978,-3.1342,-3.1819,-3.201,-3.2079,-3.2049,-3.1748,-3.1201,-3.0407,-3.0381,-3.0705,-3.1351,-3.2187,-3.2963,-3.3603,-3.446,-3.4771,-3.4583,-3.4599,-3.4572,-3.4457,-3.4251,-3.4178,-3.4163,-3.391,-3.3804,-3.3774,-3.3546,-3.3469,-3.3305,-3.1974,-3.1511,-3.1511,-3.1511,-3.1511,-3.1765,-3.308,-3.3499,-3.3784,-3.5115,-3.5504,-3.5774,-3.7045,-3.7404,-3.7734,-3.905,-3.9373,-3.9388,-3.9388,-3.9439,-3.9813,-4.1085,-4.1422,-4.1803,-4.3021,-4.329,-4.329,-4.329,-4.329,-4.329,-4.329,-4.329,-4.329,-4.329,-4.3873,-4.4571,0.0,-4.5888,-4.6576,-4.7234,-4.7294,-4.7309,-4.7309,-4.7309,-4.7309,-4.7309,-4.7309,-4.7309,-4.7309,-4.6681,-4.5992,-4.5289,-4.4835,-4.4308,-4.3729,-4.4127,-4.4396,-4.461,-4.461,-4.461,-4.461,-4.461,-4.3802,-4.2565,-4.2147,-4.093,-3.9292,-3.83,-3.7825,-3.7534,0.0,0.0,0.0,-3.5053,-3.4964,-3.4781,-3.4443,-3.4136,-3.3829,-3.3545,-3.3193,0.0,0.0,0.0,0.0,0.0,-3.1223,-3.1566,-3.2558,-3.2415,-3.2636,-3.3448,-3.3259,-3.2958,-3.2592,-3.2592,-3.294,-3.3678,-3.3953,-3.444,-3.5102,-3.5383,-3.5494,-3.5423,-3.5423,-3.5609,-3.5867,-3.5739,-3.5784,-3.5965,-3.5707,-3.5523,-3.5307,-3.4573,-3.4314,-3.4178,0.0,-3.2557,-3.2153,-3.2153,-3.2153,-3.2392,-3.3724,-3.4174,-3.4354,-3.5235,-3.5504,-3.5789,-3.706,-3.7404,-3.7734,-3.9059,-3.9388,-3.9388,-3.9388,-3.9753,-4.0322,-4.1205,-4.1767,-4.2336,-4.314,-4.329,-4.3439,-4.3873,-4.3947,-4.4137,-4.4571,-4.4631,-4.4631,-4.4631,-4.5229,0.0,0.0,0.0,0.0,-4.7249,-4.7309,-4.7309,-4.7309,-4.7309,-4.7309,-4.7309,-4.7309,-4.7309,-4.7309,-4.6651,-4.5978,-4.5289,-4.4439,-4.3886,-4.3729,-4.4127,-4.4358,-4.4396,-4.4549,-4.461,-4.461,-4.461,-4.3712,-4.2368,-4.1947,-4.0658,-3.8892,-3.8014,-3.7275,-3.6677,0.0,0.0,0.0,0.0,0.0,0.0,0.0,0.0,0.0,0.0,0.0,0.0,0.0,0.0,0.0,0.0,0.0,-3.2317,-3.3379,-3.3275,-3.3626,-3.4638,-3.4423,-3.4193,-3.4034,-3.3984,-3.4355,-3.5091,-3.5418,-3.5914,-3.6589,-3.6886,-3.6972,-3.6934,-3.6934,-3.7083,-3.7311,-3.7141,-3.7165,-3.7237,-3.6892,-3.6585,-3.629,-3.5535,-3.5149,0.0,-3.4192,-3.3621,-3.3185,-3.2946,-3.2871,-3.3051,-3.4159,-3.4668,-3.4936,-3.537,-3.5504,-3.5789,-3.706,-3.7404,-3.7734,-3.9059,-3.9388,-3.9388,-3.9388,-3.9753,-4.0232,-4.0891,-4.1587,-4.2246,-4.2865,-4.3125,-4.3514,-4.4212,-4.4317,-4.4541,-4.52,-4.5289,-4.5289,-4.5289,-4.5903,-4.6279,0.0,0.0,0.0,-4.7279,-4.7309,-4.7309,-4.7309,-4.7309,-4.7309,-4.7309,-4.7309,-4.7189,-4.695,-4.6292,-4.5499,-4.4586,-4.3868,-4.3596,-4.3729,-4.3988,-4.4166,-4.432,-4.4435,-4.4534,-4.461,-4.461,-4.3675,-4.2279,-4.1857,-4.0472,-3.8612,-3.7801,-3.6925,-3.6163,0.0,0.0,0.0,0.0,0.0,0.0,0.0,0.0,0.0,0.0,0.0,0.0,0.0,0.0,0.0,0.0,0.0,0.0,-3.4356,-3.4616,-3.5002,-3.5537,-3.5243,-3.4934,-3.4673,-3.4586,-3.4956,-3.572,-3.6536,-3.7338,-3.8124,-3.8891,-3.9152,-3.905,-3.905,-3.8914,-3.8639,-3.8455,-3.8185,-3.7915,-3.7447,-3.7074,-3.6708,-3.6399,-3.6038,-3.5661,-3.5011,-3.4659,-3.4459,-3.3769,-3.3559,-3.3709,-3.4369,-3.4981,-3.5504,-3.5504,-3.5504,-3.5789,-3.706,-3.7404,-3.7734,-3.9059,-3.9388,-3.9388,-3.9388,-3.9388,-3.9604,-4.0262,-4.0891,-4.1572,-4.2276,-4.2865,-4.3484,-4.4242,-4.4362,-4.4601,-4.5304,-4.5394,-4.5394,0.0,0.0,0.0,0.0,0.0,0.0,-4.7204,0.0,-4.7309,-4.7309,-4.7309,-4.7309,-4.7309,-4.7279,-4.695,-4.6337,-4.5603,-4.4601,-4.329,-4.329,-4.3423,-4.369,-4.369,-4.391,-4.4281,-4.4281,-4.4396,-4.461,-4.461,-4.3675,-4.2242,-4.1857,-4.036,-3.8404,-3.7558,-3.6744,-3.5951,0.0,0.0,0.0,0.0,0.0,0.0,0.0,0.0,0.0,0.0,0.0,0.0,0.0,0.0,0.0,0.0,0.0,0.0,-3.5776,-3.5692,-3.5824,-3.637,-3.6151,-3.589,-3.5582,-3.5504,-3.6047,-3.7246,-3.7448,-3.827,-3.9572,-3.9766,-3.979,-3.9677,-3.9677,-3.952,-3.9272,-3.9202,-3.8942,-3.8539,-3.8343,-3.7972,-3.7565,-3.7118,-3.6739,-3.6383,-3.5981,-3.5637,-3.5277,-3.4505,-3.4562,-3.5026,-3.519,-3.537,-3.5504,-3.5504,-3.5504,-3.5789,-3.706,-3.7404,-3.7734,-3.9059,-3.9388,-3.9388,-3.9388,-3.9388,-3.9604,-4.0262,-4.0531,-4.0995,-4.2186,-4.2545,-4.315,-4.4781,-4.505,0.0,-4.6636,-4.68,0.0,-4.68,-4.6516,-4.6279,-4.6279,-4.6007,0.0,0.0,-4.6741,-4.7309,-4.7309,-4.7309,-4.7309,-4.7309,-4.683,-4.6444,-4.6279,-4.5155,-4.4152,-4.329,-4.329,-4.3329,-4.3423,-4.3596,-4.3847,-4.4089,-4.4243,-4.4396,-4.461,-4.461,-4.36,-4.2021,-4.1618,-4.0158,-3.8165,-3.7366,-3.6508,-3.571,0.0,0.0,0.0,0.0,0.0,0.0,0.0,0.0,0.0,0.0,0.0,0.0,0.0,0.0,0.0,0.0,0.0,0.0,0.0,-3.6451,-3.6559,-3.7098,-3.69,-3.662,-3.6336,-3.6199,-3.6627,-3.7701,-3.7996,-3.8764,-3.9941,-4.0283,-4.0387,-4.0255,-4.0255,-4.0104,-3.9849,-3.9798,-3.9547,0.0,0.0,-3.8595,-3.8205,-3.812,-3.7785,-3.7374,-3.7467,-3.7146,-3.6647,-3.609,-3.5719,-3.5504,-3.5504,-3.5699,-3.5938,-3.5938,-3.6133,-3.6552,-3.7569,-3.7838,-3.8093,-3.9155,-3.9388,-3.9388,-3.9388,-3.9388,-3.9493,-3.9888,-4.0202,-4.0711,-4.1782,-4.2201,-4.3054,-4.4975,-4.5289,0.0,-4.7115,-4.7309,-4.7309,0.0,-4.6726,0.0,-4.6279,-4.5693,-4.5289,0.0,-4.5992,-4.6426,-4.6426,-4.6426,-4.6426,-4.6426,-4.6067,-4.5738,-4.5454,-4.4366,-4.3663,-4.329,-4.329,-4.329,-4.329,-4.3463,-4.3636,-4.3871,0.0,-4.4281,-4.4473,-4.4473,-4.3487,-4.1947,-4.1468,-4.0007,-3.8089,-3.7289,-3.6468,-3.5642,0.0,0.0,0.0,0.0,0.0,0.0,0.0,0.0,0.0,0.0,0.0,0.0,0.0,0.0,0.0,0.0,0.0,0.0,0.0,0.0,-3.7244,-3.7774,-3.7486,-3.7226,-3.6997,-3.6736,-3.7026,-3.7874,-3.8465,-3.916,-3.998,-4.0677,-4.0918,-4.0769,-4.0769,-4.0607,-4.0355,-4.0238,-4.002,-3.9755,-3.9435,-3.9137,-3.8918,0.0,-3.899,-3.862,-3.8984,-3.8688,-3.8062,-3.7809,-3.6854,-3.5759,-3.5759,-3.6148,-3.6611,-3.6611,-3.6985,-3.7554,-3.8212,-3.8392,-3.8556,-3.9245,-3.9388,-3.9388,-3.9388,-3.9388,-3.9388,-3.9388,-3.9873,-4.0502,-4.125,-4.1886,-4.2905,-4.484,-4.5229,-4.5738,-4.6995,-4.7249,-4.7309,-4.7309,-4.6651,-4.6187,-4.6187,-4.5484,-4.5035,-4.5035,-4.5035,-4.511,-4.5289,-4.5289,-4.5259,-4.517,-4.517,-4.4855,-4.4182,-4.3574,-4.329,-4.329,-4.329,-4.329,-4.329,-4.329,-4.3463,-4.3729,-4.3871,0.0,-4.4243,-4.4243,-4.3335,-4.1873,-4.1279,-3.9871,-3.8014,-3.725,-3.6429,-3.5602,0.0,0.0,0.0,0.0,0.0,0.0,0.0,0.0,0.0,0.0,-3.6015,-3.6133,0.0,0.0,0.0,0.0,0.0,0.0,0.0,0.0,0.0,-3.8206,-3.7966,-3.7756,-3.7559,-3.7356,-3.7913,-3.9262,-3.9382,-4.0095,-4.1363,-4.1503,-4.1396,-4.1117,-4.1117,-4.0924,-4.0624,-4.06,-4.0436,-4.0163,-4.002,-4.0134,-4.0384,-4.0072,0.0,0.0,-3.9517,-3.9028,-3.8606,-3.8095,-3.7541,-3.7075,-3.7075,-3.7165,-3.724,-3.724,-3.733,-3.7554,-3.8212,-3.8392,-3.8556,-3.9245,-3.9388,-3.9388,-3.9388,-3.9388,-3.9388,-3.9388,-3.9514,-3.9963,-4.116,-4.1512,-4.2192,-4.4167,-4.4945,-4.5574,-4.6381,-4.6965,-4.7309,0.0,-4.6217,-4.5469,-4.5469,-4.4392,0.0,0.0,0.0,-4.4152,-4.5229,-4.5289,-4.505,-4.4496,-4.4481,-4.4167,-4.3469,-4.3349,-4.329,-4.329,-4.329,-4.329,-4.329,-4.329,-4.3463,-4.369,-4.3729,0.0,-4.4065,-4.4065,-4.3045,-4.1445,-4.1035,-3.9551,-3.761,-3.6978,-3.6191,-3.544,0.0,0.0,0.0,0.0,0.0,0.0,0.0,-3.576,-3.6316,-3.7119,-3.7449,-3.7678,-3.7822,-3.8146,-3.8415,0.0,0.0,0.0,0.0,0.0,0.0,0.0,-3.8352,-3.8186,-3.8019,-3.8241,-3.8688,-3.9402,0.0,-4.0856,-4.1502,-4.1875,-4.1924,-4.1679,-4.1591,-4.1436,-4.1209,-4.1024,-4.0853,-4.0673,-4.0895,-4.0994,-4.1052,0.0,0.0,0.0,-4.1147,-4.0593,-4.0186,-3.964,-3.9146,-3.8577,-3.7698,-3.7644,-3.7913,-3.7913,-3.8182,-3.8527,-3.8841,-3.8931,-3.9005,-3.9298,-3.9388,-3.9388,-3.9388,-3.9388,-3.9388,-3.9388,-3.9388,-3.9709,-4.0696,-4.1145,-4.1908,-4.3499,-4.4646,-4.5529,-4.619,-4.689,-4.7309,-4.7309,-4.6112,-4.5289,-4.5289,-4.4107,-4.329,-4.329,0.0,-4.3559,-4.4242,-4.4272,-4.4122,-4.3768,-4.3768,-4.3618,-4.329,-4.329,-4.329,-4.329,-4.329,-4.329,-4.329,-4.329,-4.3384,-4.3518,-4.3636,0.0,-4.3801,-4.3337,-4.2406,-4.1173,-4.0283,-3.8914,-3.738,-3.673,-3.6017,-3.5358,0.0,0.0,0.0,0.0,0.0,0.0,0.0,-3.615,-3.6987,-3.7813,-3.8624,-3.9087,-3.9,-3.9462,-3.9682,0.0,0.0,0.0,0.0,0.0,0.0,0.0,0.0,-3.8752,-3.8644,0.0,0.0,-3.9805,-4.0962,0.0,0.0,0.0,0.0,0.0,-4.2103,-4.1941,-4.177,-4.1463,-4.1277,0.0,0.0,-4.1748,0.0,0.0,0.0,0.0,0.0,-4.2238,-4.1704,-4.1122,-4.0558,-3.9904,-3.8376,-3.8232,-3.8601,-3.8601,-3.899,-3.9388,-3.9388,-3.9388,-3.9388,-3.9388,-3.9388,-3.9388,-3.9388,-3.9388,-3.9388,-3.9388,-3.9388,-3.9619,-4.0277,-4.0935,-4.1758,-4.2925,-4.4227,-4.5319,-4.6007,-4.6681,-4.71,-4.71,-4.6022,0.0,-4.5095,-4.3977,0.0,-4.325,0.0,0.0,-4.3305,-4.329,-4.329,-4.329,-4.329,-4.329,-4.329,-4.329,-4.329,-4.329,-4.329,-4.329,-4.329,-4.329,-4.329,-4.329,-4.3518,0.0,0.0,-4.2626,-4.1683,-4.0707,-3.947,-3.8178,-3.694,-3.6401,-3.5777,-3.5236,0.0,0.0,0.0,0.0,0.0,0.0,0.0,-3.6185,-3.7019,-3.7877,-3.8685,-3.9462,-4.0159,-4.0129,-3.9954,0.0,0.0,0.0,0.0,0.0,0.0,0.0,0.0,0.0,0.0,0.0,0.0,-4.1739,0.0,0.0,0.0,0.0,0.0,0.0,0.0,0.0,-4.2044,-4.1895,0.0,0.0,0.0,0.0,0.0,0.0,0.0,0.0,0.0,-4.2943,-4.2396,-4.154,-4.1021,-4.0562,-3.9743,-3.9418,-3.9334,-3.9334,-3.9328,-3.9388,-3.9388,-3.9388,-3.9388,-3.9388,-3.9388,-3.9388,-3.9388,-3.9388,-3.9388,-3.9388,-3.9388,-3.9619,-4.0277,-4.0935,-4.1647,-4.2366,-4.3554,-4.4631,-4.5304,-4.5978,-4.6369,-4.6369,0.0,0.0,-4.4466,-4.3573,-4.3036,-4.3036,0.0,0.0,-4.329,-4.329,-4.329,-4.329,-4.329,-4.329,-4.329,-4.329,-4.329,-4.329,-4.329,-4.329,-4.329,-4.329,-4.329,-4.329,-4.3329,0.0,0.0,-4.2194,-4.1081,-3.9819,-3.8782,-3.7447,-3.6071,-3.5831,-3.5358,-3.4839,0.0,0.0,0.0,0.0,0.0,0.0,-3.55,-3.6635,-3.7603,-3.795,-3.9165,-4.0295,-4.108,-4.1107,-4.0931,-4.0623,0.0,0.0,0.0,0.0,0.0,0.0,0.0,0.0,0.0,0.0,-4.2093,-4.2898,-4.3393,0.0,0.0,0.0,0.0,0.0,0.0,0.0,0.0,0.0,0.0,0.0,0.0,0.0,0.0,0.0,0.0,0.0,0.0,0.0,-4.2789,-4.2029,-4.1423,-4.0867,-4.0231,-3.9824,-3.9553,-3.946,-3.9388,-3.9388,-3.9388,-3.9388,-3.9388,-3.9388,-3.9388,-3.9388,-3.9388,-3.9388,-3.9388,-3.9388,-3.9388,-3.9463,-3.9768,-4.0666,-4.1512,-4.1767,-4.321,-4.4407,-4.4661,-4.5289,-4.5708,-4.5708,-4.5001,0.0,0.0,0.0,-4.2769,0.0,0.0,0.0,-4.2496,-4.2795,-4.293,-4.293,-4.3036,-4.3115,-4.3115,-4.325,-4.329,-4.329,-4.329,-4.329,-4.329,-4.329,-4.329,-4.329,-4.329,0.0,0.0,-4.1406,-4.0236,-3.8957,-3.778,-3.673,-3.579,-3.548,-3.5127,-3.4756,0.0,0.0,0.0,0.0,0.0,-3.55,-3.55,-3.693,-3.8007,-3.8007,-3.9457,-4.0808,-4.164,-4.1931,-4.2085,-4.2062,-4.1699,0.0,0.0,0.0,0.0,0.0,0.0,0.0,0.0,0.0,-4.3296,-4.3846,-4.4654,-4.5315,0.0,0.0,0.0,0.0,0.0,0.0,0.0,0.0,0.0,0.0,0.0,0.0,0.0,0.0,0.0,0.0,0.0,0.0,0.0,0.0,0.0,-4.1174,-4.0409,-4.0021,-3.9732,-3.9496,-3.9388,-3.9388,-3.9388,-3.9388,-3.9388,-3.9388,-3.9388,-3.9388,-3.9388,-3.9388,-3.9388,-3.9388,-3.9388,-3.9388,-3.9388,-4.0502,-4.1422,-4.1422,-4.2865,-4.4092,-4.4287,-4.468,-4.4923,-4.4923,0.0,-4.3726,0.0,-4.2805,-4.2213,0.0,0.0,0.0,-4.1632,-4.1937,-4.2281,-4.2622,-4.2729,-4.2835,-4.2915,-4.305,-4.313,-4.321,-4.321,-4.325,-4.329,-4.329,-4.329,-4.329,-4.3135,0.0,0.0,-4.0622,-3.945,-3.8285,-3.6981,-3.6111,-3.548,-3.5113,-3.488,-3.466,0.0,0.0,0.0,0.0,0.0,0.0,-3.55,-3.693,-3.8007,-3.8007,-3.9457,-4.0835,-4.1692,-4.2505,-4.328,-4.4001,-4.3162,0.0,0.0,0.0,0.0,0.0,0.0,0.0,0.0,0.0,-4.4673,-4.469,-4.5498,-4.5883,-4.5902,-4.5883,-4.5847,0.0,0.0,0.0,0.0,0.0,0.0,0.0,0.0,0.0,0.0,0.0,0.0,0.0,0.0,0.0,0.0,0.0,0.0,0.0,0.0,-4.0106,-3.9925,-3.9532,-3.9388,-3.9388,-3.9388,-3.9388,-3.9388,-3.9388,-3.9388,-3.9388,-3.9388,-3.9388,-3.9388,-3.9388,-3.9388,-3.9388,-3.9388,-4.0502,-4.1422,-4.1422,-4.2476,-4.3529,-4.4227,-4.4128,-4.402,0.0,0.0,-4.315,-4.2465,-4.1814,0.0,0.0,0.0,0.0,-4.0688,-4.0702,-4.1255,-4.2351,-4.2392,-4.25,-4.2688,-4.2688,-4.2809,-4.2981,-4.2981,-4.3115,-4.329,-4.329,-4.329,0.0,0.0,0.0,0.0,-3.9892,-3.8681,-3.7796,-3.6505,-3.5642,-3.5086,-3.488,-3.4618,-3.4397,0.0,0.0,0.0,0.0,0.0,0.0,0.0,-3.693,-3.8007,-3.8007,-3.9457,-4.1054,-4.2527,-4.2915,-4.3611,-4.4939,-4.4053,0.0,0.0,0.0,0.0,0.0,0.0,0.0,0.0,0.0,-4.5241,-4.6342,-4.6599,-4.6984,-4.7535,-4.6966,-4.6709,-4.6653,0.0,0.0,0.0,0.0,0.0,0.0,0.0,0.0,0.0,0.0,0.0,0.0,0.0,0.0,0.0,0.0,0.0,0.0,0.0,0.0,0.0,-3.9717,-3.9517,-3.9388,-3.9388,-3.9388,-3.9388,-3.9388,-3.9388,-3.9388,-3.9388,-3.9388,-3.9388,-3.9388,-3.9388,-3.9388,-3.9388,-4.0502,-4.1422,-4.1422,-4.2476,-4.3364,-4.3574,-4.3428,0.0,-4.3135,-4.2478,-4.1807,0.0,0.0,0.0,0.0,0.0,0.0,-4.0213,-4.0213,-4.0516,-4.1213,-4.1549,-4.1773,-4.18,-4.2269,-4.2541,-4.2581,-4.2875,-4.3036,-4.3115,-4.325,-4.309,0.0,0.0,0.0,0.0,-3.9512,-3.8423,-3.7181,-3.6193,-3.5521,-3.5031,-3.466,-3.4481,-3.4397,0.0,0.0,0.0,0.0,0.0,0.0,0.0,-3.693,-3.8007,-3.8007,-3.9457,-4.117,-4.2912,-4.3104,-4.3742,-4.535,-4.511,0.0,0.0,0.0,0.0,0.0,0.0,0.0,0.0,-4.5404,-4.6104,-4.7094,-4.7388,-4.781,-4.8306,-4.7791,-4.7534,-4.7478,-4.6615,0.0,0.0,0.0,0.0,0.0,0.0,0.0,0.0,0.0,0.0,0.0,0.0,0.0,0.0,0.0,0.0,0.0,0.0,0.0,0.0,0.0,-3.9553,-3.9388,-3.9388,-3.9388,-3.9388,-3.9388,-3.9388,-3.9388,-3.9388,-3.9388,-3.9388,-3.9388,-3.9388,-3.9388,-3.9388,-4.0502,-4.1422,-4.1422,-4.2476,-4.325,-4.321,0.0,0.0,-4.2034,0.0,0.0,0.0,0.0,0.0,0.0,0.0,0.0,-3.9482,-3.9482,-3.9601,-3.9908,-4.0602,-4.1029,-4.1128,-4.1633,-4.1924,-4.2022,-4.2444,-4.2673,-4.2754,-4.2718,-4.251,0.0,0.0,0.0,0.0,-3.8861,-3.7915,-3.6783,-3.5911,-3.5399,-3.5031,-3.4564,-3.4397,-3.4397,0.0,0.0,0.0,0.0,0.0,0.0,0.0,-3.693,-3.8007,-3.8007,-3.9457,-4.117,-4.2912,-4.3104,-4.3761,-4.5455,0.0,0.0,0.0,0.0,0.0,0.0,0.0,0.0,-4.5171,-4.6452,-4.7131,-4.7186,-4.792,-4.8306,-4.8306,-4.8306,-4.8267,-4.8169,-4.74,-4.6954,0.0,0.0,0.0,0.0,0.0,0.0,0.0,0.0,0.0,0.0,0.0,0.0,0.0,0.0,0.0,0.0,0.0,0.0,0.0,0.0,0.0,0.0,0.0,-3.9388,-3.9388,-3.9388,-3.9388,-3.9388,-3.9388,-3.9388,0.0,-3.9388,-3.9388,-3.9388,-3.9388,-4.0487,-4.1384,-4.1384,-4.2438,-4.321,0.0,-4.2607,0.0,0.0,-4.0257,0.0,-3.9305,0.0,0.0,0.0,0.0,0.0,-3.8602,-3.8602,-3.8602,-3.8602,-3.9577,-4.0273,-4.0559,-4.0802,-4.1029,-4.124,-4.1686,-4.1988,-4.219,-4.1777,-4.1548,0.0,0.0,0.0,0.0,-3.8007,-3.7226,-3.6587,-3.571,-3.5277,-3.5031,-3.4577,-3.4397,-3.4397,0.0,0.0,0.0,0.0,0.0,0.0,0.0,0.0,0.0,0.0,-3.9457,-4.117,-4.2912,-4.3104,-4.4038,0.0,0.0,0.0,0.0,0.0,0.0,0.0,0.0,0.0,-4.6814,-4.7022,-4.7388,-4.8012,-4.8214,-4.8306,-4.8306,-4.8306,-4.8267,-4.8187,-4.7907,-4.7536,0.0,0.0,0.0,0.0,0.0,0.0,0.0,0.0,0.0,0.0,-4.4542,-4.4412,0.0,0.0,0.0,0.0,0.0,0.0,0.0,0.0,-3.9676,-3.9388,-3.9388,0.0,-3.9388,-3.9388,-3.9388,-3.9388,0.0,-3.9388,-3.9388,-3.9388,-3.9388,-3.9388,-3.9388,-4.0353,-4.1171,-4.1171,-4.21,-4.2809,-4.2769,-4.2131,0.0,-4.0488,-3.9851,-3.9336,-3.8997,0.0,0.0,0.0,0.0,-3.8602,-3.8602,-3.8602,-3.8602,-3.8602,-3.8403,-3.8627,-3.9309,-3.9938,-4.002,-3.9647,-4.039,-4.0586,-4.0164,-4.0463,-4.0285,0.0,0.0,0.0,-3.8178,-3.7591,-3.6964,-3.6308,-3.5669,-3.5195,-3.4839,-3.4535,-3.4397,-3.4397,0.0,0.0,0.0,0.0,0.0,0.0,0.0,0.0,0.0,0.0,0.0,0.0,0.0,0.0,0.0,0.0,0.0,0.0,0.0,0.0,0.0,0.0,0.0,-4.7012,-4.7387,-4.7555,-4.7846,-4.8306,-4.8306,-4.8306,-4.8306,-4.8267,-4.8208,-4.809,-4.787,-4.7557,0.0,0.0,0.0,0.0,0.0,0.0,0.0,0.0,0.0,0.0,-4.4479,-4.4249,0.0,-4.3802,-4.3489,-4.2943,0.0,0.0,0.0,0.0,-3.9711,-3.9388,-3.9388,-3.9388,-3.9388,-3.9388,-3.9388,-3.9388,-3.9388,-3.9388,-3.9388,-3.9388,-3.9337,-3.9265,-3.9265,-3.9951,-4.0586,-4.092,-4.1597,0.0,0.0,0.0,-4.0674,-4.0041,-3.9367,-3.8845,0.0,0.0,0.0,0.0,0.0,-3.8298,-3.8298,-3.8298,-3.8166,-3.7889,-3.7558,-3.771,-3.8327,-3.86,-3.8603,-3.836,-3.9061,-3.9266,-3.909,-3.9142,-3.8946,0.0,0.0,0.0,-3.7313,-3.69,-3.6455,-3.5964,-3.5358,-3.5003,-3.4756,-3.4494,-3.4397,-3.4397,0.0,0.0,0.0,0.0,0.0,0.0,0.0,0.0,0.0,0.0,0.0,0.0,0.0,0.0,0.0,0.0,0.0,0.0,0.0,0.0,0.0,0.0,0.0,-4.7659,-4.7589,-4.8052,-4.8306,-4.8306,-4.8306,-4.8287,-4.8267,-4.8207,-4.807,-4.7891,-4.7557,-4.7249,0.0,0.0,0.0,0.0,0.0,0.0,0.0,0.0,0.0,0.0,0.0,0.0,0.0,-4.3714,-4.3565,-4.3035,-4.2126,0.0,0.0,0.0,0.0,0.0,-3.9388,-3.9388,-3.9388,-3.9388,-3.9388,-3.9388,-3.9388,-3.9388,-3.9388,-3.9337,-3.9228,-3.9068,-3.9031,-3.9394,-3.9862,-4.0406,0.0,0.0,-4.1111,-4.0533,-3.9988,-3.959,-3.898,0.0,0.0,0.0,0.0,0.0,0.0,-3.7769,-3.7769,-3.7678,-3.739,-3.6881,-3.6789,-3.6914,-3.7342,-3.719,-3.7149,-3.7225,-3.7687,-3.7979,-3.8103,-3.7763,-3.7606,-3.7564,0.0,0.0,-3.6547,-3.6111,-3.5831,-3.5562,-3.5003,-3.4756,-3.4714,-3.4481,-3.4397,-3.4397,0.0,0.0,0.0,0.0,0.0,0.0,0.0,0.0,0.0,0.0,0.0,0.0,0.0,0.0,0.0,0.0,0.0,0.0,0.0,0.0,0.0,-4.8965,-4.8785,-4.86,-4.842,-4.8328,-4.8306,-4.8306,-4.8306,-4.8267,-4.8207,-4.809,-4.7809,-4.7389,-4.7183,-4.698,-4.6801,0.0,0.0,0.0,0.0,0.0,0.0,0.0,0.0,0.0,0.0,0.0,0.0,-4.3903,-4.3818,-4.3369,-4.2349,0.0,0.0,0.0,0.0,0.0,-3.9388,-3.9388,-3.9388,-3.9388,-3.9388,-3.9388,-3.9388,-3.9388,-3.9337,-3.9177,-3.9104,-3.8995,-3.8664,-3.8981,-3.9271,-3.9204,0.0,-3.9595,0.0,0.0,-3.9286,-3.9326,0.0,0.0,0.0,0.0,0.0,0.0,0.0,-3.7142,-3.7142,-3.6658,-3.6332,-3.624,-3.5796,-3.5604,-3.5676,-3.6286,-3.6363,-3.5873,-3.6366,-3.6359,-3.5913,-3.6182,-3.6288,-3.6288,0.0,-3.6338,-3.6071,-3.5831,-3.5521,-3.5154,-3.488,-3.466,-3.4452,-3.4397,-3.4397,-3.4397,0.0,0.0,0.0,0.0,0.0,0.0,0.0,0.0,0.0,0.0,0.0,0.0,0.0,0.0,0.0,0.0,0.0,0.0,0.0,0.0,0.0,-4.9286,-4.9012,-4.875,-4.855,-4.8382,-4.8306,-4.8306,-4.8306,-4.8267,-4.8187,-4.7888,-4.7515,-4.7138,-4.6893,-4.6661,-4.6453,-4.6259,0.0,0.0,0.0,0.0,0.0,0.0,0.0,0.0,0.0,0.0,0.0,0.0,-4.3469,-4.3292,-4.2381,0.0,0.0,0.0,0.0,0.0,-3.9388,-3.9388,-3.9388,-3.9388,-3.9388,-3.9388,-3.9388,-3.9301,-3.9228,-3.9104,-3.8833,-3.8538,-3.824,-3.8183,-3.8153,-3.8048,0.0,-3.8505,-3.8489,-3.8262,-3.8073,0.0,0.0,0.0,0.0,0.0,0.0,0.0,0.0,0.0,-3.6515,-3.6253,-3.5966,-3.5678,-3.543,-3.5142,-3.4816,-3.5191,-3.5276,-3.5165,-3.5402,-3.538,-3.5236,-3.544,-3.5521,-3.5521,0.0,-3.5616,-3.5521,-3.5318,-3.5086,-3.4921,-3.466,-3.4494,-3.4397,-3.4397,-3.4397,-3.4397,0.0,0.0,0.0,0.0,0.0,0.0,0.0,0.0,0.0,0.0,0.0,0.0,0.0,0.0,0.0,0.0,0.0,0.0,0.0,0.0,-4.8606,-4.8955,-4.8646,-4.8383,-4.8218,-4.8087,-4.8012,-4.8012,-4.8012,-4.8044,-4.8068,-4.7639,-4.7227,-4.6842,-4.6613,-4.6374,-4.6087,-4.6005,-4.5803,0.0,0.0,0.0,0.0,0.0,0.0,0.0,0.0,0.0,0.0,0.0,0.0,0.0,0.0,0.0,0.0,-4.0172,-3.9711,-3.9388,-3.9388,-3.9388,-3.9388,-3.9388,-3.9388,-3.9388,-3.9337,-3.9177,-3.898,-3.8833,-3.8427,-3.7938,-3.7606,-3.7197,0.0,-3.685,-3.7099,-3.7288,-3.7241,-3.7044,-3.6885,0.0,0.0,0.0,0.0,0.0,0.0,0.0,0.0,0.0,-3.5913,-3.5783,-3.5508,-3.5103,-3.509,-3.4868,-3.4397,-3.4397,-3.4481,-3.4714,-3.4714,-3.4797,-3.4949,-3.499,-3.5044,-3.5044,-3.5086,-3.5086,-3.5003,-3.4839,-3.4756,-3.4673,-3.4481,-3.4397,-3.4397,-3.4397,-3.4397,-3.4397,0.0,0.0,0.0,0.0,0.0,0.0,0.0,0.0,0.0,0.0,0.0,0.0,0.0,0.0,0.0,0.0,0.0,0.0,0.0,0.0,-4.8209,-4.8002,-4.7689,-4.7462,-4.739,-4.7242,-4.7186,-4.7186,-4.7186,-4.7379,-4.772,-4.7377,-4.6934,-4.6447,-4.6284,-4.608,-4.5821,-4.5821,-4.5718,-4.5607,0.0,0.0,0.0,0.0,0.0,0.0,0.0,0.0,0.0,0.0,0.0,0.0,0.0,0.0,-4.0696,-4.0172,-3.9711,-3.9388,-3.9388,-3.9388,-3.9388,-3.9388,-3.9388,-3.9337,-3.9141,-3.898,-3.8671,-3.8113,-3.7787,-3.7404,-3.6584,-3.6097,-3.5764,-3.5575,-3.5575,-3.5722,-3.6051,0.0,0.0,0.0,0.0,0.0,0.0,0.0,0.0,0.0,0.0,0.0,-3.5351,-3.4829,-3.4502,-3.4463,-3.4463,-3.4437,-3.4397,-3.4397,-3.4397,-3.4439,-3.4439,-3.4439,-3.4439,-3.4714,-3.4797,-3.4839,-3.5003,-3.5003,-3.4797,-3.4797,-3.466,-3.4439,-3.4397,-3.4397,-3.4397,-3.4397,-3.4397,-3.4397,0.0,0.0,0.0,0.0,0.0,0.0,0.0,0.0,0.0,0.0,0.0,0.0,0.0,0.0,0.0,0.0,0.0,0.0,0.0,-4.6643,-4.6934,-4.7202,-4.6884,-4.6407,-4.5751,-4.6158,-4.6599,-4.7094,-4.7475,-4.766,-4.7678,-4.7267,-4.6842,-4.6398,-4.608,-4.5846,-4.5667,-4.5581,-4.5528,-4.5476,-4.5476,0.0,0.0,0.0,0.0,0.0,0.0,0.0,0.0,0.0,-4.1282,-4.1269,-4.0596,-3.9912,-3.9354,-3.939,-3.9078,-3.8871,-3.9305,-3.9388,-3.9373,-3.9228,-3.9104,-3.9017,-3.8943,-3.856,-3.8113,-3.7634,-3.712,-3.6559,-3.5857,0.0,-3.4853,-3.4771,-3.4522,-3.4379,-3.4559,0.0,0.0,0.0,0.0,0.0,0.0,0.0,0.0,0.0,0.0,0.0,-3.4737,-3.4515,-3.4397,-3.4397,-3.4397,-3.4397,-3.4397,-3.4397,-3.4397,-3.4397,-3.4397,-3.4397,-3.4397,-3.4494,-3.4535,-3.4577,-3.4618,-3.4618,-3.4535,-3.4535,-3.4481,-3.4397,-3.4397,-3.4397,-3.4397,-3.4397,-3.4397,-3.4397,0.0,0.0,0.0,0.0,0.0,0.0,0.0,0.0,0.0,0.0,0.0,0.0,0.0,0.0,0.0,0.0,0.0,0.0,-4.5917,-4.5918,-4.606,-4.6405,-4.6097,-4.5589,-4.4884,-4.5295,-4.592,-4.6709,-4.758,-4.785,-4.7572,-4.7183,-4.6731,-4.6259,-4.5947,-4.5693,-4.5528,-4.545,-4.5397,-4.5397,-4.5397,-4.5238,0.0,0.0,0.0,0.0,0.0,0.0,0.0,0.0,-4.0547,-4.0516,-3.9916,-3.9219,-3.8697,-3.8967,-3.8806,-3.8627,-3.923,-3.9337,-3.9265,-3.9141,-3.887,-3.856,-3.8375,-3.7962,-3.7467,-3.69,-3.6163,-3.5467,-3.5059,-3.4564,0.0,0.0,-3.3924,-3.3713,0.0,0.0,0.0,0.0,0.0,0.0,0.0,0.0,0.0,0.0,0.0,0.0,0.0,-3.4397,-3.4397,-3.4397,-3.4397,-3.4397,-3.4397,-3.4397,-3.4397,-3.4397,-3.4397,-3.4397,-3.4397,-3.4397,-3.4397,-3.4397,-3.4397,-3.4397,-3.4397,-3.4397,-3.4397,-3.4397,-3.4397,-3.4397,-3.4397,-3.4397,-3.4397,-3.4397,0.0,0.0,0.0,0.0,0.0,0.0,0.0,0.0,0.0,0.0,0.0,0.0,0.0,0.0,0.0,0.0,0.0,0.0,-4.5003,-4.5571,-4.581,-4.5596,-4.526,-4.5051,-4.5004,-4.4815,-4.5112,-4.5902,-4.7306,-4.7767,-4.7298,-4.7093,-4.6637,-4.5988,-4.5871,-4.5641,-4.5397,-4.5397,-4.5397,-4.5397,-4.5397,-4.5238,0.0,0.0,0.0,0.0,0.0,0.0,0.0,0.0,-3.9837,-3.9905,-3.9292,-3.9041,-3.9007,-3.914,-3.8979,-3.8817,-3.9266,-3.9265,-3.9104,-3.9104,-3.8649,-3.8052,-3.7419,-3.7134,-3.6744,-3.5871,-3.4853,-3.4118,-3.4118,-3.3894,0.0,-3.3713,-3.3713,0.0,0.0,0.0,0.0,0.0,0.0,0.0,0.0,0.0,0.0,0.0,0.0,0.0,0.0,-3.4397,-3.4397,-3.4397,-3.4397,-3.4397,-3.4397,-3.4397,-3.4397,-3.4397,-3.4397,-3.4397,-3.4397,-3.4397,-3.4397,-3.4397,-3.4397,-3.4397,-3.4397,-3.4397,-3.4397,-3.4397,-3.4397,-3.4397,-3.4397,-3.4397,-3.4397,-3.4397,0.0,0.0,0.0,0.0,0.0,0.0,0.0,0.0,0.0,0.0,0.0,0.0,0.0,0.0,0.0,0.0,0.0,0.0,-4.508,-4.5117,-4.5044,-4.4843,-4.4516,-4.4543,-4.4986,-4.5919,-4.6489,-4.667,-4.7481,-4.7666,-4.728,-4.6893,-4.6471,-4.5988,-4.577,-4.5563,-4.5397,-4.5397,-4.5397,-4.5397,-4.5397,-4.5238,0.0,0.0,0.0,0.0,0.0,0.0,0.0,0.0,0.0,0.0,-3.8622,-3.8402,-3.845,-3.8468,-3.858,-3.8817,-3.9266,-3.9265,-3.9031,-3.8738,-3.8217,-3.7558,-3.6794,-3.6441,-3.5964,-3.4812,-3.4189,-3.381,-3.381,-3.3641,0.0,-3.3471,0.0,0.0,0.0,0.0,0.0,0.0,0.0,0.0,0.0,0.0,0.0,0.0,0.0,0.0,0.0,-3.4397,-3.4397,-3.4397,-3.4397,-3.4397,-3.4397,-3.4397,-3.4397,-3.4397,-3.4397,-3.4397,-3.4397,-3.4397,-3.4397,-3.4397,-3.4397,-3.4397,-3.4397,-3.4397,-3.4397,-3.4397,-3.4397,-3.4397,-3.4397,-3.4397,-3.4397,-3.4397,0.0,0.0,0.0,0.0,0.0,0.0,0.0,0.0,0.0,0.0,-4.5014,-4.5125,0.0,0.0,0.0,0.0,0.0,0.0,0.0,-4.4604,-4.4372,-4.4496,-4.449,-4.4897,-4.5806,-4.6654,-4.7203,-4.7415,-4.7656,-4.7603,-4.7165,-4.6778,-4.6374,-4.5905,-4.5693,-4.5356,-4.4958,-4.4958,-4.4803,-4.4527,-4.4527,-4.438,-4.4101,0.0,0.0,0.0,0.0,0.0,0.0,0.0,0.0,0.0,-3.8595,-3.8424,-3.8464,-3.8487,-3.8669,-3.8996,-3.9409,-3.925,-3.8907,-3.859,-3.7991,-3.7173,-3.595,-3.5467,-3.4991,-3.4021,-3.3654,-3.3484,-3.3484,-3.3356,0.0,0.0,0.0,0.0,0.0,0.0,0.0,0.0,0.0,0.0,0.0,0.0,0.0,0.0,0.0,0.0,0.0,-3.4397,-3.4397,-3.4397,-3.4397,-3.4397,-3.4397,-3.4397,-3.4397,-3.4397,-3.4397,-3.4397,-3.4397,-3.4397,-3.4397,-3.4397,-3.4397,-3.4397,-3.4397,-3.4397,-3.4397,-3.4397,-3.4397,-3.4397,-3.4397,-3.4397,-3.4397,-3.4397,0.0,0.0,0.0,0.0,0.0,0.0,0.0,0.0,0.0,0.0,-4.4846,-4.4967,0.0,0.0,0.0,0.0,0.0,0.0,0.0,0.0,-4.3863,-4.4477,-4.5016,-4.5867,-4.7058,-4.7168,-4.7457,-4.7992,-4.7872,-4.7518,-4.698,-4.6684,-4.6301,-4.5795,-4.5572,-4.5027,-4.4311,-4.4225,-4.381,-4.3189,-4.3189,-4.3072,-4.2868,-4.2689,0.0,0.0,0.0,0.0,0.0,0.0,0.0,0.0,-3.8969,-3.8886,-3.895,-3.8952,-3.9087,-3.9291,-3.9642,-3.9271,-3.876,-3.8516,-3.7787,-3.673,-3.5087,-3.4356,-3.3949,-3.3484,0.0,-3.3124,-3.3124,-3.3124,-3.3124,0.0,0.0,0.0,0.0,0.0,0.0,0.0,0.0,0.0,0.0,0.0,0.0,0.0,0.0,0.0,0.0,-3.4397,-3.4397,-3.4397,-3.4397,-3.4397,-3.4397,-3.4397,-3.4397,-3.4397,-3.4397,-3.4397,-3.4397,-3.4397,-3.4397,-3.4397,-3.4397,-3.4397,-3.4397,-3.4397,-3.4397,-3.4397,-3.4397,-3.4397,-3.4397,-3.4397,-3.4397,-3.4397,0.0,0.0,0.0,0.0,0.0,0.0,0.0,0.0,0.0,0.0,0.0,0.0,0.0,0.0,0.0,0.0,0.0,0.0,0.0,0.0,-4.3863,-4.4477,-4.5449,-4.6338,-4.7076,-4.7718,-4.8044,-4.7992,-4.7806,-4.7468,-4.6998,-4.6518,-4.6105,-4.576,-4.494,-4.4492,-4.4259,-4.3672,-4.3345,-4.3189,-4.3189,-4.3072,-4.2817,-4.2116,-4.1639,0.0,0.0,0.0,0.0,0.0,0.0,0.0,-3.9104,-3.91,-3.928,-3.9281,-3.9318,-3.9447,-3.9833,-3.9394,-3.8708,-3.8352,-3.7159,-3.5831,-3.4922,-3.4217,-3.3683,-3.324,-3.3111,-3.3124,-3.3124,-3.3124,0.0,0.0,0.0,0.0,0.0,0.0,0.0,0.0,0.0,0.0,0.0,0.0,0.0,0.0,0.0,0.0,-3.4397,-3.4397,-3.4397,-3.4397,-3.4397,-3.4397,-3.4397,-3.4397,-3.4397,0.0,-3.4397,-3.4397,-3.4397,-3.4397,-3.4397,-3.4397,-3.4397,-3.4397,-3.4397,-3.4397,-3.4397,-3.4397,-3.4397,-3.4397,-3.4397,-3.4397,-3.4397,-3.4397,0.0,0.0,0.0,0.0,0.0,0.0,0.0,0.0,0.0,0.0,0.0,0.0,0.0,0.0,0.0,0.0,0.0,0.0,0.0,-4.3183,-4.3455,-4.4726,-4.5658,-4.6433,-4.7076,-4.7902,-4.8209,-4.7992,-4.7744,-4.7359,-4.6888,-4.6374,-4.5955,-4.5693,-4.5088,-4.4423,-4.3741,-4.3362,-4.2775,-4.2102,-4.2102,-4.2036,-4.1886,-4.1368,-4.1091,-4.0898,-4.0374,0.0,0.0,0.0,0.0,0.0,0.0,0.0,-3.9682,-3.9344,-3.9518,-3.9789,-3.9719,-3.9354,-3.876,-3.7976,-3.6886,-3.5763,-3.5059,-3.4439,-3.3894,-3.3356,-3.3154,-3.3124,-3.3124,-3.3124,0.0,0.0,0.0,0.0,0.0,0.0,0.0,0.0,0.0,0.0,0.0,0.0,0.0,0.0,0.0,-3.4314,-3.4397,-3.4397,-3.4397,-3.4397,-3.4397,-3.4397,-3.4397,-3.4397,-3.4397,-3.4397,-3.4397,-3.4397,-3.4397,-3.4397,-3.4397,-3.4397,-3.4397,-3.4397,-3.4397,-3.4397,-3.4397,-3.4397,-3.4397,-3.4397,-3.4397,-3.4397,-3.4397,-3.4397,0.0,0.0,0.0,0.0,0.0,0.0,0.0,0.0,0.0,0.0,0.0,0.0,0.0,0.0,0.0,0.0,0.0,0.0,0.0,-4.2592,-4.3105,-4.5025,-4.5598,-4.6176,-4.6874,-4.7553,-4.7769,-4.7571,-4.7349,-4.7012,-4.6512,-4.614,-4.5829,-4.5589,-4.5312,-4.4432,-4.3189,-4.3051,-4.2189,-4.0912,-4.0912,-4.0912,-4.0888,-4.0745,-4.0624,-4.0485,-4.0337,-4.0213,-4.0096,-4.0096,0.0,0.0,0.0,0.0,-3.9879,-3.9392,-3.9559,-3.9845,-3.9446,-3.9148,-3.8664,-3.7644,-3.6925,-3.6203,-3.5426,-3.4787,-3.4155,-3.367,-3.3368,-3.3154,-3.3124,0.0,0.0,0.0,0.0,0.0,0.0,0.0,0.0,0.0,0.0,0.0,0.0,0.0,0.0,0.0,0.0,-3.4202,-3.4397,-3.4397,-3.4397,-3.4397,-3.4397,-3.4397,-3.4397,-3.4397,-3.4397,-3.4397,-3.4397,-3.4397,-3.4397,-3.4397,-3.4397,-3.4397,-3.4397,-3.4397,-3.4397,-3.4397,-3.4397,-3.4397,-3.4397,-3.4397,-3.4397,-3.4397,-3.4397,-3.4397,0.0,0.0,0.0,0.0,0.0,0.0,0.0,0.0,0.0,0.0,-4.2749,-4.2473,-4.1787,-4.1786,0.0,0.0,0.0,0.0,-4.1255,0.0,0.0,-4.5043,-4.5009,-4.5312,-4.603,-4.6177,-4.6102,-4.5814,-4.6143,-4.5976,-4.5417,-4.5698,-4.5752,-4.5572,-4.4682,-4.3855,-4.3155,-4.2465,-4.1671,-4.0912,-4.0912,-4.0912,-4.0888,-4.0745,-4.0624,-4.0485,-4.0337,-4.0213,-4.0096,-4.0096,-4.0011,0.0,0.0,0.0,-3.9483,-3.9846,-3.9408,-3.887,-3.9156,-3.8723,-3.8176,-3.7907,-3.7352,-3.6744,-3.6031,-3.4902,-3.4028,0.0,-3.3768,-3.3313,-3.3111,0.0,0.0,0.0,0.0,0.0,0.0,0.0,0.0,0.0,0.0,0.0,0.0,0.0,0.0,0.0,-3.3992,-3.4202,-3.4397,-3.4397,-3.4397,-3.4397,-3.4397,-3.4397,-3.4397,-3.4397,-3.4397,-3.4397,-3.4397,-3.4397,-3.4397,-3.4397,-3.4397,-3.4397,-3.4397,-3.4397,-3.4397,-3.4397,-3.4397,-3.4397,-3.4397,-3.4397,-3.4397,-3.4397,-3.4397,-3.4397,0.0,0.0,0.0,0.0,0.0,0.0,0.0,0.0,0.0,0.0,0.0,-4.1037,-4.0686,-4.0403,0.0,0.0,0.0,0.0,-4.0592,-4.2,0.0,0.0,-4.4335,-4.4891,-4.5223,-4.5627,-4.5735,-4.5485,-4.541,-4.5298,-4.5211,-4.501,-4.5079,-4.5363,-4.4824,-4.3965,-4.2903,-4.2542,-4.1719,-4.068,-4.068,-4.068,-4.068,-4.0607,-4.051,-4.0387,-4.033,-4.0213,-4.0096,-4.0096,-4.0062,-3.9986,-3.991,0.0,0.0,0.0,-3.9418,-3.9099,-3.8841,-3.8653,-3.8431,-3.7945,-3.774,-3.7481,-3.6744,-3.5552,-3.4512,-3.4175,-3.3749,-3.3409,0.0,0.0,0.0,0.0,0.0,0.0,0.0,0.0,0.0,0.0,0.0,0.0,0.0,0.0,0.0,0.0,-3.3768,-3.3979,-3.4243,-3.4356,-3.4397,-3.4397,-3.4397,-3.4397,-3.4397,-3.4397,-3.4397,-3.4397,-3.4397,-3.4397,-3.4397,-3.4397,-3.4397,-3.4397,-3.4397,-3.4397,-3.4397,-3.4397,-3.4397,-3.4397,-3.4397,-3.4397,-3.4397,-3.4397,-3.4397,-3.4397,0.0,0.0,0.0,0.0,0.0,0.0,0.0,0.0,0.0,0.0,0.0,0.0,-3.9685,0.0,0.0,0.0,0.0,0.0,-4.0295,0.0,0.0,0.0,0.0,-4.4397,-4.4397,-4.4912,-4.5057,-4.4828,-4.4613,-4.4609,-4.4865,-4.4426,-4.4543,-4.5123,-4.5005,-4.4114,-4.268,-4.268,-4.1852,-4.051,-4.051,-4.051,-4.051,-4.051,-4.0412,-4.0305,-4.0305,-4.0213,-4.0096,-4.0096,-4.0096,-4.007,-3.9986,-3.9926,0.0,0.0,0.0,-3.9224,-3.8575,-3.8504,-3.8542,-3.8147,-3.8141,-3.8059,-3.7438,0.0,-3.5258,0.0,-3.4112,-3.3746,0.0,0.0,0.0,0.0,0.0,0.0,0.0,0.0,0.0,0.0,0.0,0.0,0.0,0.0,0.0,0.0,-3.3598,-3.381,-3.4076,-3.4272,-3.4397,-3.4397,-3.4397,-3.4397,-3.4397,-3.4397,-3.4397,-3.4397,-3.4397,-3.4397,-3.4397,-3.4397,-3.4397,-3.4397,-3.4397,-3.4397,-3.4397,-3.4397,-3.4397,-3.4397,-3.4397,-3.4397,-3.4397,-3.4397,-3.4397,-3.4397,0.0,0.0,0.0,0.0,0.0,0.0,0.0,0.0,0.0,0.0,0.0,0.0,-3.8854,-3.8799,-3.8822,-3.8822,0.0,0.0,0.0,0.0,0.0,0.0,0.0,0.0,-4.3552,-4.3539,-4.336,-4.3046,-4.3472,-4.376,-4.3962,-4.4133,-4.4508,-4.5005,-4.4886,-4.4007,-4.268,-4.268,-4.1852,-4.051,-4.051,-4.051,-4.051,-4.051,-4.0412,-4.0305,-4.0305,-4.0213,-4.0096,-4.0096,-4.0096,-4.0096,-4.007,-3.9986,-3.9901,0.0,0.0,0.0,-3.8469,-3.8184,-3.8102,-3.8698,-3.8582,-3.8282,-3.8169,0.0,-3.6292,-3.6207,-3.5246,0.0,0.0,0.0,0.0,0.0,0.0,0.0,0.0,0.0,0.0,0.0,0.0,0.0,0.0,0.0,0.0,0.0,-3.3598,-3.381,-3.4076,-3.4272,-3.4397,-3.4397,-3.4397,-3.4397,-3.4397,-3.4397,-3.4397,-3.4397,-3.4397,-3.4397,-3.4397,-3.4397,-3.4397,-3.4397,-3.4397,-3.4397,-3.4397,-3.4397,-3.4397,-3.4397,-3.4397,-3.4397,-3.4397,-3.4397,-3.4397,-3.4397,0.0,0.0,0.0,0.0,0.0,0.0,0.0,0.0,0.0,0.0,0.0,0.0,0.0,-3.8719,-3.875,-3.8792,-3.8877,0.0,0.0,0.0,0.0,0.0,0.0,0.0,-4.3496,-4.3358,-4.316,-4.2901,-4.2819,-4.2857,-4.301,-4.2836,-4.3014,-4.3394,-4.3742,-4.3359,-4.2411,-4.1953,-4.1155,-4.0246,-4.0246,-4.0246,-4.0246,-4.0246,-4.0196,-4.0163,-4.0163,-4.0138,-4.0096,-4.0096,-4.0096,-4.0096,-4.0096,-3.9741,-3.9294,-3.9118,-3.897,-3.8771,-3.8434,-3.8426,-3.8509,-3.8319,-3.8632,-3.8875,-3.8391,-3.7682,-3.7016,-3.6495,-3.5794,0.0,0.0,0.0,0.0,0.0,0.0,0.0,0.0,0.0,0.0,0.0,0.0,0.0,0.0,0.0,0.0,0.0,0.0,-3.3598,-3.3852,-3.4063,-3.4285,-3.4397,-3.4397,-3.4397,-3.4397,-3.4397,-3.4397,-3.4397,-3.4397,-3.4397,-3.4397,-3.4397,-3.4397,-3.4397,-3.4397,-3.4397,-3.4397,-3.4397,-3.4397,-3.4397,-3.4397,-3.4397,-3.4397,-3.4397,-3.4397,-3.4397,0.0,0.0,0.0,0.0,0.0,0.0,0.0,0.0,0.0,-4.1515,0.0,0.0,0.0,0.0,-3.8998,-3.8783,-3.8807,-3.8807,-3.878,-3.9519,0.0,0.0,0.0,0.0,-4.3478,-4.3286,-4.3105,-4.2901,-4.2452,-4.2306,-4.2486,-4.2113,-4.2132,-4.2481,-4.261,-4.2405,-4.1897,-4.1407,-4.0764,-4.0096,-4.0096,-4.0096,-4.0096,-4.0096,-4.0096,-4.0096,-4.0096,-4.0096,-4.0096,-4.0096,-4.0096,-4.0096,-4.0096,-3.9605,-3.8905,-3.843,-3.8519,-3.8671,-3.8275,-3.8476,-3.8726,-3.832,-3.8669,-3.8992,-3.8709,-3.8292,-3.7781,-3.7306,-3.684,0.0,0.0,0.0,0.0,0.0,0.0,0.0,0.0,0.0,0.0,0.0,0.0,0.0,0.0,0.0,0.0,0.0,0.0,0.0,-3.367,-3.3937,-3.4202,-3.4397,-3.4397,-3.4397,-3.4397,-3.4397,-3.4397,-3.4397,-3.4397,-3.4397,-3.4397,-3.4397,-3.4397,-3.4397,-3.4397,-3.4397,-3.4397,-3.4397,-3.4397,-3.4397,-3.4397,-3.4397,-3.4397,-3.4397,-3.4397,-3.4397,0.0,0.0,0.0,0.0,0.0,0.0,0.0,0.0,-4.2304,-4.2304,0.0,0.0,0.0,0.0,0.0,-3.8836,-3.8762,-3.8744,-3.8744,-3.9441,0.0,0.0,0.0,0.0,-4.3478,-4.3286,-4.3105,-4.2882,-4.2353,-4.222,-4.2451,-4.1988,-4.1988,-4.2379,-4.1527,-4.117,-4.117,-4.117,-4.0747,-4.0096,-4.0113,-4.0096,-4.0096,-4.007,-4.007,-4.0096,-4.0096,-4.0113,-4.0096,-4.0096,-4.0096,-4.0096,-4.0079,-3.9605,-3.8862,-3.7997,-3.8045,-3.8301,0.0,0.0,0.0,-3.8852,0.0,0.0,-3.9226,0.0,-3.8617,-3.8736,-3.8294,0.0,0.0,0.0,0.0,0.0,0.0,0.0,0.0,0.0,0.0,0.0,0.0,0.0,0.0,0.0,0.0,0.0,-3.3283,-3.3471,-3.367,-3.3937,-3.4202,-3.4397,-3.4397,-3.4397,-3.4397,-3.4397,-3.4397,-3.4397,-3.4397,-3.4397,-3.4397,-3.4397,-3.4397,-3.4397,-3.4397,-3.4397,-3.4397,-3.4397,-3.4397,-3.4397,-3.4397,-3.4397,-3.4397,-3.4397,-3.4397,-3.4397,0.0,0.0,0.0,0.0,0.0,-4.3515,-4.3515,-4.2818,-4.2304,0.0,0.0,0.0,-4.0799,-4.0781,-4.0689,-4.0453,-3.99,-3.957,-3.957,-3.9239,-3.9662,-4.104,-4.1297,-4.2084,-4.3478,-4.3286,-4.305,-4.275,-4.2313,-4.185,-4.1406,-4.1133,-4.0937,-4.0756,-4.0502,-4.0417,-4.0417,-4.0417,-4.0299,-4.007,-3.9986,-3.9977,-3.9935,-3.9858,-3.9858,-3.9977,-3.9977,-4.0011,-4.0096,-4.0096,-4.0096,-4.0011,-3.9462,-3.9537,-3.9631,-3.8879,-3.9034,-3.9385,-3.9116,0.0,0.0,0.0,0.0,0.0,0.0,0.0,0.0,-3.8022,0.0,0.0,0.0,0.0,0.0,0.0,0.0,0.0,0.0,0.0,0.0,0.0,0.0,0.0,0.0,0.0,0.0,0.0,-3.3154,-3.3283,-3.3471,-3.3865,-3.4202,-3.4397,-3.4397,-3.4397,-3.4397,-3.4397,-3.4397,-3.4397,-3.4397,-3.4397,-3.4397,-3.4397,-3.4397,-3.4397,-3.4397,-3.4397,-3.4397,-3.4397,-3.4397,-3.4397,-3.4397,-3.4397,-3.4397,-3.4397,-3.4397,-3.4397,0.0,0.0,0.0,-4.3515,-4.3515,-4.3515,-4.3515,-4.3094,-4.28,0.0,0.0,0.0,-4.1644,-4.1297,-4.1095,-4.1095,-4.0671,-4.0267,-3.9918,-3.946,-3.9625,-4.0561,-4.0912,-4.1666,-4.2932,-4.3086,-4.2975,-4.2652,-4.2172,-4.1618,-4.1001,-4.0752,-4.0436,-4.0096,-3.9791,-3.9656,-3.9631,-3.9581,-3.9741,-4.0011,-3.9858,-3.9798,-3.972,-3.9642,-3.9668,-3.9746,-3.9849,0.0,-4.0037,-4.0087,-4.0096,0.0,0.0,0.0,-3.9503,-3.8751,-3.8974,-3.9396,-3.9242,-3.933,0.0,0.0,0.0,0.0,-3.8743,-3.8575,0.0,0.0,0.0,0.0,0.0,0.0,0.0,0.0,0.0,0.0,0.0,0.0,0.0,0.0,0.0,0.0,0.0,-3.3124,-3.3124,-3.3124,-3.3124,-3.324,-3.3513,-3.3907,-3.4202,-3.4397,-3.4397,-3.4397,-3.4397,-3.4397,-3.4397,-3.4397,-3.4397,-3.4397,-3.4397,-3.4397,-3.4397,-3.4397,-3.4397,-3.4397,-3.4397,-3.4397,-3.4397,-3.4397,-3.4397,-3.4397,-3.4397,-3.4397,-3.4397,-3.4397,0.0,0.0,-4.3497,-4.3497,-4.3497,-4.3497,-4.3497,-4.3497,-4.3515,0.0,-4.3515,-4.3222,-4.2506,-4.1791,-4.137,-4.137,-4.1279,-4.0946,-4.0212,-3.9992,-3.9937,-4.0029,-4.0726,-4.1447,-4.2187,-4.2796,-4.2918,-4.257,-4.1966,-4.1423,-4.0954,-4.0638,-4.032,-4.0079,-3.9326,-3.8988,-3.8988,-3.8772,-3.9085,-3.9715,-3.967,-3.9573,-3.9475,-3.9448,-3.9448,-3.9528,-3.9746,-3.9875,-3.9926,-4.0062,-4.0096,0.0,0.0,0.0,0.0,-3.8345,-3.8518,0.0,-3.8942,-3.9294,0.0,0.0,0.0,0.0,-3.905,-3.8635,-3.8277,0.0,0.0,0.0,0.0,0.0,0.0,0.0,0.0,0.0,0.0,0.0,0.0,0.0,0.0,0.0,-3.3124,-3.3124,-3.3124,-3.3124,-3.3124,-3.3283,-3.367,-3.3937,-3.416,-3.4397,-3.4397,-3.4397,-3.4397,-3.4397,-3.4397,-3.4397,-3.4397,-3.4397,-3.4397,-3.4397,-3.4397,-3.4397,-3.4397,-3.4397,-3.4397,-3.4397,-3.4397,-3.4397,-3.4397,-3.4397,-3.4397,-3.4397,-3.4397,-3.4397,0.0,-4.3464,-4.3411,-4.3411,-4.3411,-4.3411,-4.3411,-4.3481,-4.3515,-4.3515,-4.3515,-4.3441,-4.3277,-4.313,-4.302,-4.302,-4.2433,-4.1992,-4.1846,-4.0616,-4.0194,-4.0838,-4.1022,-4.1447,-4.2187,-4.2796,-4.2823,-4.2277,-4.1831,-4.1318,-4.0752,-4.0461,-4.0238,-4.0079,-3.9326,-3.8988,-3.8954,-3.8216,-3.8195,-3.8653,-3.9182,-3.9352,-3.9299,-3.904,-3.9094,-3.9352,-3.9405,-3.9616,-3.9926,-4.0062,-4.0096,-4.0079,0.0,0.0,0.0,-3.9723,-3.9749,-3.9817,-3.9707,-3.9757,0.0,0.0,0.0,0.0,-3.904,-3.8537,-3.8051,0.0,0.0,0.0,0.0,0.0,0.0,0.0,0.0,0.0,0.0,0.0,0.0,0.0,0.0,0.0,-3.3124,-3.3124,-3.3124,-3.3124,-3.3124,-3.3283,-3.367,-3.3755,-3.3979,-3.4397,-3.4397,-3.4397,-3.4397,-3.4397,-3.4397,-3.4397,-3.4397,-3.4397,-3.4397,-3.4397,-3.4397,-3.4397,-3.4397,-3.4397,-3.4397,-3.4397,-3.4397,-3.4397,-3.4397,-3.4397,-3.4397,-3.4397,-3.4397,-3.4397,-4.3357,-4.3322,-4.3305,-4.3305,-4.3305,-4.3305,-4.3305,-4.3322,-4.3339,-4.3339,-4.3339,-4.3339,-4.3339,-4.341,-4.3464,-4.3464,-4.3113,-4.2727,-4.2323,-4.1534,-4.1093,-4.1095,-4.1447,-4.1801,-4.2082,-4.2576,-4.2611,-4.2151,-4.1657,-4.1157,-4.0697,-4.0429,-4.0213,-4.0079,-3.9326,-3.8988,-3.8971,-3.8403,-3.8213,-3.8326,-3.8517,-3.8683,-3.8838,-3.8655,-3.8711,-3.8892,-3.9067,-3.9468,-3.9901,-3.9986,-4.0037,0.0,-4.0096,-4.0096,-4.0096,0.0,-4.0096,-4.0087,-4.0011,0.0,0.0,-3.9833,0.0,0.0,0.0,-3.8805,-3.8355,-3.8014,-3.7923,-3.7882,0.0,0.0,0.0,0.0,0.0,0.0,0.0,0.0,0.0,0.0,0.0,0.0,-3.3283,-3.324,-3.3197,-3.3124,-3.3124,-3.3283,-3.367,-3.3713,-3.3937,-3.4397,-3.4397,-3.4397,-3.4397,-3.4397,-3.4397,-3.4397,-3.4397,-3.4397,-3.4397,-3.4397,-3.4397,-3.4397,-3.4397,-3.4397,-3.4397,-3.4397,-3.4397,-3.4397,-3.4397,-3.4397,-3.4397,-3.4397,-3.4397,-3.4397,-4.3214,-4.3196,-4.3178,-4.3178,-4.3178,-4.3178,-4.3178,-4.3196,-4.3269,-4.3415,-4.3415,-4.3506,-4.3652,-4.3761,-4.3816,-4.3816,-4.374,-4.3409,-4.2749,-4.2419,-4.1961,-4.1302,-4.1839,-4.21,-4.1958,-4.237,-4.2412,-4.2023,-4.144,-4.0995,-4.0648,-4.0404,-4.0213,-4.0079,-3.9326,-3.9005,-3.8939,-3.8531,-3.8287,-3.819,-3.7893,-3.803,-3.8391,-3.8363,-3.8335,-3.8403,-3.8832,-3.9345,-3.9824,-3.9875,-3.9986,-4.0096,-4.0096,-4.0096,0.0,0.0,0.0,0.0,0.0,0.0,0.0,0.0,0.0,-3.9677,0.0,0.0,0.0,-3.8567,0.0,0.0,0.0,0.0,0.0,0.0,0.0,0.0,0.0,0.0,0.0,0.0,0.0,0.0,0.0,-3.3441,-3.3313,-3.3154,-3.3124,-3.3283,-3.367,-3.3713,-3.3937,-3.4397,-3.4397,-3.4397,-3.4397,-3.4397,-3.4397,-3.4397,-3.4397,-3.4397,-3.4397,-3.4397,-3.4397,-3.4397,-3.4397,-3.4397,-3.4397,-3.4397,-3.4397,-3.4397,-3.4397,-3.4397,-3.4397,-3.4397,-3.4397,-3.4397,-4.3196,-4.316,-4.3123,-4.3123,-4.3123,-4.3123,-4.3123,-4.316,-4.3452,-4.4162,-4.4253,-4.4545,-4.5256,-4.5347,-4.5347,-4.5347,-4.4691,-4.4254,-4.4181,-4.2831,-4.1991,-4.1883,-4.1975,-4.1922,-4.1742,-4.2293,-4.2313,-4.1753,-4.126,-4.0836,-4.051,-4.0263,-4.0096,-4.0079,-3.9326,-3.8931,-3.8748,-3.7845,-3.7633,-3.792,-3.7525,-3.7772,0.0,-3.8266,-3.8177,-3.8201,-3.8788,-3.9228,-3.958,0.0,-3.9986,-4.0096,0.0,-4.0096,-4.0096,-4.0096,0.0,0.0,0.0,0.0,0.0,0.0,-3.9986,0.0,0.0,0.0,-3.9379,-3.9218,0.0,0.0,0.0,0.0,0.0,0.0,0.0,0.0,0.0,0.0,0.0,0.0,0.0,0.0,0.0,-3.3654,-3.3398,-3.3356,-3.3197,-3.3283,-3.367,-3.3713,-3.3937,-3.4397,-3.4397,-3.4397,-3.4397,-3.4397,-3.4397,-3.4397,-3.4397,-3.4397,-3.4397,-3.4397,-3.4397,-3.4397,-3.4397,-3.4397,-3.4397,-3.4397,-3.4397,-3.4397,-3.4397,-3.4397,-3.4397,-3.4397,-3.4397,-3.4397,-4.3013,-4.2994,-4.2975,-4.2918,-4.2936,-4.2899,-4.2822,-4.324,-4.3675,-4.4019,-4.4471,-4.4887,-4.5231,-4.5289,-4.5309,-4.5309,-4.506,-4.4918,-4.4918,-4.3866,-4.3231,-4.3212,-4.2665,-4.2317,-4.2222,-4.217,-4.1934,-4.1529,-4.1065,-4.068,-4.0387,-4.0188,-4.0096,-4.0096,-3.9691,-3.943,-3.9285,-3.8581,-3.8298,-3.8275,-3.7906,-3.7846,0.0,-3.7934,-3.8004,-3.8173,-3.8595,-3.9094,-3.9528,0.0,-3.9935,0.0,0.0,0.0,0.0,0.0,0.0,0.0,0.0,0.0,0.0,0.0,0.0,0.0,-3.9926,0.0,-3.9668,0.0,0.0,0.0,0.0,0.0,0.0,0.0,0.0,0.0,0.0,0.0,0.0,0.0,0.0,0.0,0.0,0.0,0.0,0.0,-3.3313,-3.3398,-3.367,-3.3713,-3.3937,-3.4397,-3.4397,-3.4397,-3.4397,-3.4397,-3.4397,-3.4397,-3.4397,-3.4397,-3.4397,-3.4397,-3.4397,-3.4397,-3.4397,-3.4397,-3.4397,-3.4397,-3.4397,-3.4397,-3.4397,-3.4397,-3.4397,-3.4397,-3.4397,-3.4397,-4.2806,-4.2843,-4.2861,-4.2764,-4.2745,-4.2725,-4.2609,-4.3274,-4.3886,-4.4101,-4.4839,-4.5414,-4.5612,-4.5654,-4.5714,-4.5672,-4.5557,-4.547,-4.5449,-4.4692,-4.4241,-4.4241,-4.3306,-4.2754,-4.2752,-4.2041,-4.1565,-4.13,-4.0853,-4.0527,-4.0305,-4.0163,-4.0096,-4.0096,-3.9961,-3.9824,-3.9599,-3.9131,-3.8777,-3.8427,-3.8042,-3.7756,-3.7539,-3.7612,-3.7756,-3.7972,-3.8343,-3.8832,-3.9352,-3.959,-3.9833,0.0,-4.007,0.0,0.0,0.0,0.0,0.0,-4.0096,0.0,0.0,0.0,0.0,0.0,0.0,0.0,0.0,0.0,0.0,0.0,0.0,0.0,0.0,0.0,0.0,0.0,0.0,0.0,0.0,0.0,0.0,0.0,0.0,0.0,0.0,0.0,0.0,-3.3556,-3.381,-3.381,-3.3979,-3.4397,-3.4397,-3.4397,-3.4397,-3.4397,-3.4397,-3.4397,-3.4397,-3.4397,-3.4397,-3.4397,-3.4397,-3.4397,-3.4397,-3.4397,-3.4397,-3.4397,-3.4397,-3.4397,-3.4397,-3.4397,-3.4397,-3.4397,-3.4397,-3.4397,-4.2629,-4.2707,-4.2764,-4.2629,-4.2609,-4.2609,-4.2609,-4.3274,-4.4083,-4.4857,-4.5666,-4.6439,-4.7158,-4.723,-4.7204,-4.7129,-4.643,-4.5917,-4.5789,-4.5017,-4.4571,-4.4571,-4.3679,-4.3144,-4.3089,-4.2,-4.1277,-4.1024,-4.0662,-4.0436,-4.0305,-4.0163,-4.0096,-4.0096,-3.9961,-3.9746,-3.9475,-3.9013,-3.8539,-3.8087,-3.7608,-3.727,-3.7076,0.0,-3.7478,-3.746,-3.7943,0.0,0.0,-3.9352,-3.9668,0.0,0.0,0.0,0.0,0.0,0.0,0.0,0.0,0.0,0.0,-4.0096,0.0,0.0,0.0,0.0,-4.0062,0.0,0.0,0.0,0.0,0.0,0.0,0.0,0.0,0.0,0.0,0.0,0.0,0.0,0.0,0.0,0.0,0.0,0.0,0.0,0.0,0.0,-3.4076,-3.4076,-3.4189,-3.4397,-3.4397,-3.4397,-3.4397,-3.4397,-3.4397,-3.4397,-3.4397,-3.4397,-3.4397,-3.4397,-3.4397,-3.4397,-3.4397,-3.4397,-3.4397,-3.4397,-3.4397,-3.4397,-3.4397,-3.4397,-3.4397,-3.4397,-3.4397,-3.4397,-4.243,-4.2308,-4.2249,-4.2389,-4.2328,-4.2267,-4.2202,-4.3302,-4.4227,-4.4493,-4.5587,-4.6429,-4.6678,-4.6643,-4.6572,0.0,0.0,-4.6112,-4.6065,-4.53,-4.4858,-4.4858,-4.3927,-4.3156,-4.2648,-4.1996,-4.133,-4.0662,-4.0461,-4.0288,-4.0163,-4.0138,-4.0096,-4.007,-3.9858,-3.9582,-3.9249,-3.875,-3.8262,0.0,0.0,-3.7014,-3.6831,0.0,-3.7285,-3.7447,-3.7812,-3.8343,0.0,-3.9352,-3.9668,-3.991,-4.0062,-4.0096,-4.0011,-3.9537,-3.9385,0.0,0.0,0.0,-3.9385,-3.9385,0.0,0.0,0.0,0.0,0.0,0.0,0.0,0.0,0.0,0.0,0.0,0.0,0.0,0.0,0.0,0.0,0.0,0.0,0.0,0.0,0.0,0.0,0.0,0.0,-3.4147,0.0,0.0,-3.4118,-3.4202,-3.4397,-3.4397,-3.4397,-3.4397,-3.4397,-3.4397,-3.4397,-3.4397,-3.4397,-3.4397,-3.4397,-3.4397,-3.4397,-3.4397,-3.4397,-3.4397,-3.4397,-3.4397,-3.4397,-3.4397,-3.4397,-3.4397,-3.4397,-3.4397,-3.4397,-4.2124,-4.2139,-4.2141,-4.2132,-4.1998,-4.1909,-4.1862,-4.3164,-4.417,-4.417,-4.5423,0.0,-4.6259,0.0,-4.6087,0.0,-4.5988,-4.5963,-4.5912,-4.5416,0.0,-4.5137,-4.4218,-4.3469,-4.2992,-4.212,-4.1381,-4.0829,-4.0424,-4.0188,-4.0096,-4.0096,-4.0096,-4.007,-3.9833,-3.9504,-3.9115,-3.86,-3.8078,0.0,0.0,-3.6739,0.0,0.0,-3.6968,-3.7208,0.0,-3.8059,-3.8567,-3.9067,-3.9458,-3.967,-3.9657,-3.9648,-3.9496,-3.8819,-3.8616,-3.8514,-3.8041,-3.8261,0.0,-3.8616,-3.8954,0.0,-3.9656,0.0,0.0,0.0,0.0,0.0,0.0,0.0,0.0,0.0,0.0,0.0,0.0,-3.6793,0.0,0.0,0.0,0.0,0.0,0.0,-3.5453,-3.4812,-3.4494,0.0,0.0,0.0,-3.4285,-3.4397,-3.4397,-3.4306,-3.411,-3.411,-3.4005,-3.3796,-3.3796,-3.3796,-3.3796,-3.3796,-3.3901,-3.411,-3.411,-3.4214,-3.4397,-3.4397,-3.4397,-3.4397,-3.4397,-3.4397,-3.4397,-3.4397,-3.4397,-3.4397,-4.1925,-4.2274,-4.2462,-4.1939,-4.1732,-4.1665,0.0,0.0,-4.3892,0.0,-4.5207,-4.6112,-4.5988,-4.5963,-4.5862,-4.558,-4.5555,-4.552,-4.5389,-4.5389,0.0,0.0,-4.4586,-4.413,-4.4078,-4.2398,-4.1461,-4.1393,-4.0553,-4.0146,-4.0096,-4.0096,-4.0113,-4.0087,-3.9833,-3.9441,-3.8969,-3.856,-3.7918,-3.7134,-3.6662,-3.6492,-3.6492,-3.6492,-3.6538,-3.6723,-3.7208,-3.7594,-3.7972,-3.8583,-3.9013,-3.9236,-3.8891,-3.8782,-3.8655,-3.8019,-3.7831,-3.7814,-3.778,-3.7797,-3.7831,-3.7831,0.0,0.0,0.0,0.0,-3.9108,0.0,0.0,0.0,0.0,0.0,0.0,0.0,0.0,0.0,0.0,0.0,0.0,0.0,0.0,0.0,0.0,-3.6635,-3.6002,-3.5467,-3.5044,0.0,0.0,0.0,-3.4397,-3.4397,-3.4371,-3.411,-3.36,-3.3561,-3.326,-3.2685,-3.2685,-3.2685,-3.2685,-3.2685,-3.2999,-3.3548,-3.3587,-3.3888,-3.4358,-3.4384,-3.4397,-3.4397,-3.4397,-3.4397,-3.4397,-3.4397,-3.4397,-3.4397,-4.3092,-4.2913,-4.2735,-4.2511,-4.2617,-4.2715,0.0,0.0,0.0,0.0,-4.4915,-4.5424,-4.5415,-4.531,-4.523,-4.515,-4.515,0.0,0.0,0.0,0.0,-4.5096,-4.4807,-4.4367,-4.3822,-4.3199,-4.2356,-4.1256,-4.1044,-4.0629,-4.0096,-4.0096,-4.0062,-3.9935,-3.9781,-3.9372,-3.8832,-3.8371,-3.7594,-3.6662,-3.6399,-3.6226,0.0,0.0,-3.6163,-3.6258,-3.6892,-3.7375,-3.7831,-3.8286,-3.8706,-3.9016,-3.8619,-3.8581,-3.8405,-3.7146,-3.6784,-3.6666,-3.6128,-3.638,-3.6784,-3.6784,-3.7203,-3.7657,0.0,0.0,0.0,0.0,0.0,0.0,0.0,0.0,0.0,0.0,0.0,0.0,0.0,0.0,0.0,-3.6586,0.0,0.0,0.0,-3.6084,-3.5631,-3.5602,-3.5127,0.0,0.0,0.0,0.0,-3.4397,-3.4005,-3.3731,-3.3587,-3.3156,-3.2842,-3.2685,-3.2685,-3.2685,-3.2685,-3.2685,-3.2777,-3.2947,-3.3391,-3.3679,-3.3835,-3.4241,-3.4397,-3.4397,-3.4397,-3.4397,-3.4397,-3.4397,-3.4397,-3.4397,-4.3346,-4.3254,-4.3295,-4.3583,0.0,0.0,-4.3006,-4.358,0.0,-4.4061,-4.4687,0.0,-4.5032,-4.4951,-4.4886,-4.4831,-4.4831,0.0,-4.4831,0.0,0.0,-4.4831,-4.4748,-4.4523,-4.4099,-4.3633,0.0,-4.1677,-4.1373,-4.0815,-4.0096,-4.0096,-4.0037,-3.9901,-3.9694,-3.9282,-3.8667,-3.7857,-3.7104,-3.6492,-3.6226,-3.6068,0.0,-3.6005,-3.6005,-3.6037,-3.6429,-3.6846,-3.7329,-3.7873,-3.8286,-3.8498,-3.7892,-3.7784,-3.7653,-3.6305,-3.5917,-3.5834,-3.5408,-3.5592,-3.5917,-3.5917,-3.6236,-3.6614,-3.6956,-3.7023,-3.72,0.0,0.0,0.0,0.0,0.0,0.0,0.0,0.0,0.0,0.0,0.0,0.0,0.0,-3.5881,0.0,0.0,0.0,-3.5629,-3.5581,0.0,0.0,0.0,0.0,0.0,-3.4058,-3.3757,-3.3352,-3.2829,-3.2489,-3.2189,-3.1954,-3.1954,-3.1954,-3.1954,-3.1954,-3.2084,-3.2346,-3.2685,-3.3117,-3.3613,-3.3927,-3.4188,-3.4397,-3.4314,-3.4285,-3.423,-3.4147,-3.423,-3.4397,-4.3339,-4.3543,-4.3949,0.0,0.0,0.0,0.0,-4.3541,0.0,-4.3985,0.0,-4.4896,-4.4793,-4.4776,-4.4737,-4.4598,0.0,-4.4615,-4.4615,-4.4615,-4.4615,-4.4615,-4.4615,-4.4615,-4.4615,-4.391,-4.32,0.0,0.0,-4.0967,-4.0248,-4.0146,-4.0011,-3.9875,-3.9616,0.0,0.0,-3.7178,-3.6569,-3.6398,-3.61,-3.5941,-3.5941,-3.5941,-3.5941,-3.5957,-3.5941,-3.6258,-3.6739,-3.7359,-3.7756,-3.7874,-3.7077,-3.6873,-3.6746,-3.5685,-3.5305,-3.5245,-3.5245,-3.5245,-3.5245,-3.5245,-3.5245,-3.5412,-3.6054,-3.6205,-3.6382,-3.7011,-3.7136,-3.7319,0.0,0.0,0.0,0.0,0.0,0.0,0.0,0.0,0.0,0.0,0.0,0.0,0.0,0.0,0.0,0.0,0.0,0.0,0.0,0.0,0.0,-3.36,-3.3443,-3.2868,-3.181,0.0,-3.1445,-3.0986,-3.0986,-3.0986,-3.0986,-3.0986,-3.1261,-3.1693,-3.1771,-3.2424,-3.3483,-3.3561,-3.3914,-3.4397,-3.4202,-3.4118,-3.4076,-3.381,-3.3979,-3.4314,-4.4429,-4.4393,-4.4473,0.0,0.0,-4.4485,-4.4069,-4.4265,-4.4495,-4.4495,-4.4569,-4.4654,-4.4626,-4.4626,-4.4643,-4.4615,-4.4615,0.0,0.0,0.0,0.0,-4.4615,-4.4615,-4.4615,-4.4615,-4.4479,-4.3995,0.0,0.0,-4.1728,-4.0984,-4.0383,-3.9986,-3.9729,0.0,0.0,-3.7801,-3.6907,0.0,-3.6068,-3.5831,-3.5686,-3.5602,-3.5602,-3.5602,-3.5587,-3.5703,-3.5975,-3.6367,-3.6739,-3.7148,-3.748,-3.709,-3.682,-3.6523,-3.5894,-3.5355,-3.497,-3.497,-3.497,-3.497,-3.497,-3.497,-3.5003,-3.512,-3.5153,-3.5369,-3.6091,-3.624,-3.6448,-3.7168,0.0,0.0,0.0,0.0,0.0,0.0,0.0,0.0,0.0,0.0,0.0,0.0,0.0,0.0,0.0,0.0,0.0,0.0,0.0,0.0,0.0,-3.2607,0.0,0.0,0.0,-3.1091,-3.0986,-3.0986,-3.0986,-3.0986,-3.0986,-3.1039,-3.1156,-3.1602,-3.2189,-3.2894,-3.3378,-3.3914,-3.4397,-3.4202,-3.4118,-3.4076,-3.381,-3.3755,-3.3839,-4.4497,0.0,-4.4344,0.0,0.0,0.0,0.0,-4.427,-4.4344,-4.4344,-4.4412,-4.444,-4.444,-4.4542,-4.4615,-4.4615,-4.4615,-4.4615,-4.4615,-4.4615,-4.4615,-4.4615,-4.4615,-4.4615,-4.4615,-4.4615,-4.4198,-4.3392,0.0,0.0,-4.1187,0.0,0.0,-3.9563,0.0,-3.8144,0.0,0.0,0.0,-3.5831,-3.5653,-3.5554,-3.5504,-3.5504,-3.5504,-3.5504,-3.5572,-3.5686,-3.591,-3.6414,-3.68,-3.7008,-3.6826,-3.6812,-3.6637,-3.5864,-3.5506,-3.5307,-3.4998,-3.4899,-3.4899,-3.4899,-3.4899,-3.4899,-3.4899,-3.4899,-3.4975,-3.5274,-3.5332,-3.5522,-3.619,-3.695,0.0,0.0,0.0,0.0,0.0,0.0,0.0,0.0,0.0,0.0,0.0,0.0,0.0,0.0,0.0,0.0,0.0,0.0,0.0,0.0,0.0,0.0,0.0,0.0,0.0,-3.0986,-3.0986,-3.0986,-3.0986,-3.0986,-3.0986,-3.0999,-3.1274,-3.1888,-3.2764,-3.3639,-3.4121,-3.4243,-3.3979,-3.3823,-3.3696,-3.3484,-3.3398,-3.3441,-4.4265,-4.4184,0.0,0.0,-4.4097,-4.4097,-4.4056,-4.4056,-4.4068,-4.4097,-4.4196,-4.4253,-4.4253,-4.4384,-4.4485,-4.4485,-4.4514,-4.4542,-4.4542,-4.457,-4.4615,-4.4615,-4.4615,-4.4615,-4.4615,-4.4615,-4.4282,0.0,0.0,0.0,0.0,0.0,0.0,0.0,0.0,0.0,0.0,0.0,-3.6246,-3.611,-3.5959,-3.5908,-3.5893,-3.5759,-3.5714,-3.5699,-3.5549,-3.5504,-3.5602,-3.6147,-3.6445,-3.6584,-3.6625,-3.6775,-3.6773,-3.6036,-3.5756,-3.5588,-3.5176,-3.4943,-3.4811,-3.4811,-3.4811,-3.4811,-3.4811,-3.4811,-3.4804,-3.4667,-3.4618,-3.48,-3.5397,-3.6172,0.0,0.0,0.0,0.0,0.0,0.0,0.0,0.0,0.0,0.0,0.0,0.0,0.0,0.0,0.0,0.0,-3.3114,-3.2738,-3.2306,0.0,0.0,-3.1444,-3.0986,0.0,-3.0986,-3.0986,-3.0986,-3.0986,-3.0986,-3.0986,-3.0986,-3.0986,-3.0949,-3.1563,-3.2658,-3.3673,-3.4043,-3.3992,-3.3725,-3.3556,-3.3398,-3.3154,-3.3124,-3.3154,0.0,0.0,0.0,0.0,0.0,0.0,-4.3927,-4.3927,-4.3956,-4.4068,-4.4097,-4.4126,-4.4126,-4.4126,-4.4143,-4.4143,-4.4253,-4.4338,-4.4338,-4.4497,-4.4615,-4.4615,-4.4615,-4.4615,-4.4615,-4.4615,-4.4564,0.0,0.0,-4.2848,0.0,0.0,0.0,0.0,0.0,0.0,0.0,-3.6949,-3.6969,-3.7492,-3.7308,-3.7225,-3.7165,-3.6611,-3.6402,-3.6312,-3.5714,-3.5504,-3.5537,-3.5703,-3.5975,-3.629,-3.6615,-3.6676,-3.666,-3.6837,-3.613,-3.5384,-3.5496,-3.5054,-3.4546,-3.4546,-3.4546,-3.4546,-3.4546,-3.4546,-3.4521,-3.4521,-3.4423,-3.4528,-3.5133,-3.4978,-3.5042,0.0,0.0,0.0,0.0,0.0,0.0,0.0,0.0,0.0,0.0,0.0,0.0,0.0,0.0,0.0,-3.2501,-3.2107,-3.1863,-3.1797,0.0,-3.1039,-3.0986,-3.0986,-3.0986,-3.0986,-3.0986,-3.0986,-3.0986,-3.0986,-3.0986,-3.0986,-3.0811,-3.1268,-3.2204,-3.2795,-3.3306,-3.3725,-3.3513,-3.3441,-3.3398,-3.3154,-3.3124,-3.3124,0.0,0.0,0.0,0.0,0.0,0.0,0.0,-4.3734,-4.3747,-4.3805,-4.391,-4.3969,-4.3969,-4.4056,-4.4097,-4.4097,-4.4155,-4.4184,-4.4184,-4.4241,-4.4315,-4.4315,-4.4384,-4.4412,-4.4412,-4.4542,-4.4542,0.0,0.0,0.0,0.0,0.0,0.0,0.0,0.0,-3.7991,-3.7783,-3.7434,-3.7398,-3.7522,-3.7439,-3.7404,-3.7375,-3.7135,-3.6806,-3.6447,-3.6193,-3.5833,-3.5504,-3.5554,-3.5718,-3.5975,-3.6445,-3.6674,-3.6764,-3.6759,-3.6584,-3.6217,-3.5516,-3.5071,-3.4787,-3.4447,-3.4374,-3.4374,-3.4374,-3.4374,-3.4325,-3.4176,-3.3975,-3.3867,-3.4026,-3.41,-3.4344,0.0,0.0,0.0,0.0,0.0,0.0,0.0,0.0,0.0,0.0,0.0,0.0,0.0,0.0,0.0,0.0,-3.1553,0.0,-3.1326,0.0,-3.0986,-3.0986,-3.0986,-3.0986,-3.0986,-3.0986,-3.0986,-3.0986,-3.0986,-3.0911,-3.0824,-3.0932,-3.1421,-3.2124,-3.2703,-3.3129,-3.3513,-3.3441,-3.3313,-3.3197,-3.3111,-3.3124,-3.3124,-4.3852,0.0,-4.3598,0.0,-4.3598,-4.3598,-4.3598,-4.3598,-4.3598,-4.3598,-4.3734,-4.3793,-4.3793,-4.391,-4.3952,-4.3952,-4.4027,-4.4056,-4.4056,-4.4068,-4.4097,-4.4097,-4.4196,0.0,-4.4253,-4.4384,-4.4355,-4.415,-4.3647,0.0,0.0,0.0,0.0,0.0,-3.8673,-3.8335,-3.813,-3.7959,-3.7927,-3.8003,-3.8003,-3.8003,-3.7973,-3.7778,-3.7419,-3.7,-3.6611,-3.6193,-3.5759,-3.5564,-3.5572,-3.5703,-3.6116,-3.6507,-3.6767,-3.6672,-3.6708,-3.6562,-3.5498,-3.5043,-3.4732,-3.4152,-3.4,-3.4,-3.4,-3.4,-3.3949,-3.3745,-3.3487,-3.3277,-3.3171,-3.3295,-3.3612,-3.4291,0.0,0.0,0.0,0.0,0.0,0.0,-3.5504,-3.5326,-3.4935,0.0,0.0,0.0,0.0,0.0,0.0,0.0,0.0,0.0,0.0,0.0,0.0,-3.0823,-3.0836,-3.0911,-3.0911,-3.0911,-3.0911,-3.0836,-3.0723,-3.0534,-3.0752,-3.1262,-3.1937,-3.2306,-3.278,-3.3313,-3.3313,-3.324,-3.3124,-3.3124,-3.3124,-3.3124,-4.3628,-4.3598,-4.3598,-4.3598,-4.3598,-4.3598,-4.3598,-4.3598,-4.3598,-4.3598,-4.3598,-4.3598,-4.3598,-4.3598,-4.3598,-4.3598,-4.3793,-4.3898,-4.3898,-4.4027,-4.4097,0.0,0.0,-4.4097,-4.4097,-4.4097,-4.3993,-4.3802,0.0,0.0,-4.1969,0.0,-3.9172,-3.8688,-3.8147,-3.819,-3.8687,-3.8497,-3.8766,-3.9394,-3.9394,-3.9394,-3.932,-3.8631,-3.8377,-3.8197,-3.6941,-3.6477,-3.6372,-3.5729,-3.5504,-3.5537,-3.5671,-3.6085,-3.6523,-3.6646,-3.6423,-3.6001,-3.554,-3.4873,-3.4151,-3.3482,-3.3293,-3.3293,-3.3293,-3.3293,-3.3293,-3.3309,-3.3049,-3.2815,-3.2815,-3.248,-3.2606,-3.3712,0.0,0.0,0.0,0.0,0.0,0.0,-3.5504,-3.5326,-3.4935,0.0,0.0,0.0,0.0,0.0,0.0,0.0,0.0,-3.0698,-3.0698,0.0,-3.0406,-3.0406,-3.0495,-3.0698,-3.0698,-3.0698,-3.0698,-3.0482,-3.0292,-3.0113,-3.0126,-3.0591,-3.1427,-3.1439,-3.2064,-3.3124,-3.3124,-3.3124,-3.3124,-3.3124,-3.3124,-3.3124,-4.3628,-4.3598,-4.3598,-4.3598,-4.3598,-4.3598,-4.3598,-4.3598,-4.3598,-4.3598,-4.3598,-4.3598,-4.3598,-4.3598,-4.3598,0.0,-4.3658,-4.3704,0.0,-4.3747,-4.3747,-4.3747,-4.3881,-4.3969,-4.3969,-4.3906,-4.3818,-4.3671,0.0,0.0,0.0,-4.0791,-4.0081,-3.9551,-3.9258,-3.9149,-3.9167,-3.9095,-3.9215,-3.9388,-3.9388,-3.9388,-3.9394,-3.917,-3.8796,-3.8347,-3.7928,-3.7494,-3.7015,-3.6387,-3.6178,-3.6088,-3.5689,-3.5829,-3.6195,-3.6476,-3.6538,-3.6394,-3.5871,-3.5169,-3.4454,-3.3975,-3.341,-3.2953,-3.2953,-3.2834,-3.266,-3.2578,-3.2468,-3.237,-3.2259,-3.2066,-3.2335,-3.3547,-3.3653,0.0,0.0,0.0,0.0,0.0,-3.5504,-3.5326,0.0,-3.4471,0.0,0.0,0.0,0.0,0.0,0.0,0.0,0.0,-3.009,0.0,-2.9792,-2.9804,-3.0034,-3.0495,-3.0495,-3.0495,-3.0482,-3.0305,-3.0152,-3.0075,-2.9972,-3.0473,-3.1386,-3.1386,-3.2051,-3.3124,-3.3124,-3.3124,-3.3124,-3.3124,-3.3124,-3.3124,-4.3628,-4.3598,-4.3598,-4.3598,-4.3598,-4.3598,-4.3598,-4.3598,-4.3598,-4.3598,-4.3598,-4.3598,-4.3598,-4.3598,0.0,-4.3598,-4.3598,-4.3598,-4.3598,-4.3598,-4.3598,-4.3598,-4.3658,-4.3704,-4.3704,-4.3611,0.0,-4.3221,-4.2695,-4.2029,-4.129,-4.0765,-4.0296,-3.9889,-3.9661,-3.9517,-3.9388,-3.9388,-3.9388,-3.9388,-3.9388,-3.9388,-3.9388,-3.9388,-3.9155,-3.8736,-3.8482,-3.8123,-3.7689,-3.7045,-3.6836,-3.6731,-3.6073,-3.6027,-3.6179,-3.6208,-3.632,-3.6322,-3.5721,-3.5212,-3.4643,-3.3875,-3.3274,-3.2801,-3.2554,-3.237,-3.2219,-3.215,-3.2094,-3.201,-3.194,-3.2009,-3.2405,-3.3457,-3.3756,-3.4247,-3.5355,0.0,0.0,0.0,0.0,0.0,0.0,-3.4337,-3.3791,0.0,0.0,0.0,0.0,0.0,0.0,-2.9831,-2.9938,0.0,-2.9374,-2.9529,-2.9846,-3.0292,-3.0292,-3.0292,-3.0292,-3.0075,-2.9972,-2.9972,-2.9869,-3.0394,-3.1386,-3.1386,-3.2051,-3.3124,-3.3124,-3.3124,-3.3124,-3.3124,-3.3124,-3.3124,-4.3598,-4.3598,-4.3598,0.0,-4.3598,0.0,-4.3598,-4.3598,-4.3598,-4.3598,-4.3598,-4.3598,-4.3598,-4.3598,-4.3598,-4.3598,0.0,0.0,0.0,-4.3598,-4.3598,-4.3598,-4.3479,-4.3372,-4.3372,-4.3174,-4.2898,-4.2492,-4.1671,-4.1088,-4.073,-4.0226,-3.9889,-3.9661,-3.9481,-3.9388,-3.9388,-3.9388,-3.9388,-3.9388,-3.9388,-3.9388,-3.9388,-3.9388,-3.9388,-3.9298,-3.8691,-3.8467,-3.8362,-3.7704,-3.7479,-3.736,-3.6746,-3.6522,-3.6375,-3.5866,-3.5831,-3.5837,-3.5245,-3.5017,-3.4668,-3.3378,-3.2983,-3.2755,-3.2133,-3.1968,-3.1968,-3.1968,-3.187,-3.1784,-3.1784,-3.2166,-3.2736,-3.338,-3.4038,-3.4711,-3.5415,0.0,0.0,0.0,0.0,0.0,0.0,-3.4187,-3.3618,0.0,0.0,0.0,0.0,0.0,-3.0637,-2.9831,-3.0148,-2.9972,-2.9212,-2.9567,-2.9857,-3.0075,-3.0075,-3.0075,-3.0075,-2.9908,-2.9792,-2.9792,-2.9792,-3.0394,-3.1386,-3.1386,-3.2051,-3.3124,-3.3124,-3.3124,-3.3124,-3.3124,-3.3124,-3.3124,0.0,0.0,-4.3598,-4.3598,-4.3598,-4.3598,-4.3598,-4.3598,-4.3598,-4.3598,-4.3598,-4.3598,-4.3598,-4.3598,-4.3598,-4.3598,-4.3598,-4.3598,-4.3598,-4.3598,-4.3568,-4.3432,-4.3402,-4.3281,-4.3023,-4.2821,-4.2349,-4.1621,-4.1156,-4.0662,-4.0172,-3.991,-3.9661,-3.9445,-3.9409,-3.9388,-3.9388,-3.9388,-3.9388,-3.9388,-3.9388,-3.9388,-3.9388,-3.9388,-3.9388,-3.9394,-3.923,-3.917,-3.9065,-3.8392,-3.8153,-3.8048,-3.7389,-3.6866,-3.6375,-3.5866,-3.572,-3.5753,-3.5776,-3.5288,-3.4605,-3.3909,-3.2911,-3.2038,-3.1872,-3.1712,-3.1626,-3.1626,-3.1597,-3.1568,-3.1568,-3.2078,-3.2736,-3.338,-3.4038,-3.4711,-3.5415,-3.5504,0.0,0.0,-3.5014,-3.4889,-3.4064,-3.3729,-3.3346,0.0,0.0,0.0,0.0,-3.1136,-3.0637,-2.9831,-2.9725,-2.9552,-2.92,-2.9139,-2.9352,-2.9869,-2.9869,-2.9869,-2.9869,-2.983,-2.9792,-2.9792,-2.9792,-3.0394,-3.1386,-3.1386,-3.2051,-3.3124,-3.3124,-3.3124,-3.3124,-3.3124,-3.3124,-3.3124,-4.3598,-4.3598,-4.3598,-4.3598,-4.3598,-4.3598,-4.3598,-4.3598,-4.3598,-4.3598,-4.3598,-4.3598,-4.3598,-4.3598,-4.3598,-4.3598,-4.3598,-4.3598,-4.3598,-4.3539,-4.3432,-4.3265,-4.3129,-4.2883,-4.2539,-4.2366,-4.1899,-4.1055,-4.0627,-4.0226,-3.9854,-3.9661,-3.9517,-3.9388,-3.9388,-3.9388,-3.9388,-3.9388,-3.9388,-3.9388,-3.9388,-3.9388,-3.9388,-3.9388,-3.9388,-3.9388,-3.9388,-3.9388,-3.9328,-3.899,-3.8856,-3.8736,-3.8063,-3.7629,-3.7199,-3.6325,-3.5862,-3.5621,-3.5733,-3.5445,-3.4855,-3.3985,-3.2945,-3.203,-3.173,-3.1568,-3.1511,-3.1511,-3.1511,-3.1585,-3.1899,-3.2527,-3.3185,-3.3844,-3.4502,-3.507,-3.5444,-3.5235,0.0,-3.4548,-3.431,-3.4068,-3.3735,-3.3148,-3.2772,-3.2712,-3.1863,0.0,-3.1161,-3.0861,-3.0488,-2.9954,-2.9928,-2.9741,-2.9337,-2.9341,-2.9478,-2.9792,-2.9792,-2.9792,-2.9792,-2.9792,-2.9792,-2.9804,-3.0055,-3.0633,-3.1411,-3.1662,-3.229,-3.3124,-3.3124,-3.3124,-3.3124,-3.3124,-3.3124,-3.3124,-4.3598,-4.3598,-4.3598,-4.3598,-4.3598,-4.3598,-4.3598,-4.3598,-4.3598,-4.3598,-4.3598,-4.3598,-4.3598,-4.3598,-4.3598,-4.3598,-4.3598,-4.3568,-4.3568,-4.3432,-4.3251,-4.3052,-4.2711,-4.2365,-4.198,-4.1752,-4.1321,-4.0662,-4.0191,-3.9839,-3.9661,-3.9481,-3.9388,-3.9388,-3.9388,-3.9388,-3.9388,-3.9388,-3.9388,-3.9388,-3.9388,-3.9388,-3.9388,-3.9388,-3.9388,-3.9388,-3.9388,-3.9388,-3.9388,-3.9388,-3.9388,-3.932,-3.8736,-3.8467,-3.8182,-3.709,-3.6237,-3.5624,-3.5534,-3.5429,-3.507,-3.3933,-3.3155,-3.2497,-3.1795,-3.1645,-3.1645,-3.1645,-3.1645,-3.1854,-3.2542,-3.32,-3.3829,-3.4414,-3.5055,-3.5474,-3.537,0.0,-3.4397,-3.4203,-3.3472,-3.3054,-3.3255,-3.2415,-3.1944,-3.2244,-3.1326,-3.0725,-3.0651,-3.0428,-3.0173,-3.0004,-3.0224,-3.01,-2.9552,-2.9694,-2.9792,-2.9792,-2.9792,-2.9792,-2.9792,-2.9792,-2.9842,-2.9942,-3.0407,-3.0959,-3.1549,-3.2026,-3.2554,-3.3124,-3.3124,-3.3124,-3.3124,-3.3124,-3.3124,-3.3124,-4.3598,-4.3598,-4.3598,-4.3598,-4.3598,-4.3598,-4.3598,-4.3598,-4.3598,-4.3598,-4.3598,-4.3598,-4.3598,-4.3598,-4.3598,-4.3598,-4.3509,-4.3432,-4.3432,-4.3235,-4.3021,-4.268,-4.2365,-4.1948,-4.1456,-4.0802,-4.0335,-4.0137,-3.9874,-3.9625,-3.946,-3.9409,-3.9388,-3.9388,-3.9388,-3.9388,-3.9388,-3.9388,-3.9388,-3.9388,-3.9388,-3.9388,-3.9388,-3.9388,-3.9388,-3.9388,-3.9388,-3.9388,-3.9388,-3.9388,-3.9388,-3.9394,-3.929,-3.8856,-3.8347,-3.8153,-3.7255,-3.6207,-3.5654,-3.5085,-3.4623,-3.4414,-3.3829,-3.317,-3.2512,-3.2333,-3.2333,-3.2333,-3.2333,-3.2557,-3.3215,-3.3873,-3.4384,-3.4488,-3.5055,-3.5295,-3.4711,0.0,-3.4037,-3.2794,-3.2755,-3.2467,-3.153,-3.1227,-3.0822,-3.0282,-2.983,-2.9441,-2.9068,-2.9444,-2.9625,-2.9572,-2.9973,-2.9999,-2.9782,-2.978,-2.9792,-2.9792,-2.9792,-2.9792,-2.9792,-2.9792,-3.0043,-3.0495,-3.057,-3.1173,-3.2089,-3.2177,-3.2554,-3.3124,-3.3124,-3.3124,-3.3124,-3.3124,-3.3124,-3.3124,-4.3598,-4.3598,-4.3598,-4.3598,-4.3598,-4.3598,-4.3598,-4.3598,-4.3598,-4.3598,-4.3598,-4.3598,-4.3598,-4.3598,-4.3568,-4.3509,-4.3449,-4.3281,-4.2976,-4.2867,-4.268,-4.2349,-4.1916,-4.1374,-4.0734,-4.0196,-3.9895,-3.9839,-3.9625,-3.9481,-3.9388,-3.9388,-3.9388,-3.9388,-3.9388,-3.9388,-3.9388,-3.9388,-3.9388,-3.9388,-3.9388,-3.9388,-3.9388,-3.9388,-3.9388,-3.9388,-3.9388,-3.9388,-3.9388,-3.9388,-3.9388,-3.9388,-3.9388,-3.92,-3.8871,-3.8497,-3.7494,-3.6342,-3.5684,-3.5265,-3.4936,-3.4593,-3.4279,-3.3844,-3.3185,-3.3036,-3.3036,-3.3036,-3.3036,-3.3245,-3.3934,-3.4294,-3.4638,-3.4966,-3.5295,0.0,0.0,-3.411,-3.345,-3.2421,-3.1804,-3.1298,-3.0888,-3.033,-2.9909,-2.9714,-2.9142,-2.8749,-2.8533,-2.8921,-2.92,-2.92,-2.9783,-3.0011,-2.9792,-2.9792,-2.9792,-2.9792,-2.9792,-2.9792,-2.9804,-3.0093,-3.0382,-3.0645,-3.1223,-3.1763,-3.224,-3.2554,-3.283,-3.3124,-3.3124,-3.3124,-3.3124,-3.3124,-3.3124,-3.3124,-4.3598,-4.3598,-4.3598,-4.3598,-4.3598,-4.3598,-4.3598,-4.3598,-4.3598,-4.3598,-4.3598,-4.3598,-4.3598,-4.3568,-4.3492,-4.3419,-4.3281,-4.3037,-4.2571,-4.2397,-4.2174,-4.1916,-4.1323,-4.0715,-4.0091,-3.9788,-3.9625,-3.9625,-3.9496,-3.9388,-3.9388,-3.9388,-3.9388,-3.9388,-3.9388,-3.9388,-3.9388,-3.9388,-3.9388,-3.9388,-3.9388,-3.9388,-3.9388,-3.9388,-3.9388,-3.9388,-3.9388,-3.9388,-3.9388,-3.9388,-3.9388,-3.9388,-3.9388,-3.9388,-3.932,-3.8781,-3.7719,-3.6522,-3.5729,-3.5504,-3.5385,-3.4846,-3.4711,-3.4578,-3.3873,-3.3724,-3.3724,-3.3724,-3.3724,-3.3918,-3.4592,-3.4711,-3.4891,-3.5415,0.0,0.0,0.0,-3.3704,-3.2971,-3.2048,-3.0933,-3.0254,-3.0316,-2.9468,-2.8952,-2.9074,-2.8421,-2.7995,-2.7959,-2.8434,-2.8825,-2.9076,-2.9706,-2.9972,-2.9792,-2.9792,-2.9792,-2.9792,-2.9792,-2.9792,-2.9817,-3.0369,-3.0683,-3.0846,-3.18,-3.229,-3.2453,-3.2893,-3.3124,-3.3124,-3.3124,-3.3124,-3.3124,-3.3124,-3.3124,-3.3124,-4.3598,-4.3598,-4.3598,-4.3598,-4.3598,-4.3598,-4.3598,-4.3598,-4.3598,-4.3598,-4.3598,-4.3598,-4.3598,-4.3509,-4.3402,-4.3402,-4.2945,-4.2602,-4.2413,-4.1785,-4.1374,-4.1357,-4.0558,-3.998,-3.9753,-3.9517,-3.9409,-3.9409,-3.9424,-3.9388,-3.9388,-3.9388,-3.9388,-3.9388,-3.9388,-3.9388,-3.9388,-3.9388,-3.9388,-3.9388,-3.9388,-3.9388,-3.9388,-3.9388,-3.9388,-3.9388,-3.9388,-3.9388,-3.9388,-3.9388,-3.9388,-3.9388,-3.9388,-3.9388,-3.9373,-3.9328,-3.8392,-3.7075,-3.5833,-3.5504,-3.5489,-3.5444,-3.5429,-3.525,-3.4593,-3.4444,-3.4444,-3.4444,-3.4444,-3.4638,-3.5295,-3.5429,-3.5444,-3.5489,0.0,0.0,-3.3754,-3.3421,-3.2715,-3.11,-3.0446,-2.9867,-2.9281,-2.853,-2.7934,-2.7499,-2.708,-2.6772,-2.6647,-2.7618,-2.8649,-2.9691,-2.9805,-2.9792,-2.9792,-2.9792,-2.9792,-2.9792,-2.9792,-2.9792,-2.9817,-3.0369,-3.0871,-3.1361,-3.1951,-3.2516,-3.3061,-3.3056,-3.3124,-3.3124,-3.3124,-3.3124,-3.3124,-3.3124,-3.3124,-3.3124,-4.3598,-4.3598,-4.3598,-4.3598,-4.3598,-4.3598,-4.3598,-4.3598,-4.3598,-4.3598,-4.3598,-4.3568,-4.3509,-4.3432,-4.3251,-4.2945,-4.2634,-4.227,-4.1753,-4.1256,-4.0833,-4.0505,-4.0051,-3.9732,-3.9517,-3.946,-3.9388,-3.9388,-3.9388,-3.9388,-3.9388,-3.9388,-3.9388,-3.9388,-3.9388,-3.9388,-3.9388,-3.9388,-3.9388,-3.9388,-3.9388,-3.9388,-3.9388,-3.9388,-3.9388,-3.9388,-3.9388,-3.9388,-3.9388,-3.9388,-3.9388,-3.9388,-3.9388,-3.9388,-3.9298,-3.8901,-3.8123,-3.7225,-3.6342,-3.5818,-3.5504,-3.5504,-3.5504,-3.5429,-3.5175,-3.5115,-3.5115,-3.5115,-3.5115,-3.519,-3.5459,-3.5504,-3.5504,-3.5504,0.0,-3.5008,-3.3585,-3.3207,-3.2503,-3.0878,-3.0144,-2.9557,-2.8976,-2.817,-2.7523,-2.7146,-2.6773,-2.6706,-2.6989,-2.8009,-2.8976,-2.9767,-2.9792,-2.9792,-2.9792,-2.9792,-2.9792,-2.9792,-2.9792,-2.9967,-3.0319,-3.0846,-3.1386,-3.1938,-3.2503,-3.2867,-3.3124,-3.3124,-3.3124,-3.3124,-3.3124,-3.3124,-3.3124,-3.3124,-3.3124,-3.3124,-4.3598,-4.3598,-4.3598,-4.3598,-4.3598,-4.3598,-4.3598,-4.3598,-4.3598,-4.3598,-4.3598,-4.3539,-4.3402,-4.3342,-4.3099,-4.2571,-4.2349,-4.1931,-4.1189,-4.0715,-4.0281,-3.9925,-3.9696,-3.9553,-3.9388,-3.9388,-3.9388,-3.9388,-3.9388,-3.9388,-3.9388,-3.9388,-3.9388,-3.9388,-3.9388,-3.9388,-3.9388,-3.9388,-3.9388,-3.9388,-3.9388,-3.9388,-3.9388,-3.9388,-3.9388,-3.9388,-3.9388,-3.9388,-3.9388,-3.9388,-3.9388,-3.9388,-3.9388,-3.9388,-3.9334,-3.8856,-3.8242,-3.7584,-3.6941,-3.6312,-3.5759,-3.5549,-3.5504,-3.5504,-3.5504,-3.5504,-3.5472,-3.5439,-3.5407,-3.5392,-3.5326,-3.5326,-3.5326,-3.5326,-3.5326,-3.4907,-3.3697,-3.3184,-3.2421,-3.0973,-3.0088,-2.9369,-2.8785,-2.7987,-2.7434,-2.7255,-2.6924,-2.7065,-2.7758,-2.8511,-2.9202,-2.9779,-2.9792,-2.9792,-2.9792,-2.9792,-2.9792,-2.9792,-2.9792,-3.008,-3.0633,-3.1148,-3.1687,-3.224,-3.283,-3.3124,-3.3124,-3.3124,-3.3124,-3.3124,-3.3124,-3.3124,-3.3124,-3.3124,-3.3124,-3.3124,-4.3598,-4.3598,-4.3598,-4.3598,-4.3598,-4.3598,-4.3598,-4.3598,-4.3598,-4.3598,-4.3598,-4.3539,-4.3402,-4.3204,-4.2929,-4.2445,-4.2093,-4.1587,-4.0833,-4.0091,-3.9681,-3.9681,-3.9517,-3.9388,-3.9388,-3.9388,-3.9388,-3.9388,-3.9388,-3.9388,-3.9388,-3.9388,-3.9388,-3.9388,-3.9388,-3.9388,-3.9388,-3.9388,-3.9388,-3.9388,-3.9388,-3.9388,-3.9388,-3.9388,-3.9388,-3.9388,-3.9388,-3.9388,-3.9388,-3.9388,-3.9388,-3.9388,-3.9388,-3.9388,-3.9388,-3.9388,-3.8931,-3.8242,-3.7584,-3.6956,-3.6327,-3.5669,-3.5504,-3.5504,-3.5504,-3.5504,-3.5439,-3.5261,-3.518,-3.5148,-3.4935,-3.4902,-3.4902,-3.4902,-3.4902,-3.4681,-3.4097,-3.3319,-3.2421,-3.1423,-3.031,-2.9334,-2.8665,-2.7947,-2.7603,-2.778,-2.7493,-2.777,-2.8838,-2.8888,-2.9202,-2.9779,-2.9792,-2.9792,-2.9792,-2.9792,-2.9792,-2.9792,-2.9792,-3.008,-3.0633,-3.116,-3.17,-3.2252,-3.283,-3.3124,-3.3124,-3.3124,-3.3124,-3.3124,-3.3124,-3.3124,-3.3124,-3.3124,-3.3124,-3.3124,-4.3598,-4.3598,-4.3598,-4.3598,-4.3598,-4.3598,-4.3598,-4.3598,-4.3598,-4.3598,-4.3598,-4.3509,-4.3204,-4.3143,-4.2805,-4.2109,-4.1703,-4.1055,-4.0106,-3.9696,-3.9481,-3.9481,-3.9424,-3.9388,-3.9388,-3.9388,-3.9388,-3.9388,-3.9388,-3.9388,-3.9388,-3.9388,-3.9388,-3.9388,-3.9388,-3.9388,-3.9388,-3.9388,-3.9388,-3.9388,-3.9388,-3.9388,-3.9388,-3.9388,-3.9388,-3.9388,-3.9388,-3.9388,-3.9388,-3.9388,-3.9388,-3.9388,-3.9388,-3.9388,-3.9388,-3.9388,-3.8931,-3.8242,-3.7584,-3.6956,-3.6327,-3.5669,-3.5504,-3.5504,-3.5504,-3.5504,-3.5439,-3.5261,-3.518,-3.5148,-3.4935,-3.4902,-3.4902,-3.4902,-3.4902,-3.4633,-3.3888,-3.3574,-3.3016,-3.1911,-3.1235,-3.0601,-2.9936,-2.9141,-2.8629,-2.8443,-2.8442,-2.8549,-2.8875,-2.9315,-2.9616,-2.9779,-2.9792,-2.9792,-2.9792,-2.9792,-2.9792,-2.9792,-2.9792,-3.0269,-3.1173,-3.1323,-3.1913,-3.283,-3.3006,-3.3124,-3.3124,-3.3124,-3.3124,-3.3124,-3.3124,-3.3124,-3.3124,-3.3124,-3.3124,-3.3124,-4.3598,-4.3598,-4.3598,-4.3598,-4.3598,-4.3598,-4.3598,-4.3598,-4.3598,-4.3598,-4.3598,-4.3462,-4.3143,-4.3113,-4.2726,-4.185,-4.1171,-4.0489,-3.9753,-3.9517,-3.9388,-3.9388,-3.9388,-3.9388,-3.9388,-3.9388,-3.9388,-3.9388,-3.9388,-3.9388,-3.9388,-3.9388,-3.9388,-3.9388,-3.9388,-3.9388,-3.9388,-3.9388,-3.9388,-3.9388,-3.9388,-3.9388,-3.9388,-3.9388,-3.9388,-3.9388,-3.9388,-3.9388,-3.9388,-3.9388,-3.9388,-3.9388,-3.9388,-3.9388,-3.9388,-3.9388,-3.9125,-3.8646,-3.7973,-3.733,-3.6701,-3.6058,-3.5699,-3.5504,-3.5504,-3.5504,-3.5439,-3.5148,-3.5082,-3.5001,-3.4735,-3.4702,-3.4702,-3.4702,-3.4702,-3.4537,-3.4043,-3.3766,-3.3311,-3.2462,-3.1797,-3.1129,-3.0467,-2.9658,-2.9077,-2.8778,-2.9063,-2.9277,-2.9277,-2.9603,-2.9792,-2.9792,-2.9792,-2.9792,-2.9792,-2.9792,-2.9792,-2.9792,-3.0018,-3.057,-3.1399,-3.1612,-3.2215,-3.3124,-3.3124,-3.3124,-3.3124,-3.3124,-3.3124,-3.3124,-3.3124,-3.3124,-3.3124,-3.3124,-3.3124,-3.3124,-4.3598,-4.3598,-4.3598,-4.3598,-4.3598,-4.3598,-4.3598,-4.3598,-4.3598,-4.3598,-4.3598,-4.3462,-4.3143,-4.3113,-4.2695,-4.1687,-4.0627,-3.9889,-3.9696,-3.9517,-3.9388,-3.9388,-3.9388,-3.9388,-3.9388,-3.9388,-3.9388,-3.9388,-3.9388,-3.9388,-3.9388,-3.9388,-3.9388,-3.9388,-3.9388,-3.9388,-3.9388,-3.9388,-3.9388,-3.9388,-3.9388,-3.9388,-3.9388,-3.9388,-3.9388,-3.9388,-3.9388,-3.9388,-3.9388,-3.9388,-3.9388,-3.9388,-3.9388,-3.9388,-3.9388,-3.9388,-3.9388,-3.9275,-3.8571,-3.7913,-3.727,-3.6641,-3.5998,-3.5504,-3.5504,-3.5504,-3.5392,-3.4968,-3.4902,-3.4802,-3.4448,-3.4414,-3.4414,-3.4414,-3.4414,-3.4414,-3.4414,-3.392,-3.3444,-3.303,-3.215,-3.1296,-3.0617,-2.9817,-2.9217,-2.9001,-2.949,-2.9792,-2.9792,-2.9792,-2.9792,-2.9792,-2.9792,-2.9792,-2.9792,-2.9842,-2.9867,-2.988,-3.0382,-3.0922,-3.1486,-3.1989,-3.2528,-3.3124,-3.3124,-3.3124,-3.3124,-3.3124,-3.3124,-3.3124,-3.3124,-3.3124,-3.3124,-3.3124,-3.3124,-3.3124,-4.3598,-4.3598,-4.3598,-4.3598,-4.3598,-4.3598,-4.3598,-4.3598,-4.3598,-4.3598,-4.3598,-4.3462,-4.3143,-4.3113,-4.2695,-4.1687,-4.0627,-3.9854,-3.9496,-3.9409,-3.9388,-3.9388,-3.9388,-3.9388,-3.9388,-3.9388,-3.9388,-3.9388,-3.9388,-3.9388,-3.9388,-3.9388,-3.9388,-3.9388,-3.9388,-3.9388,-3.9388,-3.9388,-3.9388,-3.9388,-3.9388,-3.9388,-3.9388,-3.9388,-3.9388,-3.9388,-3.9388,-3.9388,-3.9388,-3.9388,-3.9388,-3.9388,-3.9388,-3.9388,-3.9388,-3.9388,-3.9388,-3.9275,-3.8571,-3.7913,-3.727,-3.6641,-3.5998,-3.5504,-3.5504,-3.5504,-3.5392,-3.4968,-3.4902,-3.4802,-3.4448,-3.4414,-3.4414,-3.4414,-3.4414,-3.4414,-3.4414,-3.4298,-3.4076,-3.3716,-3.3217,-3.2598,-3.182,-3.0766,-3.0061,-2.9847,-2.9832,-2.9792,-2.9792,-2.9792,-2.9792,-2.9792,-2.9792,-2.9792,-2.9792,-3.0218,-3.0432,-3.0432,-3.0557,-3.111,-3.2039,-3.2152,-3.2528,-3.3124,-3.3124,-3.3124,-3.3124,-3.3124,-3.3124,-3.3124,-3.3124,-3.3124,-3.3124,-3.3124,-3.3124,-3.3124,-4.3598,-4.3598,-4.3598,-4.3598,-4.3598,-4.3598,-4.3598,-4.3598,-4.3598,-4.3598,-4.3598,-4.3462,-4.3143,-4.3113,-4.2617,-4.1425,-4.0524,-3.9818,-3.9424,-3.9388,-3.9388,-3.9388,-3.9388,-3.9388,-3.9388,-3.9388,-3.9388,-3.9388,-3.9388,-3.9388,-3.9388,-3.9388,-3.9388,-3.9388,-3.9388,-3.9388,-3.9388,-3.9388,-3.9388,-3.9388,-3.9388,-3.9388,-3.9388,-3.9388,-3.9388,-3.9388,-3.9388,-3.9388,-3.9388,-3.9388,-3.9388,-3.9388,-3.9388,-3.9388,-3.9388,-3.9388,-3.9388,-3.9298,-3.8975,-3.8392,-3.7793,-3.7479,-3.6686,-3.5893,-3.5579,-3.5504,-3.5392,-3.4968,-3.4902,-3.4802,-3.4448,-3.4414,-3.4414,-3.4414,-3.4414,-3.4414,-3.4414,-3.4414,-3.4293,-3.3931,-3.3626,-3.3037,-3.1946,-3.0998,-3.033,-3.0113,-2.9895,-2.9792,-2.9792,-2.9792,-2.9792,-2.9792,-2.9792,-2.9917,-3.0181,-3.047,-3.0871,-3.1373,-3.1373,-3.1675,-3.2227,-3.2503,-3.2792,-3.3124,-3.3124,-3.3124,-3.3124,-3.3124,-3.3124,-3.3124,-3.3124,-3.3124,-3.3124,-3.3124,-3.3124,-3.3124,-4.3598,-4.3598,-4.3598,-4.3598,-4.3598,-4.3598,-4.3598,-4.3598,-4.3598,-4.3598,-4.3598,-4.3462,-4.3143,-4.2943,-4.2365,-4.1109,-4.0385,-3.9818,-3.9424,-3.9388,-3.9388,-3.9388,-3.9388,-3.9388,-3.9388,-3.9388,-3.9388,-3.9388,-3.9388,-3.9388,-3.9388,-3.9388,-3.9388,-3.9388,-3.9388,-3.9388,-3.9388,-3.9388,-3.9388,-3.9388,-3.9388,-3.9388,-3.9388,-3.9388,-3.9388,-3.9388,-3.9388,-3.9388,-3.9388,-3.9388,-3.9388,-3.9388,-3.9388,-3.9388,-3.9388,-3.9388,-3.9388,-3.9388,-3.9388,-3.8916,-3.8392,-3.8392,-3.7509,-3.6477,-3.5818,-3.5594,-3.5392,-3.4968,-3.4902,-3.4802,-3.4448,-3.4414,-3.4414,-3.4414,-3.4414,-3.4414,-3.4414,-3.4414,-3.4293,-3.3931,-3.357,-3.2909,-3.174,-3.0885,-3.033,-3.0152,-2.9934,-2.9792,-2.9792,-2.9792,-2.9792,-2.9792,-2.9792,-3.0055,-3.0608,-3.0708,-3.1235,-3.2215,-3.2315,-3.2353,-3.2378,-3.2855,-3.3124,-3.3124,-3.3124,-3.3124,-3.3124,-3.3124,-3.3124,-3.3124,-3.3124,-3.3124,-3.3124,-3.3124,-3.3124,-3.3124,-4.3598,-4.3598,-4.3598,-4.3598,-4.3598,-4.3598,-4.3598,-4.3598,-4.3598,-4.3598,-4.3598,-4.3462,-4.3143,-4.2317,-4.1606,-4.1042,-4.0385,-3.9818,-3.9424,-3.9388,-3.9388,-3.9388,-3.9388,-3.9388,-3.9388,-3.9388,-3.9388,-3.9388,-3.9388,-3.9388,-3.9388,-3.9388,-3.9388,-3.9388,-3.9388,-3.9388,-3.9388,-3.9388,-3.9388,-3.9388,-3.9388,-3.9388,-3.9388,-3.9388,-3.9388,-3.9388,-3.9388,-3.9388,-3.9388,-3.9388,-3.9388,-3.9388,-3.9388,-3.9388,-3.9388,-3.9388,-3.9388,-3.9388,-3.9388,-3.8916,-3.8392,-3.8392,-3.7823,-3.712,-3.6492,-3.5908,-3.5392,-3.4968,-3.4902,-3.4802,-3.4448,-3.4414,-3.4414,-3.4414,-3.4414,-3.4414,-3.4414,-3.4414,-3.4293,-3.3931,-3.2931,-3.2178,-3.1877,-3.0973,-3.0406,-3.0368,-3.0011,-2.9792,-2.9792,-2.9792,-2.9792,-2.9792,-2.9792,-3.0055,-3.0608,-3.106,-3.1599,-3.2227,-3.2717,-3.2998,-3.2968,-3.3043,-3.3124,-3.3124,-3.3124,-3.3124,-3.3124,-3.3124,-3.3124,-3.3124,-3.3124,-3.3124,-3.3124,-3.3124,-3.3124,-3.3124,-4.3598,-4.3598,-4.3598,-4.3598,-4.3598,-4.3598,-4.3598,-4.3598,-4.3598,-4.3598,-4.3598,-4.3462,-4.3143,-4.219,-4.1423,-4.0938,-4.0316,-3.9818,-3.9424,-3.9388,-3.9388,-3.9388,-3.9388,-3.9388,-3.9388,-3.9388,-3.9388,-3.9388,-3.9388,-3.9388,-3.9388,-3.9388,-3.9388,-3.9388,-3.9388,-3.9388,-3.9388,-3.9388,-3.9388,-3.9388,-3.9388,-3.9388,-3.9388,-3.9388,-3.9388,-3.9388,-3.9388,-3.9388,-3.9388,-3.9388,-3.9388,-3.9388,-3.9388,-3.9388,-3.9388,-3.9388,-3.9388,-3.9388,-3.9388,-3.92,-3.896,-3.896,-3.8452,-3.7883,-3.7614,-3.6776,-3.5839,-3.5042,-3.4902,-3.4802,-3.4448,-3.4414,-3.4414,-3.4414,-3.4414,-3.4414,-3.4414,-3.4414,-3.4293,-3.3931,-3.2824,-3.2069,-3.2009,-3.1035,-3.0406,-3.0406,-3.0049,-2.9792,-2.9792,-2.9792,-2.9792,-2.9792,-3.0093,-3.0507,-3.1047,-3.1587,-3.2139,-3.2704,-3.2955,-3.3124,-3.3124,-3.3124,-3.3124,-3.3124,-3.3124,-3.3124,-3.3124,-3.3124,-3.3124,-3.3124,-3.3124,-3.3124,-3.3124,-3.3124,-3.3124,-3.3124]},{"header":{"parameterUnit":"m.s-1","parameterCategory":1,"la1":30.6,"la2":28.766,"lo1":-90.7593,"lo2":-88.6598,"dy":0.0162,"dx":0.0183,"nx":116,"ny":114,"refTime":"2024-05-27T12:00:00:Z","depth":0,"parameterNumber":3,"parameterNumberName":"V-component_of_WINDS"},"data":[0.0,0.0,0.0,0.0,0.0,0.0,0.0,0.0,0.0,0.0,0.0,0.0,0.0,0.0,0.0,0.0,0.0,0.0,0.0,0.0,0.0,0.0,0.0,0.0,0.0,0.0,0.0,0.0,0.0,0.0,0.0,0.0,0.0,0.0,0.0,0.0,0.0,0.0,0.0,0.0,0.0,0.0,0.0,0.0,0.0,0.0,0.0,0.0,0.0,0.0,0.0,0.0,0.0,0.0,0.0,0.0,0.0,0.0,0.0,0.0,0.0,0.0,0.0,0.0,0.0,0.0,0.0,0.0,0.0,0.0,0.0,0.0,0.0,0.0,0.0,0.0,0.0,0.0,0.0,0.0,0.0,0.0,0.0,0.0,0.0,0.0,0.0,0.0,0.0,0.0,0.0,0.0,0.0,0.0,0.0,0.0,0.0,0.0,0.0,0.0,0.0,0.0,0.0,0.0,0.0,0.0,0.0,0.0,0.0,0.0,0.0,0.0,0.0,0.0,0.0,0.0,0.0,0.0,0.0,0.0,0.0,0.0,0.0,0.0,0.0,0.0,0.0,0.0,0.0,0.0,0.0,0.0,0.0,0.0,0.0,0.0,0.0,0.0,0.0,0.0,0.0,0.0,0.0,0.0,0.0,0.0,0.0,0.0,0.0,0.0,0.0,0.0,0.0,0.0,0.0,0.0,0.0,0.0,0.0,0.0,0.0,0.0,0.0,0.0,0.0,0.0,0.0,0.0,0.0,0.0,0.0,0.0,0.0,0.0,0.0,0.0,0.0,0.0,0.0,0.0,0.0,0.0,0.0,0.0,0.0,0.0,0.0,0.0,0.0,0.0,0.0,0.0,0.0,0.0,0.0,0.0,0.0,0.0,0.0,0.0,0.0,0.0,0.0,0.0,0.0,0.0,0.0,0.0,0.0,0.0,0.0,0.0,0.0,0.0,0.0,0.0,0.0,0.0,0.0,0.0,0.0,0.0,0.0,0.0,0.0,0.0,0.0,0.0,0.0,0.0,0.0,0.0,0.0,0.0,0.0,0.0,0.0,0.0,0.0,0.0,0.0,0.0,0.0,0.0,0.0,0.0,0.0,0.0,0.0,0.0,0.0,0.0,0.0,0.0,0.0,0.0,0.0,0.0,0.0,0.0,0.0,0.0,0.0,0.0,0.0,0.0,0.0,0.0,0.0,0.0,0.0,0.0,0.0,0.0,0.0,0.0,0.0,0.0,0.0,0.0,0.0,0.0,0.0,0.0,0.0,0.0,0.0,0.0,0.0,0.0,0.0,0.0,0.0,0.0,0.0,0.0,0.0,0.0,0.0,0.0,0.0,0.0,0.0,0.0,0.0,0.0,0.0,0.0,0.0,0.0,0.0,0.0,0.0,0.0,0.0,0.0,0.0,0.0,0.0,0.0,0.0,0.0,0.0,0.0,0.0,0.0,0.0,0.0,0.0,0.0,0.0,0.0,0.0,0.0,0.0,0.0,0.0,0.0,0.0,0.0,0.0,0.0,0.0,0.0,0.0,0.0,0.0,0.0,0.0,0.0,0.0,0.0,0.0,0.0,0.0,0.0,0.0,0.0,0.0,0.0,0.0,0.0,0.0,0.0,0.0,0.0,0.0,0.0,0.0,0.0,0.0,0.0,0.0,0.0,0.0,0.0,0.0,0.0,0.0,0.0,0.0,0.0,0.0,0.0,0.0,0.0,0.0,0.0,0.0,0.0,0.0,0.0,0.0,0.0,0.0,0.0,0.0,0.0,0.0,0.0,0.0,0.0,0.0,0.0,0.0,0.0,0.0,0.0,0.0,0.0,0.0,0.0,0.0,0.0,0.0,0.0,0.0,0.0,0.0,0.0,0.0,0.0,0.0,0.0,0.0,0.0,0.0,0.0,0.0,0.0,0.0,0.0,0.0,0.0,0.0,0.0,0.0,0.0,0.0,0.0,0.0,0.0,0.0,0.0,0.0,0.0,0.0,0.0,0.0,0.0,0.0,0.0,0.0,0.0,0.0,0.0,0.0,0.0,0.0,0.0,0.0,0.0,0.0,0.0,0.0,0.0,0.0,0.0,0.0,0.0,0.0,0.0,0.0,0.0,0.0,0.0,0.0,0.0,0.0,0.0,0.0,0.0,0.0,0.0,0.0,0.0,0.0,0.0,0.0,0.0,0.0,0.0,0.0,0.0,0.0,0.0,0.0,0.0,0.0,0.0,0.0,0.0,0.0,0.0,0.0,0.0,0.0,0.0,0.0,0.0,0.0,0.0,0.0,0.0,0.0,0.0,0.0,0.0,0.0,0.0,0.0,0.0,0.0,0.0,0.0,0.0,0.0,0.0,0.0,0.0,0.0,0.0,0.0,0.0,0.0,0.0,0.0,0.0,0.0,0.0,0.0,0.0,0.0,0.0,0.0,0.0,0.0,0.0,0.0,0.0,0.0,0.0,0.0,0.0,0.0,0.0,0.0,0.0,0.0,0.0,0.0,0.0,0.0,0.0,0.0,0.0,0.0,0.0,0.0,0.0,0.0,0.0,0.0,0.0,0.0,0.0,0.0,0.0,0.0,0.0,0.0,0.0,0.0,0.0,0.0,0.0,0.0,0.0,0.0,0.0,0.0,0.0,0.0,0.0,0.0,0.0,0.0,0.0,0.0,0.0,0.0,0.0,0.0,0.0,0.0,0.0,0.0,0.0,0.0,0.0,0.0,0.0,0.0,0.0,0.0,0.0,0.0,0.0,0.0,0.0,0.0,0.0,0.0,0.0,0.0,0.0,0.0,0.0,0.0,0.0,0.0,0.0,0.0,0.0,0.0,0.0,0.0,0.0,0.0,0.0,0.0,0.0,0.0,0.0,0.0,0.0,0.0,0.0,0.0,0.0,0.0,0.0,0.0,0.0,0.0,0.0,0.0,0.0,0.0,0.0,0.0,0.0,0.0,0.0,0.0,0.0,0.0,0.0,0.0,0.0,0.0,0.0,0.0,0.0,0.0,0.0,0.0,0.0,0.0,0.0,0.0,0.0,0.0,0.0,0.0,0.0,0.0,0.0,0.0,0.0,0.0,0.0,0.0,0.0,0.0,0.0,0.0,0.0,0.0,0.0,0.0,0.0,0.0,0.0,0.0,0.0,0.0,0.0,0.0,0.0,0.0,0.0,0.0,0.0,0.0,0.0,0.0,0.0,0.0,0.0,0.0,0.0,0.0,0.0,0.0,0.0,0.0,0.0,0.0,0.0,0.0,0.0,0.0,0.0,0.0,0.0,0.0,0.0,0.0,0.0,0.0,0.0,0.0,0.0,0.0,0.0,0.0,0.0,0.0,0.0,0.0,0.0,0.0,0.0,0.0,0.0,0.0,0.0,0.0,0.0,0.0,0.0,0.0,0.0,0.0,0.0,0.0,0.0,0.0,0.0,0.0,0.0,0.0,0.0,0.0,0.0,0.0,0.0,0.0,0.0,0.0,0.0,0.0,0.0,0.0,0.0,0.0,0.0,0.0,0.0,0.0,0.0,0.0,0.0,0.0,0.0,0.0,0.0,0.0,0.0,0.0,0.0,0.0,0.0,0.0,0.0,0.0,0.0,0.0,0.0,0.0,0.0,0.0,0.0,0.0,0.0,0.0,0.0,0.0,0.0,0.0,0.0,0.0,0.0,0.0,0.0,0.0,0.0,0.0,0.0,0.0,0.0,0.0,0.0,0.0,0.0,0.0,0.0,0.0,0.0,0.0,0.0,0.0,0.0,0.0,0.0,0.0,0.0,0.0,0.0,0.0,0.0,0.0,0.0,0.0,0.0,0.0,0.0,0.0,0.0,0.0,0.0,0.0,0.0,0.0,0.0,0.0,0.0,0.0,0.0,0.0,0.0,0.0,0.0,0.0,0.0,0.0,0.0,0.0,0.0,0.0,0.0,0.0,0.0,0.0,0.0,0.0,0.0,0.0,0.0,0.0,0.0,0.0,0.0,0.0,0.0,0.0,0.0,0.0,0.0,0.0,0.0,0.0,0.0,0.0,0.0,0.0,0.0,0.0,0.0,0.0,0.0,0.0,0.0,0.0,0.0,0.0,0.0,0.0,0.0,0.0,0.0,0.0,0.0,0.0,0.0,0.0,0.0,0.0,0.0,0.0,0.0,0.0,0.0,0.0,0.0,0.0,0.0,0.0,0.0,0.0,0.0,0.0,0.0,0.0,0.0,0.0,0.0,0.0,0.0,0.0,0.0,0.0,0.0,0.0,0.0,0.0,0.0,0.0,0.0,0.0,0.0,0.0,0.0,0.0,0.0,0.0,0.0,0.0,0.0,0.0,0.0,0.0,0.0,0.0,0.0,0.0,0.0,0.0,0.0,0.0,0.0,0.0,0.0,0.0,0.0,0.0,0.0,0.0,0.0,0.0,0.0,0.0,0.0,0.0,0.0,0.0,0.0,0.0,0.0,0.0,0.0,0.0,0.0,0.0,0.0,0.0,0.0,0.0,0.0,0.0,0.0,0.0,0.0,0.0,0.0,0.0,0.0,0.0,0.0,0.0,0.0,0.0,0.0,0.0,0.0,0.0,0.0,0.0,0.0,0.0,0.0,0.0,0.0,0.0,0.0,0.0,0.0,0.0,0.0,0.0,0.0,0.0,0.0,0.0,0.0,0.0,0.0,0.0,0.0,0.0,0.0,0.0,0.0,0.0,0.0,0.0,0.0,0.0,0.0,0.0,0.0,0.0,0.0,0.0,0.0,0.0,0.0,0.0,0.0,0.0,0.0,0.0,0.0,0.0,0.0,0.0,0.0,0.0,0.0,0.0,0.0,0.0,0.0,0.0,0.0,0.0,0.0,0.0,0.0,0.0,0.0,0.0,0.0,0.0,0.0,0.0,0.0,0.0,0.0,0.0,0.0,0.0,0.0,0.0,0.0,0.0,0.0,0.0,0.0,0.0,0.0,0.0,0.0,0.0,0.0,0.0,0.0,0.0,0.0,0.0,0.0,0.0,0.0,0.0,0.0,0.0,0.0,0.0,0.0,0.0,0.0,0.0,0.0,0.0,0.0,0.0,0.0,0.0,0.0,0.0,0.0,0.0,0.0,0.0,0.0,0.0,0.0,0.0,0.0,0.0,0.0,0.0,0.0,0.0,0.0,0.0,0.0,0.0,0.0,0.0,0.0,0.0,0.0,0.0,0.0,0.0,0.0,0.0,0.0,0.0,0.0,0.0,0.0,0.0,0.0,0.0,0.0,0.0,0.0,0.0,0.0,0.0,0.0,0.0,0.0,0.0,0.0,0.0,0.0,0.0,0.0,0.0,0.0,0.0,0.0,0.0,0.0,0.0,0.0,0.0,0.0,0.0,0.0,0.0,0.0,0.0,0.0,0.0,0.0,0.0,0.0,0.0,0.0,0.0,0.0,0.0,0.0,0.0,0.0,0.0,0.0,0.0,0.0,0.0,0.0,0.0,0.0,0.0,0.0,0.0,0.0,0.0,0.0,0.0,0.0,0.0,0.0,0.0,0.0,0.0,0.0,0.0,0.0,0.0,0.0,0.0,0.0,0.0,0.0,0.0,0.0,0.0,0.0,0.0,0.0,0.0,0.0,0.0,0.0,0.0,0.0,0.0,0.0,0.0,0.0,0.0,0.0,0.0,0.0,0.0,0.0,0.0,0.0,0.0,0.0,0.0,0.0,0.0,0.0,0.0,0.0,0.0,0.0,0.0,0.0,0.0,0.0,0.0,0.0,0.0,0.0,0.0,0.0,0.0,0.0,0.0,0.0,0.0,0.0,0.0,0.0,0.0,0.0,0.0,0.0,0.0,0.0,0.0,0.0,0.0,0.0,0.0,0.0,0.0,0.0,0.0,0.0,0.0,0.0,0.0,0.0,0.0,0.0,0.0,0.0,0.0,0.0,0.0,0.0,0.0,0.0,0.0,0.0,0.0,0.0,0.0,0.0,0.0,0.0,0.0,0.0,0.0,0.0,0.0,0.0,0.0,0.0,0.0,0.0,0.0,0.0,0.0,0.0,0.0,0.0,0.0,0.0,0.0,0.0,0.0,0.0,0.0,0.0,0.0,0.0,0.0,0.0,0.0,0.0,0.0,0.0,0.0,0.0,0.0,0.0,0.0,0.0,0.0,0.0,2.4981,0.0,0.0,0.0,0.0,0.0,0.0,0.0,0.0,0.0,0.0,0.0,0.0,0.0,0.0,0.0,0.0,0.0,0.0,0.0,0.0,0.0,0.0,0.0,0.0,1.6332,1.6584,1.6482,1.6877,1.7041,1.6735,0.0,0.0,0.0,0.0,0.0,1.4188,1.4181,1.4217,1.431,1.431,1.4165,1.3869,1.3244,1.2549,1.1818,0.0,0.0,0.0,0.0,0.0,0.0,0.0,0.0,0.0,0.0,0.0,0.0,0.0,0.0,0.0,0.0,0.0,0.0,0.0,0.0,0.0,0.0,0.0,0.0,0.0,0.0,0.0,0.0,0.0,0.0,0.0,0.0,0.0,0.0,0.0,0.0,0.0,0.0,0.0,0.0,0.0,0.0,0.0,0.0,0.0,0.0,0.0,0.0,0.0,0.0,0.0,0.0,0.0,0.0,0.0,0.0,0.0,0.0,0.0,0.0,0.0,0.0,0.0,0.0,0.0,0.0,0.0,0.0,0.0,0.0,0.0,2.5606,0.0,0.0,0.0,0.0,0.0,0.0,0.0,0.0,0.0,0.0,0.0,0.0,0.0,0.0,0.0,0.0,0.0,0.0,0.0,0.0,0.0,1.6751,1.6751,1.7252,1.7537,1.736,1.799,1.824,1.784,1.7302,0.0,0.0,0.0,1.5146,1.482,1.4848,1.4955,1.5117,1.5117,1.5037,1.4859,1.4653,1.4049,1.3069,1.2776,0.0,0.0,0.0,0.0,0.0,0.0,0.0,0.0,0.0,0.0,0.0,0.0,0.0,0.0,0.0,0.0,0.0,0.0,0.0,0.0,0.0,0.0,0.0,0.0,0.0,0.0,0.0,0.0,0.0,0.0,0.0,0.0,0.0,0.0,0.0,0.0,0.0,0.0,0.0,0.0,0.0,0.0,0.0,0.0,0.0,0.0,0.0,0.0,0.0,0.0,0.0,0.0,0.0,0.0,0.0,0.0,0.0,0.0,0.0,0.0,0.0,0.0,0.0,2.8174,2.8068,2.8079,2.7851,2.7899,2.8079,2.7277,2.7002,2.704,2.6562,0.0,0.0,0.0,0.0,0.0,0.0,0.0,0.0,0.0,0.0,0.0,0.0,0.0,0.0,0.0,0.0,0.0,0.0,0.0,1.7392,1.7392,1.7772,1.8009,1.7973,1.8536,1.8702,1.8246,1.7711,0.0,1.6805,1.6116,1.5708,1.5621,1.5806,1.5921,1.5956,1.607,1.6035,1.5912,1.57,1.5417,1.5062,1.4238,1.3876,1.3876,0.0,0.0,0.0,0.0,0.0,0.0,0.0,0.0,0.0,0.0,0.0,0.0,0.0,0.0,0.0,0.0,0.0,0.0,0.0,0.0,0.0,0.0,0.0,0.0,0.0,0.0,0.0,0.0,0.0,0.0,0.0,0.0,0.0,0.0,0.0,0.0,0.0,0.0,0.0,0.0,0.0,2.5834,2.6034,0.0,0.0,0.0,0.0,0.0,0.0,0.0,0.0,0.0,0.0,0.0,0.0,0.0,2.8892,2.9189,2.9698,2.9953,3.0002,2.9953,2.9953,2.9953,2.9905,3.0002,3.0196,3.033,0.0,2.7846,2.7505,0.0,0.0,0.0,0.0,0.0,0.0,0.0,0.0,0.0,0.0,0.0,0.0,0.0,0.0,0.0,0.0,0.0,0.0,0.0,0.0,0.0,1.8145,1.8325,1.8218,1.8699,1.8864,1.8535,1.8155,1.7805,1.7423,1.6991,1.6696,1.6577,1.6682,1.6821,1.6985,1.7044,1.7044,1.6985,1.6707,1.6542,1.6438,1.5912,1.5303,1.474,1.474,0.0,0.0,0.0,0.0,0.0,0.0,0.0,0.0,0.0,0.0,0.0,0.0,0.0,0.0,0.0,0.0,0.0,0.0,0.0,0.0,0.0,0.0,0.0,0.0,0.0,0.0,0.0,0.0,0.0,0.0,0.0,0.0,0.0,0.0,0.0,0.0,0.0,0.0,0.0,2.687,2.7321,2.7602,2.714,2.677,0.0,0.0,0.0,0.0,0.0,0.0,0.0,0.0,0.0,2.9639,2.9991,3.0448,3.0984,3.1258,3.1397,3.1529,3.1408,3.136,3.136,3.1205,3.1253,3.1515,3.1599,3.1242,3.0458,2.952,2.8798,2.8264,0.0,0.0,0.0,0.0,2.7631,2.7799,0.0,0.0,0.0,0.0,0.0,0.0,0.0,0.0,0.0,0.0,0.0,0.0,1.8008,1.8326,1.8477,1.8311,1.877,1.8959,1.8741,1.8567,1.8316,1.8024,1.7759,1.7589,1.7486,1.7579,1.775,1.8046,1.8046,1.8012,1.791,1.7638,1.751,1.7407,1.7245,1.6621,1.563,1.5586,1.548,1.533,0.0,0.0,0.0,0.0,0.0,0.0,0.0,0.0,0.0,0.0,0.0,0.0,0.0,0.0,0.0,0.0,0.0,0.0,0.0,0.0,0.0,0.0,0.0,0.0,0.0,0.0,0.0,0.0,0.0,0.0,0.0,0.0,0.0,0.0,0.0,0.0,0.0,2.8407,2.8787,2.9143,2.8735,2.8362,0.0,0.0,0.0,0.0,0.0,0.0,2.9132,2.9587,3.0238,3.129,3.1474,3.1878,3.2475,3.2615,3.2769,3.2888,3.2769,3.2685,3.2673,3.2458,3.2518,3.2685,3.2721,3.2805,3.2782,3.1236,3.0272,2.9719,2.8943,2.8524,2.8326,2.8571,2.8757,2.8943,0.0,0.0,0.0,0.0,0.0,0.0,0.0,0.0,0.0,0.0,0.0,1.8008,1.8008,1.8197,1.8299,1.8299,1.8854,1.9114,1.8913,1.8883,1.8793,1.8562,1.8183,1.8061,1.8236,1.8573,1.8808,1.9031,1.9031,1.8821,1.8476,1.8442,1.825,1.7974,1.794,1.7529,1.6795,1.6612,1.6533,1.6499,1.6167,0.0,0.0,0.0,0.0,0.0,0.0,0.0,0.0,0.0,0.0,0.0,0.0,0.0,0.0,0.0,0.0,0.0,0.0,0.0,0.0,0.0,0.0,0.0,0.0,0.0,0.0,0.0,0.0,0.0,0.0,0.0,0.0,0.0,0.0,0.0,0.0,0.0,0.0,3.0476,2.9852,0.0,0.0,0.0,0.0,2.8631,2.9349,2.9908,3.0214,3.1113,3.1838,3.2146,3.2827,3.3217,3.3217,3.3734,3.3993,3.4042,3.3993,3.3993,3.3993,3.3993,3.3993,3.3993,3.4227,3.4178,3.3876,3.2101,3.102,3.0461,2.9722,2.9255,2.9082,2.9347,2.9715,3.017,0.0,0.0,0.0,0.0,0.0,1.4317,1.562,1.6426,1.7173,1.7891,1.8008,1.8042,1.8178,1.8337,1.8472,1.8607,1.9008,1.9235,1.9168,1.9157,1.9113,1.9046,1.8903,1.9021,1.9441,1.9584,1.9748,1.9944,1.9813,1.9616,1.9396,1.9264,1.9065,1.8852,1.8741,1.8563,1.8293,1.7716,1.7442,1.7295,1.7192,1.7063,0.0,0.0,0.0,0.0,0.0,0.0,0.0,0.0,0.0,0.0,0.0,0.0,0.0,0.0,0.0,0.0,0.0,0.0,0.0,0.0,0.0,0.0,0.0,0.0,0.0,0.0,0.0,0.0,0.0,0.0,0.0,0.0,0.0,0.0,0.0,0.0,0.0,3.0826,3.0454,0.0,3.071,3.0421,3.0371,3.0676,3.1128,3.1569,3.1974,3.2458,3.3051,3.3585,3.387,3.4099,3.4245,3.4447,3.4543,3.4543,3.4543,3.4543,3.4543,3.4543,3.4543,3.4543,3.464,3.464,3.4471,3.347,3.2559,3.1786,3.1125,3.0652,3.0329,3.042,3.0556,3.0736,0.0,0.0,0.0,0.0,1.3312,1.4495,1.5638,1.6539,1.7326,1.7901,1.8076,1.8178,1.8347,1.8607,1.8865,1.9131,1.9441,1.9694,1.9737,1.9737,1.9737,1.9737,1.9802,1.9998,2.0366,2.0431,2.0528,2.0656,2.0528,2.041,2.0226,2.0031,1.9824,1.966,1.9528,1.9396,1.9341,1.8898,1.8576,1.8399,1.8331,1.8316,1.8348,0.0,0.0,0.0,0.0,0.0,0.0,0.0,0.0,0.0,0.0,0.0,0.0,0.0,0.0,0.0,0.0,0.0,0.0,0.0,0.0,0.0,0.0,0.0,0.0,0.0,0.0,0.0,0.0,0.0,0.0,0.0,0.0,0.0,0.0,0.0,3.1463,3.1463,3.1416,3.1461,3.1723,3.1681,3.1739,3.2029,3.238,3.2769,3.3144,3.3477,3.3919,3.4519,3.4531,3.4628,3.4775,3.4775,3.4775,3.4775,3.4775,3.4775,3.4775,3.4775,3.4775,3.4775,3.4775,3.4775,3.4751,3.4402,3.3696,3.2734,3.2063,3.1543,3.1107,3.1107,3.1151,3.1241,0.0,0.0,0.0,1.2197,1.3516,1.4813,1.5693,1.6773,1.7608,1.7949,1.8178,1.8337,1.8482,1.8988,1.9441,1.9781,2.0193,2.0495,2.0635,2.0635,2.0635,2.0635,2.0828,2.0935,2.0935,2.1126,2.1221,2.1221,2.1221,2.1126,2.0924,2.0732,2.056,2.0431,2.0226,2.0042,1.9966,2.0074,2.0037,1.9882,1.9634,1.9821,2.0232,0.0,0.0,0.0,0.0,0.0,0.0,0.0,0.0,0.0,0.0,0.0,0.0,0.0,0.0,0.0,0.0,0.0,0.0,0.0,0.0,0.0,0.0,0.0,0.0,0.0,0.0,0.0,0.0,0.0,0.0,0.0,0.0,0.0,3.2033,3.2245,3.24,3.2412,3.2665,3.2759,3.2581,3.2821,3.2852,3.2583,3.3053,3.3468,3.372,3.416,3.4531,3.4775,3.4775,3.4775,3.4775,3.4775,3.4775,3.4775,3.4775,3.4775,3.4775,3.4775,3.4775,3.4775,3.4775,3.4775,3.4775,3.4775,3.4234,3.326,3.2466,3.1782,3.1306,3.1306,3.1484,3.1705,0.0,0.0,1.1595,1.2561,1.3712,1.4867,1.5975,1.6908,1.7608,1.7949,1.8178,1.8405,1.8674,1.9287,1.9813,2.0194,2.0924,2.1368,2.14,2.1482,2.1534,2.1534,2.1608,2.1733,2.1975,2.1956,2.1956,2.208,2.1956,2.1769,2.1463,2.1431,2.1242,2.0999,2.0924,2.0871,2.0839,2.0871,2.1292,2.1822,2.0879,2.0814,2.1223,0.0,0.0,0.0,0.0,0.0,0.0,0.0,0.0,0.0,0.0,0.0,0.0,0.0,0.0,0.0,0.0,0.0,0.0,0.0,0.0,0.0,0.0,0.0,0.0,0.0,0.0,0.0,0.0,0.0,0.0,0.0,0.0,3.255,3.2332,3.2344,3.2535,3.2929,3.3056,3.3358,3.4096,3.421,3.4313,3.4462,3.4571,3.4607,3.451,3.4605,3.4726,3.4775,3.4775,3.4775,3.4775,3.4775,3.4775,3.4775,3.4775,3.4775,3.4775,3.4775,3.4775,3.4775,3.4775,3.4775,3.4775,3.4775,3.439,3.373,3.3167,3.2388,3.1572,3.1572,3.1617,3.1705,0.0,1.087,1.1529,1.2493,1.355,1.4712,1.592,1.6804,1.7486,1.7828,1.8168,1.8506,1.8875,1.9584,2.0269,2.0775,2.1474,2.1987,2.2099,2.218,2.2242,2.2242,2.2242,2.2316,2.2525,2.2463,2.2463,2.2525,2.2463,2.2309,2.2111,2.2037,2.1882,2.1694,2.1643,2.1569,2.1494,2.1569,2.2177,2.2989,2.234,2.2309,2.2695,2.2695,2.2695,2.2695,2.2695,2.2695,2.2695,2.2695,0.0,0.0,0.0,0.0,0.0,0.0,0.0,0.0,0.0,0.0,0.0,0.0,0.0,0.0,0.0,0.0,0.0,0.0,0.0,0.0,0.0,0.0,0.0,0.0,3.2598,3.2897,3.3002,3.304,3.3151,3.3474,3.3908,3.4396,3.49,3.5159,3.5336,3.5343,3.5368,3.5417,3.5454,3.5356,3.5416,3.5633,3.5534,3.5376,3.516,3.516,3.5003,3.4775,3.4775,3.4775,3.4775,3.4775,3.4775,0.0,3.4775,3.4775,3.4775,3.4775,3.4462,0.0,0.0,0.0,0.0,0.0,3.1749,3.1849,0.0,1.0708,1.1333,1.2198,1.3261,1.4388,1.563,1.6558,1.727,1.7638,1.8158,1.865,1.9031,1.9879,2.0656,2.1325,2.1894,2.2371,2.2708,2.2739,2.2739,2.2739,2.2739,2.2739,2.2739,2.2739,2.2739,2.2739,2.2739,2.2739,2.2708,2.2543,2.2451,2.242,2.2309,2.2173,2.2013,2.2173,2.2767,2.3582,2.3703,2.3998,2.4334,2.4334,2.4334,2.4334,2.4334,2.4334,2.4334,2.4334,0.0,0.0,0.0,0.0,0.0,0.0,0.0,0.0,0.0,0.0,0.0,0.0,0.0,0.0,0.0,0.0,0.0,0.0,0.0,0.0,0.0,0.0,0.0,0.0,3.3089,3.3432,3.3922,3.4048,3.4085,3.4085,3.4906,3.544,3.5376,3.5777,3.5932,3.5755,3.5755,3.594,3.6481,0.0,0.0,0.0,0.0,3.6182,3.5713,3.5653,3.5376,3.4871,3.4811,3.4775,3.4775,3.4775,3.4775,3.4775,3.4775,3.4775,3.4775,3.4775,3.4438,3.385,3.3404,3.2875,3.2346,3.1886,3.1849,3.2038,0.0,1.049,1.1324,1.2358,1.3301,1.4366,1.5739,1.6384,1.695,1.7604,1.8056,1.8539,1.9042,1.9879,2.0624,2.119,2.1925,2.2543,2.2987,2.3017,2.3017,2.3017,2.3017,2.3017,2.3017,2.3017,2.3017,2.3017,2.3017,2.2969,2.2848,2.2818,2.2739,2.2647,2.2616,2.2586,2.2555,2.2586,2.321,2.4157,2.4157,2.4556,2.5099,2.5099,2.5099,2.5099,2.5099,2.5099,2.5099,2.5099,2.5099,2.5171,2.5564,2.5695,0.0,0.0,0.0,0.0,0.0,0.0,0.0,0.0,0.0,0.0,0.0,0.0,0.0,0.0,0.0,0.0,0.0,0.0,0.0,3.3633,3.4066,3.4449,3.455,3.4906,3.5182,3.5182,3.537,3.5671,3.611,3.626,3.6403,3.6551,3.6576,3.6726,3.7084,3.7071,3.6958,3.6816,3.6765,3.6565,3.6254,3.5833,3.5569,3.5461,0.0,0.0,3.4775,3.4775,3.4775,3.4775,3.4775,3.4775,3.4775,3.4775,3.4282,3.338,3.2863,3.231,3.1862,3.193,3.1994,3.2069,0.9188,1.0168,1.1196,1.2364,1.3231,1.415,1.5421,1.6079,1.6647,1.7235,1.7794,1.8303,1.8754,1.9573,2.0366,2.0999,2.1987,2.2665,2.3,2.3047,2.3108,2.3108,2.3108,2.3108,2.3108,2.3108,2.3108,2.3108,2.3108,2.3078,2.3,2.3317,2.3424,2.3344,2.3617,2.3741,2.3741,2.3741,2.4213,2.4946,2.4946,2.533,2.5886,2.5676,2.5606,2.5606,2.5606,2.5606,2.5606,2.5606,2.5788,2.6056,2.6323,2.6578,2.6871,0.0,0.0,0.0,0.0,0.0,0.0,0.0,0.0,0.0,0.0,0.0,0.0,0.0,0.0,3.3056,0.0,0.0,3.4311,3.4311,3.455,3.4768,3.5044,3.532,3.5495,3.5495,3.5793,3.6056,3.638,3.6656,3.6837,3.7016,3.7242,3.7592,3.8066,3.7927,3.7899,3.803,3.7876,3.7599,3.7241,3.6974,3.651,3.5815,3.5562,3.5198,3.4775,3.4775,3.4775,3.4775,3.4775,3.4775,3.4775,3.4775,3.4222,3.326,3.2996,3.2394,3.1705,3.195,3.2157,3.2463,0.8578,0.9705,1.0868,1.2108,1.2975,1.3807,1.4871,1.5594,1.6202,1.6735,1.7358,1.793,1.8375,1.9177,2.0009,2.086,2.1913,2.2653,2.2936,2.3119,2.321,2.321,2.324,2.3221,2.3108,2.3108,2.3158,2.3271,2.3271,2.3333,2.3446,2.3941,2.4155,2.418,2.4619,2.4788,2.4788,2.4788,2.5121,2.5598,2.5598,2.5971,2.6452,2.6154,2.6015,2.6015,2.6015,2.6015,2.6015,2.6015,2.6299,2.6694,2.6916,2.7261,2.7668,2.7879,2.8399,0.0,0.0,0.0,0.0,0.0,0.0,0.0,0.0,3.2064,3.2403,3.2516,3.3269,3.3935,3.4035,3.4512,3.4876,3.4876,3.4964,3.5203,3.5596,3.5658,3.5658,3.5658,3.6094,3.6455,3.6556,3.6971,3.7274,3.75,3.7927,3.8429,3.8994,3.8803,3.8837,3.9297,3.905,3.8696,3.8226,3.8128,3.7461,3.6221,3.6148,3.566,3.4884,3.4823,3.4775,3.4775,3.4775,3.4775,3.4775,3.4775,3.4222,3.3284,3.3331,3.2714,3.1805,3.2025,3.2419,3.2927,0.0,0.9051,1.0139,1.1459,1.241,1.3288,1.4266,1.476,1.5374,1.6237,1.676,1.727,1.7969,1.8721,1.9682,2.0976,2.1639,2.2311,2.3121,2.3441,2.3629,2.3629,2.3798,2.3665,2.3108,2.3108,2.3358,2.3904,2.3904,2.4155,2.46,2.4662,2.47,2.47,2.4763,2.4788,2.4788,2.4788,2.5121,2.5598,2.5598,2.5971,2.6499,2.6465,2.643,2.643,2.643,2.643,2.643,2.643,2.6468,2.6694,2.7635,2.7974,2.8224,2.9264,2.9602,2.9704,2.9704,3.0066,3.0771,3.1788,3.2077,3.2252,0.0,3.2973,3.3119,3.3608,3.3809,3.4048,3.4537,3.5044,3.5408,3.5408,3.5868,3.6241,3.6304,3.6317,3.6317,3.6317,3.6367,3.6606,3.7048,3.7149,3.76,3.8605,3.8793,3.9019,3.9572,3.9545,3.9467,3.931,3.9258,3.9077,3.8703,3.83,3.7759,3.7032,3.643,3.577,3.5126,3.4932,3.4775,3.4775,3.4775,3.4775,3.4775,3.4775,3.4222,3.3331,3.3504,3.2929,3.2038,3.2463,3.2927,3.3441,0.0,0.8322,0.9275,1.0404,1.1704,1.2849,1.368,1.4222,1.4804,1.5559,1.6088,1.6647,1.7304,1.8385,1.9485,2.042,2.1092,2.1799,2.2694,2.3147,2.3548,2.3867,2.404,2.3981,2.3746,2.3746,2.3857,2.4124,2.4124,2.4216,2.4439,2.4806,2.4967,2.4979,2.5301,2.5611,2.5908,2.6034,2.6392,2.6891,2.702,2.7205,2.7381,2.709,2.6977,2.6927,2.6612,2.6499,0.0,2.6499,2.6713,2.7115,2.7858,2.8323,2.875,2.9553,2.9792,2.9867,3.0181,3.0658,3.1248,3.2026,3.2466,3.278,3.3018,3.3319,3.3621,3.3847,3.4412,3.4881,3.5107,3.5655,3.6019,0.0,3.6267,3.6405,3.6405,3.6405,3.6405,3.6405,3.6694,3.6923,3.7161,3.7475,3.8002,3.8856,3.917,3.9446,3.9685,3.9697,3.9645,3.953,3.953,3.9478,3.9322,3.915,3.8488,3.7456,3.7134,3.6333,3.5223,3.5078,3.4932,3.4775,3.4775,3.4775,3.4775,3.4775,3.4222,3.3331,3.3504,3.3109,3.2463,3.2927,3.3386,3.3882,0.0,0.7718,0.8529,0.9394,1.0663,1.1922,1.2989,1.3579,1.4158,1.4812,1.5303,1.5903,1.6726,1.791,1.8911,1.9606,2.0412,2.1256,2.2109,2.2834,2.3457,2.3874,2.4087,2.4147,2.4067,2.4054,2.4128,2.4286,2.4366,2.4478,2.4636,2.516,2.5449,2.5496,2.5885,2.6298,2.6749,2.6954,2.7298,2.7681,2.7926,2.8,2.7999,2.767,2.7507,2.7419,2.6751,2.6499,2.6499,2.6499,2.6763,2.7216,2.7883,2.8386,2.885,2.9578,2.9792,2.9942,3.0633,3.1097,3.1562,3.2265,3.2767,3.3124,3.3124,3.3382,3.3759,3.406,3.4718,3.537,3.5717,3.6094,3.6405,3.6405,3.6405,3.6405,3.6405,3.6405,3.6405,3.6405,3.6895,3.7249,3.74,3.7914,3.8479,3.9057,3.9471,3.9697,3.9697,3.9697,3.9697,3.9697,3.9697,3.9697,3.9697,3.9546,3.8867,3.7693,3.7494,3.6689,3.5428,3.5271,3.5078,3.4775,3.4775,3.4775,3.4775,3.4775,3.4222,3.3331,3.3596,3.3322,3.2884,3.3513,3.3966,3.4413,0.0,0.0,0.8003,0.8623,0.9273,1.0293,1.2077,1.2673,1.3222,1.4021,1.4418,1.5133,1.6464,1.7104,1.7745,1.8465,1.964,2.0696,2.1563,2.2727,2.3467,2.3607,2.3978,2.405,2.3703,2.3737,2.3989,2.4494,2.4754,2.5123,2.5668,2.6026,2.6262,2.6477,2.6489,2.6588,2.68,2.7062,2.7186,2.7236,2.7644,2.7804,2.7841,2.8024,2.8084,2.7946,2.6889,2.6499,2.6499,2.6499,2.6499,2.6713,2.7758,2.8109,2.8348,2.9465,2.9792,3.0018,3.1085,3.1386,3.1662,3.2767,3.3111,3.3124,3.3124,3.3093,3.3407,3.4474,3.468,3.5077,3.6179,3.6405,3.6405,3.6405,3.6405,3.6405,3.6405,3.6405,3.6405,3.6405,3.6895,3.74,0.0,3.8504,3.9082,3.9634,3.9685,3.9697,3.9697,3.9697,3.9697,3.9697,3.9697,3.9697,3.9697,3.917,3.8592,3.8002,3.7206,3.6525,3.5968,3.5416,3.5078,3.4775,3.4775,3.4775,3.4775,3.4775,3.4222,3.3331,3.3827,3.3591,3.3116,3.4259,3.4812,3.5154,0.0,0.0,0.0,0.8012,0.8475,0.9198,1.0325,1.1298,1.2187,1.3003,1.3876,0.0,0.0,0.0,0.0,0.0,1.83,1.9249,2.0394,2.1303,2.2169,2.2988,2.3397,2.3618,2.3625,2.3625,2.3877,2.4356,2.4443,2.4736,2.5153,2.5297,2.5376,2.5442,2.5442,2.5753,2.6359,2.6566,2.7027,2.7659,2.8086,2.8319,2.8464,2.8437,2.8413,2.8363,0.0,2.7318,2.704,2.704,2.704,2.7241,2.8298,2.8612,2.8762,2.9566,2.9792,3.003,3.1097,3.1386,3.1662,3.2847,3.3124,3.3124,3.3124,3.3357,3.3834,3.4575,3.4969,3.5445,3.6279,3.6405,3.6531,3.6895,3.6958,3.7036,3.74,3.745,3.745,3.745,3.7952,0.0,0.0,0.0,0.0,3.9647,3.9697,3.9697,3.9697,3.9697,3.9697,3.9697,3.9697,3.9697,3.9697,3.9145,3.858,3.8002,3.6796,3.6177,3.5968,3.5416,3.5126,3.5078,3.4884,3.4775,3.4775,3.4775,3.4305,3.355,3.4044,3.389,3.3586,3.4605,3.5372,3.5964,0.0,0.0,0.0,0.0,0.0,0.0,0.0,0.0,0.0,0.0,0.0,0.0,0.0,0.0,0.0,0.0,0.0,1.796,1.8981,1.9895,2.0859,2.1855,2.2408,2.2793,2.3065,2.3139,2.3392,2.3837,2.3946,2.4224,2.4621,2.4704,2.4821,2.4912,2.4912,2.5249,2.5884,2.6127,2.6632,2.7366,2.7926,2.8327,2.8609,2.8648,2.8782,0.0,2.8437,2.8086,2.7846,2.7645,2.7582,2.7733,2.8599,2.9026,2.9315,2.9679,2.9792,3.003,3.1097,3.1386,3.1662,3.2847,3.3124,3.3124,3.3124,3.3357,3.3759,3.4311,3.4818,3.537,3.5968,3.6267,3.6593,3.7098,3.7186,3.7374,3.7927,3.8002,3.8002,3.8002,3.8517,3.8919,0.0,0.0,0.0,3.9672,3.9697,3.9697,3.9697,3.9697,3.9697,3.9697,3.9697,3.9597,3.9396,3.8843,3.8178,3.7412,3.6566,3.6098,3.5968,3.562,3.5368,3.5175,3.503,3.4872,3.4775,3.4775,3.4353,3.363,3.4123,3.4111,3.3937,3.4867,3.5736,3.648,0.0,0.0,0.0,0.0,0.0,0.0,0.0,0.0,0.0,0.0,0.0,0.0,0.0,0.0,0.0,0.0,0.0,0.0,1.7411,1.86,1.9602,2.0362,2.1019,2.1565,2.1983,2.2193,2.2484,2.2921,2.3276,2.3616,2.4054,2.4302,2.4584,2.4818,2.4818,2.5031,2.5454,2.5695,2.606,2.6487,2.7144,2.7684,2.8167,2.8566,2.8988,2.9266,2.8796,2.8762,2.885,2.8335,2.816,2.8285,2.8775,2.9352,2.9792,2.9792,2.9792,3.003,3.1097,3.1386,3.1662,3.2847,3.3124,3.3124,3.3124,3.3124,3.3232,3.3784,3.4311,3.4806,3.5395,3.5968,3.6568,3.7123,3.7224,3.7425,3.8015,3.809,3.809,0.0,0.0,0.0,0.0,0.0,0.0,3.9609,0.0,3.9697,3.9697,3.9697,3.9697,3.9697,3.9672,3.9396,3.8881,3.8266,3.7425,3.6405,3.6405,3.6275,3.6015,3.6015,3.5716,3.5223,3.5223,3.5078,3.4775,3.4775,3.4353,3.3676,3.4123,3.4243,3.4202,3.51,3.5951,3.6744,0.0,0.0,0.0,0.0,0.0,0.0,0.0,0.0,0.0,0.0,0.0,0.0,0.0,0.0,0.0,0.0,0.0,0.0,1.6493,1.7264,1.8057,1.8833,1.9374,1.9894,2.044,2.0653,2.1233,2.2159,2.2279,2.2655,2.3368,2.3424,2.3614,2.3841,2.3841,2.41,2.454,2.4615,2.4988,2.5569,2.5863,2.6404,2.6981,2.7592,2.8127,2.8554,2.8685,2.8987,2.921,2.8825,2.9001,2.939,2.9528,2.9679,2.9792,2.9792,2.9792,3.003,3.1097,3.1386,3.1662,3.2847,3.3124,3.3124,3.3124,3.3124,3.3232,3.3784,3.401,3.4399,3.532,3.5621,3.6207,3.7575,3.7801,0.0,3.9132,3.927,0.0,3.927,3.9032,3.8919,3.8919,3.8605,0.0,0.0,3.922,3.9697,3.9697,3.9697,3.9697,3.9697,3.9295,3.9057,3.8919,3.7889,3.7048,3.6405,3.6405,3.6358,3.6275,3.6098,3.5824,3.5464,3.5271,3.5078,3.4775,3.4775,3.4448,3.3952,3.4384,3.445,3.4439,3.5304,3.6191,3.6978,0.0,0.0,0.0,0.0,0.0,0.0,0.0,0.0,0.0,0.0,0.0,0.0,0.0,0.0,0.0,0.0,0.0,0.0,0.0,1.5991,1.6613,1.7447,1.7997,1.8559,1.9067,1.945,2.0094,2.0898,2.117,2.1598,2.2254,2.2444,2.2618,2.2891,2.2891,2.3154,2.359,2.3677,2.4057,0.0,0.0,2.5485,2.6135,2.6941,2.7642,2.8292,2.8814,2.9415,2.9942,2.9882,2.9839,2.9792,2.9792,2.9955,3.0156,3.0156,3.0319,3.067,3.1524,3.175,3.1964,3.2855,3.3124,3.3124,3.3124,3.3124,3.3212,3.347,3.3734,3.4161,3.4981,3.5332,3.6047,3.7739,3.8002,0.0,3.9534,3.9697,3.9697,0.0,3.9207,0.0,3.8919,3.8341,3.8002,0.0,3.8592,3.8956,3.8956,3.8956,3.8956,3.8956,3.8655,3.8379,3.814,3.731,3.6719,3.6405,3.6405,3.6405,3.6405,3.6228,3.6051,3.5764,0.0,3.5223,3.4981,3.4981,3.4591,3.4044,3.4565,3.4625,3.4522,3.5386,3.623,3.707,0.0,0.0,0.0,0.0,0.0,0.0,0.0,0.0,0.0,0.0,0.0,0.0,0.0,0.0,0.0,0.0,0.0,0.0,0.0,0.0,1.5427,1.618,1.6837,1.7359,1.7796,1.8416,1.8967,1.9454,1.997,2.0494,2.1034,2.1345,2.1642,2.1963,2.1963,2.222,2.2715,2.2882,2.3222,2.3711,2.4166,2.4754,2.5455,0.0,2.7301,2.8188,2.8978,2.9821,3.0616,3.096,3.0583,3.0005,3.0005,3.0331,3.0721,3.0721,3.1035,3.1512,3.2064,3.2215,3.2353,3.293,3.3124,3.3124,3.3124,3.3124,3.3124,3.3124,3.3458,3.3985,3.4613,3.5069,3.5922,3.7626,3.7952,3.8379,3.9433,3.9647,3.9697,3.9697,3.9145,3.8755,3.8755,3.8165,3.7789,3.7789,3.7789,3.7852,3.8002,3.8002,3.7977,3.7902,3.7902,3.7638,3.7073,3.6644,3.6405,3.6405,3.6405,3.6405,3.6405,3.6405,3.6228,3.5968,3.5764,0.0,3.5271,3.5271,3.478,3.4135,3.4791,3.4812,3.4605,3.5426,3.627,3.7109,0.0,0.0,0.0,0.0,0.0,0.0,0.0,0.0,0.0,0.0,0.9105,1.0105,0.0,0.0,0.0,0.0,0.0,0.0,0.0,0.0,0.0,1.5291,1.5775,1.6221,1.6673,1.7123,1.778,1.8674,1.8784,1.9286,2.0118,2.0187,2.0583,2.1177,2.1177,2.1588,2.223,2.2274,2.253,2.3013,2.3222,2.3877,2.4747,2.5467,0.0,0.0,2.8514,2.9343,2.9959,3.0575,3.0947,3.111,3.111,3.1185,3.1248,3.1248,3.1323,3.1512,3.2064,3.2215,3.2353,3.293,3.3124,3.3124,3.3124,3.3124,3.3124,3.3124,3.3156,3.3533,3.4537,3.4756,3.5403,3.7061,3.7713,3.8241,3.8919,3.9408,3.9697,0.0,3.8781,3.8153,3.8153,3.7249,0.0,0.0,0.0,3.7048,3.7952,3.8002,3.7801,3.7337,3.7324,3.7061,3.6556,3.6455,3.6405,3.6405,3.6405,3.6405,3.6405,3.6405,3.6228,3.6015,3.5968,0.0,3.5524,3.5524,3.5169,3.4623,3.5047,3.5146,3.5072,3.571,3.6508,3.7264,0.0,0.0,0.0,0.0,0.0,0.0,0.0,0.683,0.7141,0.751,0.8217,0.9133,1.0223,1.0668,1.1288,0.0,0.0,0.0,0.0,0.0,0.0,0.0,1.4866,1.5235,1.5699,1.6281,1.6822,1.7286,0.0,1.8297,1.8859,1.9029,1.9438,2.0048,2.0229,2.0546,2.0997,2.1356,2.1722,2.2141,2.2669,2.337,2.4242,0.0,0.0,0.0,2.8611,2.9425,3.0077,3.0762,3.1418,3.1871,3.1492,3.1587,3.1813,3.1813,3.2039,3.2328,3.2591,3.2667,3.2729,3.3048,3.3124,3.3124,3.3124,3.3124,3.3124,3.3124,3.3124,3.3319,3.4148,3.4525,3.5165,3.6581,3.7462,3.8203,3.8844,3.9346,3.9697,3.9697,3.8693,3.8002,3.8002,3.701,3.6405,3.6405,0.0,3.6631,3.7123,3.7149,3.7023,3.6807,3.6807,3.6681,3.6405,3.6405,3.6405,3.6405,3.6405,3.6405,3.6405,3.6405,3.6323,3.6193,3.6051,0.0,3.5787,3.5645,3.5269,3.4855,3.5172,3.527,3.5318,3.5937,3.6652,3.7341,0.0,0.0,0.0,0.0,0.0,0.0,0.0,0.6659,0.6855,0.7222,0.7551,0.8219,0.9318,0.9976,1.0679,0.0,0.0,0.0,0.0,0.0,0.0,0.0,0.0,1.4585,1.4979,0.0,0.0,1.6183,1.6862,0.0,0.0,0.0,0.0,0.0,1.9188,1.9446,1.9812,2.0447,2.0862,0.0,0.0,2.3023,0.0,0.0,0.0,0.0,0.0,2.9233,3.0023,3.0847,3.1617,3.2098,3.1776,3.201,3.239,3.239,3.2717,3.3124,3.3124,3.3124,3.3124,3.3124,3.3124,3.3124,3.3124,3.3124,3.3124,3.3124,3.3124,3.3244,3.3796,3.4349,3.5039,3.6019,3.7111,3.8027,3.8605,3.917,3.9521,3.9521,3.8617,0.0,3.7839,3.6983,0.0,3.6452,0.0,0.0,3.6417,3.6405,3.6405,3.6405,3.6405,3.6405,3.6405,3.6405,3.6405,3.6405,3.6405,3.6405,3.6405,3.6405,3.6405,3.6405,3.6193,0.0,0.0,3.5768,3.5522,3.5308,3.5383,3.5523,3.575,3.6243,3.6886,3.7457,0.0,0.0,0.0,0.0,0.0,0.0,0.0,0.6462,0.6569,0.6764,0.7126,0.7537,0.7943,0.8851,0.9777,0.0,0.0,0.0,0.0,0.0,0.0,0.0,0.0,0.0,0.0,0.0,0.0,1.6127,0.0,0.0,0.0,0.0,0.0,0.0,0.0,0.0,1.9271,1.9592,0.0,0.0,0.0,0.0,0.0,0.0,0.0,0.0,0.0,2.8222,2.9002,3.025,3.0982,3.1548,3.2327,3.2784,3.3006,3.3006,3.3074,3.3124,3.3124,3.3124,3.3124,3.3124,3.3124,3.3124,3.3124,3.3124,3.3124,3.3124,3.3124,3.3244,3.3796,3.4349,3.4868,3.547,3.6546,3.745,3.8015,3.858,3.8994,3.8994,0.0,0.0,3.7312,3.6887,3.6675,3.6675,0.0,0.0,3.6405,3.6405,3.6405,3.6405,3.6405,3.6405,3.6405,3.6405,3.6405,3.6405,3.6405,3.6405,3.6405,3.6405,3.6405,3.6405,3.6358,0.0,0.0,3.6276,3.6186,3.6249,3.6164,3.6321,3.6626,3.6861,3.7341,3.7853,0.0,0.0,0.0,0.0,0.0,0.0,0.63,0.6501,0.663,0.6692,0.6994,0.7332,0.7706,0.8084,0.884,1.0081,0.0,0.0,0.0,0.0,0.0,0.0,0.0,0.0,0.0,0.0,1.5633,1.5933,1.6116,0.0,0.0,0.0,0.0,0.0,0.0,0.0,0.0,0.0,0.0,0.0,0.0,0.0,0.0,0.0,0.0,0.0,0.0,0.0,2.8456,2.9566,3.0442,3.1217,3.2001,3.2537,3.2896,3.3038,3.3124,3.3124,3.3124,3.3124,3.3124,3.3124,3.3124,3.3124,3.3124,3.3124,3.3124,3.3124,3.3124,3.3187,3.337,3.4123,3.4756,3.4969,3.6257,3.7262,3.7475,3.8002,3.8354,3.8354,3.8012,0.0,0.0,0.0,3.7015,0.0,0.0,0.0,3.7268,3.6956,3.6828,3.6828,3.6675,3.6581,3.6581,3.6452,3.6405,3.6405,3.6405,3.6405,3.6405,3.6405,3.6405,3.6405,3.6405,0.0,0.0,3.5993,3.5991,3.609,3.6088,3.6411,3.69,3.7226,3.7586,3.7929,0.0,0.0,0.0,0.0,0.0,0.63,0.63,0.6512,0.6702,0.6702,0.6913,0.7241,0.7577,0.7724,0.8276,0.9518,1.0204,0.0,0.0,0.0,0.0,0.0,0.0,0.0,0.0,0.0,1.5758,1.5959,1.6253,1.6605,0.0,0.0,0.0,0.0,0.0,0.0,0.0,0.0,0.0,0.0,0.0,0.0,0.0,0.0,0.0,0.0,0.0,0.0,0.0,0.0,0.0,3.0746,3.1713,3.2264,3.268,3.2995,3.3124,3.3124,3.3124,3.3124,3.3124,3.3124,3.3124,3.3124,3.3124,3.3124,3.3124,3.3124,3.3124,3.3124,3.3124,3.3985,3.468,3.468,3.5968,3.6998,3.7161,3.7574,3.7862,3.7862,0.0,3.776,0.0,3.7539,3.7677,0.0,0.0,0.0,3.8232,3.7926,3.7572,3.7214,3.7062,3.6909,3.6815,3.6687,3.6593,3.6499,3.6499,3.6452,3.6405,3.6405,3.6405,3.6405,3.6194,0.0,0.0,3.5703,3.5755,3.6094,3.6183,3.6587,3.7226,3.7572,3.7815,3.7991,0.0,0.0,0.0,0.0,0.0,0.0,0.63,0.6512,0.6702,0.6702,0.6913,0.72,0.7398,0.7734,0.8266,0.8952,0.9519,0.0,0.0,0.0,0.0,0.0,0.0,0.0,0.0,0.0,1.6315,1.6266,1.656,1.67,1.6707,1.67,1.6857,0.0,0.0,0.0,0.0,0.0,0.0,0.0,0.0,0.0,0.0,0.0,0.0,0.0,0.0,0.0,0.0,0.0,0.0,0.0,0.0,3.2189,3.2475,3.2952,3.3124,3.3124,3.3124,3.3124,3.3124,3.3124,3.3124,3.3124,3.3124,3.3124,3.3124,3.3124,3.3124,3.3124,3.3124,3.3985,3.468,3.468,3.5642,3.6606,3.7111,3.744,3.7597,0.0,0.0,3.8092,3.757,3.8148,0.0,0.0,0.0,0.0,3.9292,3.9305,3.8724,3.7551,3.7505,3.7353,3.7108,3.7108,3.6968,3.6709,3.6709,3.6581,3.6405,3.6405,3.6405,0.0,0.0,0.0,0.0,3.5526,3.5756,3.6579,3.6664,3.707,3.7625,3.7815,3.8028,3.8202,0.0,0.0,0.0,0.0,0.0,0.0,0.0,0.6512,0.6702,0.6702,0.6913,0.7193,0.7499,0.7664,0.7984,0.8532,0.9464,0.0,0.0,0.0,0.0,0.0,0.0,0.0,0.0,0.0,1.6522,1.6924,1.7018,1.7159,1.7301,1.7152,1.7116,1.7154,0.0,0.0,0.0,0.0,0.0,0.0,0.0,0.0,0.0,0.0,0.0,0.0,0.0,0.0,0.0,0.0,0.0,0.0,0.0,0.0,0.0,3.2667,3.2939,3.3124,3.3124,3.3124,3.3124,3.3124,3.3124,3.3124,3.3124,3.3124,3.3124,3.3124,3.3124,3.3124,3.3124,3.3985,3.468,3.468,3.5642,3.6468,3.6644,3.6846,0.0,3.7249,3.7996,3.8561,0.0,0.0,0.0,0.0,0.0,0.0,3.9777,3.9777,3.9469,3.8769,3.8408,3.8194,3.8135,3.7644,3.7307,3.7261,3.6862,3.6675,3.6581,3.6452,3.6157,0.0,0.0,0.0,0.0,3.5189,3.5518,3.6062,3.667,3.7187,3.7649,3.7991,3.8127,3.8202,0.0,0.0,0.0,0.0,0.0,0.0,0.0,0.6512,0.6702,0.6702,0.6913,0.7213,0.7567,0.76,0.7811,0.8354,0.928,0.0,0.0,0.0,0.0,0.0,0.0,0.0,0.0,1.6246,1.6837,1.7199,1.7306,1.746,1.7582,1.7454,1.7418,1.7515,1.7371,0.0,0.0,0.0,0.0,0.0,0.0,0.0,0.0,0.0,0.0,0.0,0.0,0.0,0.0,0.0,0.0,0.0,0.0,0.0,0.0,0.0,3.2896,3.3124,3.3124,3.3124,3.3124,3.3124,3.3124,3.3124,3.3124,3.3124,3.3124,3.3124,3.3124,3.3124,3.3124,3.3985,3.468,3.468,3.5642,3.6452,3.6499,0.0,0.0,3.7848,0.0,0.0,0.0,0.0,0.0,0.0,0.0,0.0,4.053,4.053,4.0386,4.0083,3.938,3.8935,3.8859,3.8317,3.7998,3.792,3.7387,3.7095,3.7002,3.6565,3.6147,0.0,0.0,0.0,0.0,3.5067,3.5433,3.5911,3.6783,3.7303,3.7649,3.8052,3.8202,3.8202,0.0,0.0,0.0,0.0,0.0,0.0,0.0,0.6512,0.6702,0.6702,0.6913,0.7213,0.7567,0.76,0.7815,0.8322,0.0,0.0,0.0,0.0,0.0,0.0,0.0,0.0,1.5553,1.6621,1.7213,1.7233,1.7501,1.7582,1.7582,1.7582,1.7747,1.801,1.7781,1.7965,0.0,0.0,0.0,0.0,0.0,0.0,0.0,0.0,0.0,0.0,0.0,0.0,0.0,0.0,0.0,0.0,0.0,0.0,0.0,0.0,0.0,0.0,0.0,3.3124,3.3124,3.3124,3.3124,3.3124,3.3124,3.3124,0.0,3.3124,3.3124,3.3124,3.3124,3.3972,3.4726,3.4726,3.5688,3.6499,0.0,3.7201,0.0,0.0,3.9733,0.0,4.0702,0.0,0.0,0.0,0.0,0.0,4.1396,4.1396,4.1396,4.1396,4.0273,3.9577,3.9424,3.9145,3.885,3.8626,3.8115,3.7723,3.7409,3.6637,3.6276,0.0,0.0,0.0,0.0,3.5133,3.548,3.6111,3.6978,3.7419,3.7649,3.8066,3.8202,3.8202,0.0,0.0,0.0,0.0,0.0,0.0,0.0,0.0,0.0,0.0,0.6913,0.7213,0.7567,0.76,0.7815,0.0,0.0,0.0,0.0,0.0,0.0,0.0,0.0,0.0,1.6119,1.6825,1.7306,1.7534,1.7549,1.7582,1.7582,1.7582,1.7747,1.8016,1.815,1.8785,0.0,0.0,0.0,0.0,0.0,0.0,0.0,0.0,0.0,0.0,2.5781,2.5965,0.0,0.0,0.0,0.0,0.0,0.0,0.0,0.0,3.2779,3.3124,3.3124,0.0,3.3124,3.3124,3.3124,3.3124,0.0,3.3124,3.3124,3.3124,3.3124,3.3124,3.3124,3.4161,3.5008,3.5008,3.6116,3.6968,3.7015,3.7769,0.0,3.9441,4.0112,4.0645,4.0916,0.0,0.0,0.0,0.0,4.1396,4.1396,4.1396,4.1396,4.1396,4.0645,4.0351,4.0617,4.0025,3.95,3.8961,3.8161,3.7436,3.6885,3.6353,3.5877,0.0,0.0,0.0,3.4831,3.5208,3.5696,3.6308,3.7017,3.7495,3.7853,3.8104,3.8202,3.8202,0.0,0.0,0.0,0.0,0.0,0.0,0.0,0.0,0.0,0.0,0.0,0.0,0.0,0.0,0.0,0.0,0.0,0.0,0.0,0.0,0.0,0.0,0.0,1.5901,1.6317,1.7016,1.7474,1.7582,1.7582,1.7582,1.7582,1.7747,1.7905,1.822,1.8736,1.9517,0.0,0.0,0.0,0.0,0.0,0.0,0.0,0.0,0.0,0.0,2.5615,2.5741,0.0,2.6645,2.7373,2.8222,0.0,0.0,0.0,0.0,3.2736,3.3124,3.3124,3.3124,3.3124,3.3124,3.3124,3.3124,3.3124,3.3124,3.3124,3.3124,3.3154,3.324,3.324,3.4121,3.4971,3.5181,3.616,0.0,0.0,0.0,3.9278,3.9867,4.0588,4.1114,0.0,0.0,0.0,0.0,0.0,4.1704,4.1704,4.1704,4.156,4.1258,4.0898,4.0705,4.0743,3.9971,3.9368,3.895,3.8218,3.7671,3.7176,3.658,3.616,0.0,0.0,0.0,3.5332,3.579,3.6217,3.6677,3.7341,3.7701,3.7929,3.8142,3.8202,3.8202,0.0,0.0,0.0,0.0,0.0,0.0,0.0,0.0,0.0,0.0,0.0,0.0,0.0,0.0,0.0,0.0,0.0,0.0,0.0,0.0,0.0,0.0,0.0,1.6062,1.6328,1.7193,1.7582,1.7582,1.7582,1.7635,1.7687,1.7964,1.8272,1.8684,1.9517,2.03,0.0,0.0,0.0,0.0,0.0,0.0,0.0,0.0,0.0,0.0,0.0,0.0,0.0,2.6526,2.7289,2.8081,2.936,0.0,0.0,0.0,0.0,0.0,3.3124,3.3124,3.3124,3.3124,3.3124,3.3124,3.3124,3.3124,3.3124,3.3154,3.3283,3.3441,3.3484,3.4169,3.4881,3.5357,0.0,0.0,3.8421,3.9142,3.9727,4.0287,4.0986,0.0,0.0,0.0,0.0,0.0,0.0,4.1947,4.1947,4.1845,4.1526,4.096,4.0858,4.064,4.022,3.9534,3.9062,3.8801,3.8351,3.7979,3.7689,3.6948,3.6634,3.6593,0.0,0.0,3.6151,3.6587,3.6861,3.7148,3.7701,3.7929,3.7967,3.8127,3.8202,3.8202,0.0,0.0,0.0,0.0,0.0,0.0,0.0,0.0,0.0,0.0,0.0,0.0,0.0,0.0,0.0,0.0,0.0,0.0,0.0,0.0,0.0,1.4388,1.5382,1.6143,1.6613,1.7292,1.7582,1.7582,1.7582,1.7747,1.7964,1.822,1.8893,1.9872,2.0454,2.0917,2.1267,0.0,0.0,0.0,0.0,0.0,0.0,0.0,0.0,0.0,0.0,0.0,0.0,2.625,2.6918,2.7563,2.9106,0.0,0.0,0.0,0.0,0.0,3.3124,3.3124,3.3124,3.3124,3.3124,3.3124,3.3124,3.3124,3.3154,3.3313,3.3398,3.3526,3.3907,3.464,3.5282,3.5532,0.0,3.741,0.0,0.0,3.9544,4.0546,0.0,0.0,0.0,0.0,0.0,0.0,0.0,4.125,4.125,4.0713,4.035,4.0249,3.9755,3.9455,3.9363,3.96,3.9423,3.8892,3.8405,3.7898,3.7352,3.69,3.6686,3.6686,0.0,3.6417,3.6626,3.6861,3.7187,3.7534,3.7815,3.7991,3.8179,3.8202,3.8202,3.8202,0.0,0.0,0.0,0.0,0.0,0.0,0.0,0.0,0.0,0.0,0.0,0.0,0.0,0.0,0.0,0.0,0.0,0.0,0.0,0.0,0.0,1.4541,1.5571,1.6371,1.6955,1.7371,1.7582,1.7582,1.7582,1.7747,1.8016,1.8743,1.962,2.0557,2.1062,2.1573,2.1971,2.2375,0.0,0.0,0.0,0.0,0.0,0.0,0.0,0.0,0.0,0.0,0.0,0.0,2.6703,2.7647,2.9059,0.0,0.0,0.0,0.0,0.0,3.3124,3.3124,3.3124,3.3124,3.3124,3.3124,3.3124,3.3197,3.3283,3.3398,3.3683,3.4021,3.4356,3.4912,3.5578,3.6344,0.0,3.8004,3.8657,3.8936,3.9339,0.0,0.0,0.0,0.0,0.0,0.0,0.0,0.0,0.0,4.0554,4.0263,3.9944,3.9625,3.9349,3.903,3.8667,3.8827,3.8751,3.8376,3.813,3.7857,3.7457,3.7264,3.7187,3.7187,0.0,3.7123,3.7187,3.738,3.7625,3.7777,3.7991,3.8142,3.8202,3.8202,3.8202,3.8202,0.0,0.0,0.0,0.0,0.0,0.0,0.0,0.0,0.0,0.0,0.0,0.0,0.0,0.0,0.0,0.0,0.0,0.0,0.0,0.0,1.3365,1.4559,1.5689,1.6542,1.7075,1.7384,1.7534,1.7534,1.7534,1.7784,1.8331,1.9368,2.0351,2.1224,2.1674,2.2182,2.2728,2.2937,2.3338,0.0,0.0,0.0,0.0,0.0,0.0,0.0,0.0,0.0,0.0,0.0,0.0,0.0,0.0,0.0,0.0,3.2169,3.2736,3.3124,3.3124,3.3124,3.3124,3.3124,3.3124,3.3124,3.3154,3.3313,3.3513,3.3683,3.4147,3.4688,3.4991,3.5453,0.0,3.7092,3.7752,3.8277,3.8649,3.8866,3.9124,0.0,0.0,0.0,0.0,0.0,0.0,0.0,0.0,0.0,3.9886,3.9741,3.9436,3.8986,3.8971,3.8725,3.8202,3.8202,3.8127,3.7967,3.7967,3.7891,3.7725,3.7687,3.7663,3.7663,3.7625,3.7625,3.7701,3.7853,3.7929,3.8005,3.8127,3.8202,3.8202,3.8202,3.8202,3.8202,0.0,0.0,0.0,0.0,0.0,0.0,0.0,0.0,0.0,0.0,0.0,0.0,0.0,0.0,0.0,0.0,0.0,0.0,0.0,0.0,1.3767,1.4676,1.5725,1.6458,1.6723,1.7078,1.7233,1.7233,1.7233,1.7891,1.922,2.005,2.1019,2.203,2.2325,2.2787,2.3347,2.3347,2.3546,2.3805,0.0,0.0,0.0,0.0,0.0,0.0,0.0,0.0,0.0,0.0,0.0,0.0,0.0,0.0,3.1439,3.2169,3.2736,3.3124,3.3124,3.3124,3.3124,3.3124,3.3124,3.3154,3.3356,3.3513,3.3839,3.4468,3.4853,3.5263,3.603,3.6573,3.6954,3.7243,3.7325,3.7643,3.8407,0.0,0.0,0.0,0.0,0.0,0.0,0.0,0.0,0.0,0.0,0.0,3.9262,3.8681,3.8318,3.8275,3.8275,3.8246,3.8202,3.8202,3.8202,3.8165,3.8165,3.8165,3.8165,3.7967,3.7891,3.7853,3.7701,3.7701,3.7891,3.7891,3.7991,3.8165,3.8202,3.8202,3.8202,3.8202,3.8202,3.8202,0.0,0.0,0.0,0.0,0.0,0.0,0.0,0.0,0.0,0.0,0.0,0.0,0.0,0.0,0.0,0.0,0.0,0.0,0.0,1.2008,1.3182,1.415,1.5234,1.5923,1.6201,1.6629,1.7018,1.7199,1.7691,1.8414,1.9324,2.0308,2.1224,2.2131,2.2787,2.3297,2.3646,2.3854,2.3954,2.4053,2.4053,0.0,0.0,0.0,0.0,0.0,0.0,0.0,0.0,0.0,2.5671,2.6928,2.7966,2.9332,3.0747,3.1614,3.2214,3.2616,3.298,3.3124,3.3111,3.3283,3.3398,3.3471,3.3556,3.3966,3.4468,3.5018,3.5535,3.6084,3.6808,0.0,3.7787,3.7863,3.8089,3.835,3.8635,0.0,0.0,0.0,0.0,0.0,0.0,0.0,0.0,0.0,0.0,0.0,3.858,3.8333,3.8202,3.8202,3.8202,3.8202,3.8202,3.8202,3.8202,3.8202,3.8202,3.8202,3.8202,3.8142,3.8104,3.8066,3.8028,3.8028,3.8104,3.8104,3.8127,3.8202,3.8202,3.8202,3.8202,3.8202,3.8202,3.8202,0.0,0.0,0.0,0.0,0.0,0.0,0.0,0.0,0.0,0.0,0.0,0.0,0.0,0.0,0.0,0.0,0.0,0.0,1.0706,1.1768,1.2828,1.3746,1.4811,1.5476,1.5784,1.6318,1.6714,1.7058,1.7967,1.8788,1.9583,2.0454,2.142,2.2375,2.3097,2.3596,2.3954,2.4102,2.4202,2.4202,2.4202,2.4498,0.0,0.0,0.0,0.0,0.0,0.0,0.0,0.0,2.5152,2.6437,2.737,2.8691,3.0097,3.1205,3.1776,3.2269,3.2918,3.3154,3.324,3.3356,3.3641,3.3966,3.4176,3.4634,3.5168,3.579,3.648,3.713,3.7596,3.8052,0.0,0.0,3.8598,3.8782,0.0,0.0,0.0,0.0,0.0,0.0,0.0,0.0,0.0,0.0,0.0,0.0,0.0,3.8202,3.8202,3.8202,3.8202,3.8202,3.8202,3.8202,3.8202,3.8202,3.8202,3.8202,3.8202,3.8202,3.8202,3.8202,3.8202,3.8202,3.8202,3.8202,3.8202,3.8202,3.8202,3.8202,3.8202,3.8202,3.8202,3.8202,0.0,0.0,0.0,0.0,0.0,0.0,0.0,0.0,0.0,0.0,0.0,0.0,0.0,0.0,0.0,0.0,0.0,0.0,1.0752,1.1785,1.2704,1.3452,1.4542,1.5238,1.5496,1.6035,1.642,1.6707,1.7864,1.8997,2.0138,2.066,2.1623,2.2929,2.3247,2.3696,2.4202,2.4202,2.4202,2.4202,2.4202,2.4498,0.0,0.0,0.0,0.0,0.0,0.0,0.0,0.0,2.4592,2.5729,2.669,2.8106,2.9662,3.0925,3.1564,3.207,3.2875,3.324,3.3398,3.3398,3.3894,3.4564,3.5277,3.5548,3.5951,3.6822,3.7787,3.8478,3.8478,3.8649,0.0,3.8782,3.8782,0.0,0.0,0.0,0.0,0.0,0.0,0.0,0.0,0.0,0.0,0.0,0.0,0.0,0.0,3.8202,3.8202,3.8202,3.8202,3.8202,3.8202,3.8202,3.8202,3.8202,3.8202,3.8202,3.8202,3.8202,3.8202,3.8202,3.8202,3.8202,3.8202,3.8202,3.8202,3.8202,3.8202,3.8202,3.8202,3.8202,3.8202,3.8202,0.0,0.0,0.0,0.0,0.0,0.0,0.0,0.0,0.0,0.0,0.0,0.0,0.0,0.0,0.0,0.0,0.0,0.0,1.0511,1.1353,1.2175,1.2964,1.3982,1.485,1.549,1.643,1.7035,1.7333,1.8226,1.9198,2.013,2.1062,2.1979,2.2929,2.3447,2.3845,2.4202,2.4202,2.4202,2.4202,2.4202,2.4498,0.0,0.0,0.0,0.0,0.0,0.0,0.0,0.0,0.0,0.0,2.6112,2.7455,2.8909,3.0326,3.1311,3.207,3.2875,3.324,3.3484,3.3823,3.441,3.51,3.5843,3.6203,3.6677,3.7825,3.8389,3.8723,3.8723,3.887,0.0,3.9017,0.0,0.0,0.0,0.0,0.0,0.0,0.0,0.0,0.0,0.0,0.0,0.0,0.0,0.0,0.0,3.8202,3.8202,3.8202,3.8202,3.8202,3.8202,3.8202,3.8202,3.8202,3.8202,3.8202,3.8202,3.8202,3.8202,3.8202,3.8202,3.8202,3.8202,3.8202,3.8202,3.8202,3.8202,3.8202,3.8202,3.8202,3.8202,3.8202,0.0,0.0,0.0,0.0,0.0,0.0,0.0,0.0,0.0,0.0,1.0703,1.0314,0.0,0.0,0.0,0.0,0.0,0.0,0.0,1.1069,1.1889,1.2759,1.3868,1.5022,1.6164,1.6866,1.7414,1.7905,1.8532,1.9354,2.0447,2.1318,2.2182,2.3138,2.3596,2.3863,2.3904,2.3904,2.3822,2.3675,2.3675,2.3908,2.4257,0.0,0.0,0.0,0.0,0.0,0.0,0.0,0.0,0.0,2.5485,2.678,2.8203,2.9666,3.0827,3.179,3.2703,3.3227,3.3598,3.3992,3.466,3.5507,3.6663,3.713,3.7606,3.8538,3.8885,3.9031,3.9031,3.9141,0.0,0.0,0.0,0.0,0.0,0.0,0.0,0.0,0.0,0.0,0.0,0.0,0.0,0.0,0.0,0.0,0.0,3.8202,3.8202,3.8202,3.8202,3.8202,3.8202,3.8202,3.8202,3.8202,3.8202,3.8202,3.8202,3.8202,3.8202,3.8202,3.8202,3.8202,3.8202,3.8202,3.8202,3.8202,3.8202,3.8202,3.8202,3.8202,3.8202,3.8202,0.0,0.0,0.0,0.0,0.0,0.0,0.0,0.0,0.0,0.0,1.1389,1.09,0.0,0.0,0.0,0.0,0.0,0.0,0.0,0.0,1.1753,1.2754,1.4085,1.557,1.7186,1.7226,1.7626,1.8422,1.8677,1.9561,2.0917,2.1522,2.2333,2.3397,2.366,2.369,2.3499,2.3453,2.3233,2.2904,2.2904,2.3083,2.3336,2.3541,0.0,0.0,0.0,0.0,0.0,0.0,0.0,0.0,2.4946,2.6105,2.7527,2.9021,3.0264,3.1394,3.2389,3.3172,3.3768,3.4076,3.4853,3.5937,3.7544,3.824,3.8627,3.9031,0.0,3.9388,3.9388,3.9388,3.9388,0.0,0.0,0.0,0.0,0.0,0.0,0.0,0.0,0.0,0.0,0.0,0.0,0.0,0.0,0.0,0.0,3.8202,3.8202,3.8202,3.8202,3.8202,3.8202,3.8202,3.8202,3.8202,3.8202,3.8202,3.8202,3.8202,3.8202,3.8202,3.8202,3.8202,3.8202,3.8202,3.8202,3.8202,3.8202,3.8202,3.8202,3.8202,3.8202,3.8202,0.0,0.0,0.0,0.0,0.0,0.0,0.0,0.0,0.0,0.0,0.0,0.0,0.0,0.0,0.0,0.0,0.0,0.0,0.0,0.0,1.1753,1.2754,1.4658,1.6182,1.7192,1.7427,1.7784,1.8422,1.8952,1.9783,2.0925,2.1878,2.2736,2.3379,2.3519,2.3532,2.3471,2.316,2.2986,2.2904,2.2904,2.3083,2.3308,2.3165,2.3259,0.0,0.0,0.0,0.0,0.0,0.0,0.0,2.4733,2.5819,2.7123,2.854,2.9898,3.1167,3.2185,3.3056,3.3797,3.423,3.5494,3.6861,3.7696,3.8337,3.8833,3.9265,3.9373,3.9388,3.9388,3.9388,0.0,0.0,0.0,0.0,0.0,0.0,0.0,0.0,0.0,0.0,0.0,0.0,0.0,0.0,0.0,0.0,3.8202,3.8202,3.8202,3.8202,3.8202,3.8202,3.8202,3.8202,3.8202,0.0,3.8202,3.8202,3.8202,3.8202,3.8202,3.8202,3.8202,3.8202,3.8202,3.8202,3.8202,3.8202,3.8202,3.8202,3.8202,3.8202,3.8202,3.8202,0.0,0.0,0.0,0.0,0.0,0.0,0.0,0.0,0.0,0.0,0.0,0.0,0.0,0.0,0.0,0.0,0.0,0.0,0.0,1.1268,1.2205,1.3834,1.5332,1.65,1.7192,1.7435,1.7845,1.8422,1.9108,2.0042,2.1121,2.2182,2.3038,2.3596,2.3785,2.362,2.3197,2.2995,2.2684,2.2327,2.2327,2.241,2.2565,2.2578,2.2718,2.2904,2.2959,0.0,0.0,0.0,0.0,0.0,0.0,0.0,2.639,2.7613,2.9109,3.06,3.1452,3.2585,3.3768,3.4647,3.5777,3.6872,3.7596,3.8165,3.8649,3.9141,3.9337,3.9388,3.9388,3.9388,0.0,0.0,0.0,0.0,0.0,0.0,0.0,0.0,0.0,0.0,0.0,0.0,0.0,0.0,0.0,3.8277,3.8202,3.8202,3.8202,3.8202,3.8202,3.8202,3.8202,3.8202,3.8202,3.8202,3.8202,3.8202,3.8202,3.8202,3.8202,3.8202,3.8202,3.8202,3.8202,3.8202,3.8202,3.8202,3.8202,3.8202,3.8202,3.8202,3.8202,3.8202,0.0,0.0,0.0,0.0,0.0,0.0,0.0,0.0,0.0,0.0,0.0,0.0,0.0,0.0,0.0,0.0,0.0,0.0,0.0,1.1662,1.2922,1.501,1.5812,1.6522,1.7119,1.7308,1.7741,1.832,1.9251,2.0259,2.1381,2.2442,2.3288,2.3795,2.4029,2.3687,2.2904,2.2831,2.2373,2.1696,2.1696,2.1696,2.1741,2.2008,2.223,2.2441,2.2706,2.2925,2.3091,2.3091,0.0,0.0,0.0,0.0,2.5589,2.6508,2.8087,2.9686,3.0405,3.1914,3.361,3.495,3.5736,3.6441,3.725,3.7715,3.8184,3.8819,3.9156,3.9337,3.9388,0.0,0.0,0.0,0.0,0.0,0.0,0.0,0.0,0.0,0.0,0.0,0.0,0.0,0.0,0.0,0.0,3.8404,3.8202,3.8202,3.8202,3.8202,3.8202,3.8202,3.8202,3.8202,3.8202,3.8202,3.8202,3.8202,3.8202,3.8202,3.8202,3.8202,3.8202,3.8202,3.8202,3.8202,3.8202,3.8202,3.8202,3.8202,3.8202,3.8202,3.8202,3.8202,0.0,0.0,0.0,0.0,0.0,0.0,0.0,0.0,0.0,0.0,1.4303,1.3954,1.3729,1.3025,0.0,0.0,0.0,0.0,1.1296,0.0,0.0,1.5017,1.5663,1.6213,1.6754,1.6807,1.718,1.7989,1.9054,2.029,2.1602,2.2722,2.3438,2.3786,2.3883,2.3564,2.2885,2.2519,2.2099,2.1696,2.1696,2.1696,2.1741,2.2008,2.223,2.2441,2.2706,2.2925,2.3091,2.3091,2.3276,0.0,0.0,0.0,2.4792,2.5568,2.6832,2.8176,2.9106,3.1009,3.304,3.4432,3.5291,3.5951,3.6665,3.694,3.7298,0.0,3.876,3.9177,3.9373,0.0,0.0,0.0,0.0,0.0,0.0,0.0,0.0,0.0,0.0,0.0,0.0,0.0,0.0,0.0,3.859,3.8404,3.8202,3.8202,3.8202,3.8202,3.8202,3.8202,3.8202,3.8202,3.8202,3.8202,3.8202,3.8202,3.8202,3.8202,3.8202,3.8202,3.8202,3.8202,3.8202,3.8202,3.8202,3.8202,3.8202,3.8202,3.8202,3.8202,3.8202,3.8202,0.0,0.0,0.0,0.0,0.0,0.0,0.0,0.0,0.0,0.0,0.0,1.418,1.4059,1.3372,0.0,0.0,0.0,0.0,1.212,1.3192,0.0,0.0,1.5754,1.6228,1.646,1.6776,1.7213,1.7917,1.8984,2.0227,2.1625,2.2872,2.3717,2.4183,2.4401,2.4058,2.3355,2.3159,2.2711,2.2087,2.2087,2.2087,2.2087,2.222,2.2397,2.2618,2.2759,2.2925,2.3091,2.3091,2.3188,2.3319,2.345,0.0,0.0,0.0,2.5905,2.7314,2.9136,3.0815,3.2319,3.3424,3.4355,3.5182,3.5951,3.6178,3.6448,3.7296,3.7813,3.8348,0.0,0.0,0.0,0.0,0.0,0.0,0.0,0.0,0.0,0.0,0.0,0.0,0.0,0.0,0.0,0.0,3.876,3.8575,3.8366,3.824,3.8202,3.8202,3.8202,3.8202,3.8202,3.8202,3.8202,3.8202,3.8202,3.8202,3.8202,3.8202,3.8202,3.8202,3.8202,3.8202,3.8202,3.8202,3.8202,3.8202,3.8202,3.8202,3.8202,3.8202,3.8202,3.8202,0.0,0.0,0.0,0.0,0.0,0.0,0.0,0.0,0.0,0.0,0.0,0.0,1.4199,0.0,0.0,0.0,0.0,0.0,1.2947,0.0,0.0,0.0,0.0,1.6159,1.6159,1.6625,1.7183,1.7771,1.8765,2.0095,2.158,2.2942,2.3934,2.4627,2.4883,2.4516,2.3719,2.3719,2.3199,2.2397,2.2397,2.2397,2.2397,2.2397,2.2574,2.2803,2.2803,2.2925,2.3091,2.3091,2.3091,2.3135,2.3319,2.346,0.0,0.0,0.0,2.6582,2.8937,3.0218,3.1141,3.2294,3.3229,3.4118,3.5142,0.0,3.5645,0.0,3.6902,3.7396,0.0,0.0,0.0,0.0,0.0,0.0,0.0,0.0,0.0,0.0,0.0,0.0,0.0,0.0,0.0,0.0,3.8907,3.8723,3.8516,3.8315,3.8202,3.8202,3.8202,3.8202,3.8202,3.8202,3.8202,3.8202,3.8202,3.8202,3.8202,3.8202,3.8202,3.8202,3.8202,3.8202,3.8202,3.8202,3.8202,3.8202,3.8202,3.8202,3.8202,3.8202,3.8202,3.8202,0.0,0.0,0.0,0.0,0.0,0.0,0.0,0.0,0.0,0.0,0.0,0.0,1.4142,1.3835,1.3652,1.3652,0.0,0.0,0.0,0.0,0.0,0.0,0.0,0.0,1.5852,1.6116,1.659,1.7337,1.8453,1.9885,2.1561,2.2913,2.404,2.4883,2.5137,2.4708,2.3719,2.3719,2.3199,2.2397,2.2397,2.2397,2.2397,2.2397,2.2574,2.2803,2.2803,2.2925,2.3091,2.3091,2.3091,2.3091,2.3135,2.3319,2.3503,0.0,0.0,0.0,2.763,2.8449,2.9302,3.1197,3.2017,3.2768,3.4142,0.0,3.4818,3.605,3.634,0.0,0.0,0.0,0.0,0.0,0.0,0.0,0.0,0.0,0.0,0.0,0.0,0.0,0.0,0.0,0.0,0.0,3.8907,3.8723,3.8516,3.8315,3.8202,3.8202,3.8202,3.8202,3.8202,3.8202,3.8202,3.8202,3.8202,3.8202,3.8202,3.8202,3.8202,3.8202,3.8202,3.8202,3.8202,3.8202,3.8202,3.8202,3.8202,3.8202,3.8202,3.8202,3.8202,3.8202,0.0,0.0,0.0,0.0,0.0,0.0,0.0,0.0,0.0,0.0,0.0,0.0,0.0,1.3997,1.3913,1.3737,1.3434,0.0,0.0,0.0,0.0,0.0,0.0,0.0,1.5778,1.6211,1.673,1.7279,1.8341,1.9701,2.1327,2.2359,2.3355,2.4364,2.4938,2.4782,2.4117,2.3857,2.3403,2.2828,2.2828,2.2828,2.2828,2.2828,2.2916,2.3013,2.3013,2.3057,2.3091,2.3091,2.3091,2.3091,2.3091,2.3002,2.2916,2.3215,2.4174,2.5359,2.6353,2.722,2.8107,2.9404,3.0592,3.1692,3.2789,3.3338,3.3845,3.486,3.5329,0.0,0.0,0.0,0.0,0.0,0.0,0.0,0.0,0.0,0.0,0.0,0.0,0.0,0.0,0.0,0.0,0.0,0.0,3.8907,3.8686,3.8501,3.8329,3.8202,3.8202,3.8202,3.8202,3.8202,3.8202,3.8202,3.8202,3.8202,3.8202,3.8202,3.8202,3.8202,3.8202,3.8202,3.8202,3.8202,3.8202,3.8202,3.8202,3.8202,3.8202,3.8202,3.8202,3.8202,0.0,0.0,0.0,0.0,0.0,0.0,0.0,0.0,0.0,1.511,0.0,0.0,0.0,0.0,1.4146,1.3877,1.3695,1.3695,1.3828,1.414,0.0,0.0,0.0,0.0,1.5771,1.6346,1.6817,1.7279,1.8404,1.9728,2.1241,2.2098,2.3055,2.4034,2.4477,2.4482,2.4189,2.3906,2.3535,2.3091,2.3091,2.3091,2.3091,2.3091,2.3091,2.3091,2.3091,2.3091,2.3091,2.3091,2.3091,2.3091,2.3091,2.2808,2.2575,2.2806,2.3604,2.4577,2.5154,2.6014,2.6928,2.7969,2.9073,3.0259,3.1556,3.2273,3.2988,3.3961,3.458,0.0,0.0,0.0,0.0,0.0,0.0,0.0,0.0,0.0,0.0,0.0,0.0,0.0,0.0,0.0,0.0,0.0,0.0,0.0,3.8819,3.8612,3.8404,3.8202,3.8202,3.8202,3.8202,3.8202,3.8202,3.8202,3.8202,3.8202,3.8202,3.8202,3.8202,3.8202,3.8202,3.8202,3.8202,3.8202,3.8202,3.8202,3.8202,3.8202,3.8202,3.8202,3.8202,3.8202,0.0,0.0,0.0,0.0,0.0,0.0,0.0,0.0,1.5398,1.5398,0.0,0.0,0.0,0.0,0.0,1.4135,1.4108,1.4102,1.4102,1.4355,0.0,0.0,0.0,0.0,1.5771,1.6346,1.6817,1.7326,1.8581,1.9912,2.1223,2.2208,2.3155,2.3977,2.3855,2.3769,2.3769,2.3769,2.3525,2.3091,2.3101,2.3091,2.3091,2.3135,2.3135,2.3091,2.3091,2.3101,2.3091,2.3091,2.3091,2.3091,2.3081,2.2808,2.2494,2.2271,2.2803,2.3586,0.0,0.0,0.0,2.6952,0.0,0.0,3.0372,0.0,3.2189,3.3377,3.4178,0.0,0.0,0.0,0.0,0.0,0.0,0.0,0.0,0.0,0.0,0.0,0.0,0.0,0.0,0.0,0.0,0.0,3.9228,3.9017,3.8819,3.8612,3.8404,3.8202,3.8202,3.8202,3.8202,3.8202,3.8202,3.8202,3.8202,3.8202,3.8202,3.8202,3.8202,3.8202,3.8202,3.8202,3.8202,3.8202,3.8202,3.8202,3.8202,3.8202,3.8202,3.8202,3.8202,3.8202,0.0,0.0,0.0,0.0,0.0,1.5784,1.5784,1.5585,1.5398,0.0,0.0,0.0,1.485,1.4843,1.481,1.4774,1.4522,1.4402,1.4402,1.4282,1.4436,1.4988,1.5082,1.5317,1.5771,1.6346,1.6904,1.7598,1.8673,1.9962,2.1383,2.1986,2.2633,2.3353,2.3325,2.3276,2.3276,2.3276,2.3208,2.3135,2.3319,2.3373,2.3406,2.3537,2.3537,2.3373,2.3373,2.3276,2.3091,2.3091,2.3091,2.3042,2.2783,2.2769,2.2881,2.2503,2.2935,2.3606,2.4088,0.0,0.0,0.0,0.0,0.0,0.0,0.0,0.0,3.1622,0.0,0.0,0.0,0.0,0.0,0.0,0.0,0.0,0.0,0.0,0.0,0.0,0.0,0.0,0.0,0.0,0.0,0.0,3.9337,3.9228,3.9017,3.8701,3.8404,3.8202,3.8202,3.8202,3.8202,3.8202,3.8202,3.8202,3.8202,3.8202,3.8202,3.8202,3.8202,3.8202,3.8202,3.8202,3.8202,3.8202,3.8202,3.8202,3.8202,3.8202,3.8202,3.8202,3.8202,3.8202,0.0,0.0,0.0,1.5784,1.5784,1.5784,1.5784,1.5685,1.5578,0.0,0.0,0.0,1.5157,1.5082,1.5008,1.5008,1.4803,1.4656,1.4529,1.4362,1.4422,1.4763,1.4941,1.5268,1.5785,1.6432,1.7145,1.7885,1.8942,2.013,2.1401,2.1954,2.253,2.3091,2.2916,2.2838,2.2881,2.2967,2.3118,2.3276,2.3537,2.3677,2.3807,2.3937,2.3894,2.3764,2.359,0.0,2.3232,2.3144,2.3091,0.0,0.0,0.0,2.275,2.2373,2.2729,2.3322,2.3579,2.3925,0.0,0.0,0.0,0.0,2.7381,2.8414,0.0,0.0,0.0,0.0,0.0,0.0,0.0,0.0,0.0,0.0,0.0,0.0,0.0,0.0,0.0,0.0,0.0,3.9388,3.9388,3.9388,3.9388,3.9265,3.898,3.8664,3.8404,3.8202,3.8202,3.8202,3.8202,3.8202,3.8202,3.8202,3.8202,3.8202,3.8202,3.8202,3.8202,3.8202,3.8202,3.8202,3.8202,3.8202,3.8202,3.8202,3.8202,3.8202,3.8202,3.8202,3.8202,3.8202,0.0,0.0,1.5832,1.5832,1.5832,1.5832,1.5832,1.5832,1.5784,0.0,1.5784,1.5732,1.5471,1.5211,1.5109,1.5109,1.5075,1.4903,1.4636,1.4556,1.4536,1.4569,1.4823,1.5239,1.5773,1.6589,1.7394,1.8179,1.9347,2.0484,2.149,2.2122,2.2696,2.3081,2.2705,2.251,2.251,2.2725,2.308,2.3511,2.3777,2.4013,2.4249,2.4292,2.4292,2.4163,2.3764,2.3547,2.346,2.3188,2.3091,0.0,0.0,0.0,0.0,2.2139,2.2463,0.0,2.2938,2.3378,0.0,0.0,0.0,0.0,2.6526,2.7431,2.8324,0.0,0.0,0.0,0.0,0.0,0.0,0.0,0.0,0.0,0.0,0.0,0.0,0.0,0.0,0.0,3.9388,3.9388,3.9388,3.9388,3.9388,3.9228,3.8819,3.8612,3.8441,3.8202,3.8202,3.8202,3.8202,3.8202,3.8202,3.8202,3.8202,3.8202,3.8202,3.8202,3.8202,3.8202,3.8202,3.8202,3.8202,3.8202,3.8202,3.8202,3.8202,3.8202,3.8202,3.8202,3.8202,3.8202,0.0,1.5981,1.6123,1.6123,1.6123,1.6123,1.6123,1.5933,1.5784,1.5784,1.5784,1.5758,1.5752,1.5698,1.5658,1.5658,1.5444,1.5284,1.5231,1.4783,1.4629,1.4914,1.4981,1.5239,1.5773,1.6589,1.7574,1.8657,1.9729,2.0826,2.1954,2.2485,2.2882,2.3081,2.2705,2.251,2.249,2.2399,2.278,2.3571,2.4129,2.4411,2.4497,2.4871,2.4786,2.4411,2.4325,2.398,2.346,2.3188,2.3091,2.3081,0.0,0.0,0.0,2.2877,2.2949,2.3104,2.3331,2.3477,0.0,0.0,0.0,0.0,2.5232,2.5994,2.6768,0.0,0.0,0.0,0.0,0.0,0.0,0.0,0.0,0.0,0.0,0.0,0.0,0.0,0.0,0.0,3.9388,3.9388,3.9388,3.9388,3.9388,3.9228,3.8819,3.8745,3.8575,3.8202,3.8202,3.8202,3.8202,3.8202,3.8202,3.8202,3.8202,3.8202,3.8202,3.8202,3.8202,3.8202,3.8202,3.8202,3.8202,3.8202,3.8202,3.8202,3.8202,3.8202,3.8202,3.8202,3.8202,3.8202,1.6157,1.6305,1.6407,1.6407,1.6407,1.6407,1.6407,1.6305,1.6204,1.6204,1.6204,1.6204,1.6204,1.6069,1.5981,1.5981,1.5745,1.5551,1.5404,1.5117,1.4957,1.5008,1.5239,1.5577,1.5996,1.704,1.8032,1.8988,2.0093,2.1141,2.2097,2.2583,2.2925,2.3081,2.2705,2.251,2.25,2.2621,2.3017,2.3544,2.4126,2.4703,2.5221,2.5464,2.538,2.5137,2.4828,2.4186,2.3503,2.3319,2.3232,0.0,2.3091,2.3091,2.3091,0.0,2.3091,2.3144,2.3276,0.0,0.0,2.358,0.0,0.0,0.0,2.52,2.581,2.631,2.705,2.784,0.0,0.0,0.0,0.0,0.0,0.0,0.0,0.0,0.0,0.0,0.0,0.0,3.9228,3.9265,3.9301,3.9388,3.9388,3.9228,3.8819,3.8782,3.8612,3.8202,3.8202,3.8202,3.8202,3.8202,3.8202,3.8202,3.8202,3.8202,3.8202,3.8202,3.8202,3.8202,3.8202,3.8202,3.8202,3.8202,3.8202,3.8202,3.8202,3.8202,3.8202,3.8202,3.8202,3.8202,1.6588,1.6636,1.6683,1.6683,1.6683,1.6683,1.6683,1.6636,1.6609,1.6665,1.672,1.67,1.6811,1.658,1.6491,1.6491,1.6191,1.5961,1.5718,1.5597,1.5428,1.5237,1.5643,1.6003,1.6317,1.7496,1.8496,1.9317,2.0492,2.1454,2.2185,2.2627,2.2925,2.3081,2.2705,2.2519,2.2595,2.298,2.3347,2.369,2.4199,2.4993,2.5895,2.5937,2.5979,2.5843,2.5158,2.4348,2.3634,2.3547,2.3319,2.3091,2.3091,2.3091,0.0,0.0,0.0,0.0,0.0,0.0,0.0,0.0,0.0,2.3841,0.0,0.0,0.0,2.5527,0.0,0.0,0.0,0.0,0.0,0.0,0.0,0.0,0.0,0.0,0.0,0.0,0.0,0.0,0.0,3.9068,3.9177,3.9337,3.9388,3.9228,3.8819,3.8782,3.8612,3.8202,3.8202,3.8202,3.8202,3.8202,3.8202,3.8202,3.8202,3.8202,3.8202,3.8202,3.8202,3.8202,3.8202,3.8202,3.8202,3.8202,3.8202,3.8202,3.8202,3.8202,3.8202,3.8202,3.8202,3.8202,1.6636,1.6784,1.6932,1.6932,1.6932,1.6932,1.6932,1.673,1.6734,1.7008,1.7043,1.7155,1.7429,1.7464,1.7464,1.7464,1.7155,1.6932,1.6904,1.6334,1.6014,1.6078,1.6113,1.6355,1.6812,1.7681,1.8673,1.9803,2.0853,2.1713,2.2397,2.2838,2.3091,2.3081,2.2705,2.2647,2.2881,2.2908,2.3402,2.4157,2.4837,2.5417,0.0,2.6115,2.6177,2.6071,2.5189,2.4572,2.4077,0.0,2.3319,2.3091,0.0,2.3091,2.3091,2.3091,0.0,0.0,0.0,0.0,0.0,0.0,2.3319,0.0,0.0,0.0,2.4368,2.4625,0.0,0.0,0.0,0.0,0.0,0.0,0.0,0.0,0.0,0.0,0.0,0.0,0.0,0.0,0.0,3.8885,3.9104,3.9141,3.9301,3.9228,3.8819,3.8782,3.8612,3.8202,3.8202,3.8202,3.8202,3.8202,3.8202,3.8202,3.8202,3.8202,3.8202,3.8202,3.8202,3.8202,3.8202,3.8202,3.8202,3.8202,3.8202,3.8202,3.8202,3.8202,3.8202,3.8202,3.8202,3.8202,1.7052,1.7099,1.72,1.7394,1.7402,1.7441,1.7628,1.769,1.7812,1.7953,1.8137,1.8307,1.8447,1.8355,1.8306,1.8306,1.8034,1.7864,1.7864,1.739,1.7138,1.7185,1.7238,1.7366,1.7597,1.861,1.9554,2.0311,2.132,2.2087,2.2618,2.2969,2.3091,2.3091,2.3089,2.3226,2.343,2.3875,2.4399,2.4975,2.5568,2.6072,0.0,2.6561,2.6426,2.6113,2.5485,2.4786,2.4163,0.0,2.3406,0.0,0.0,0.0,0.0,0.0,0.0,0.0,0.0,0.0,0.0,0.0,0.0,0.0,2.346,0.0,2.3894,0.0,0.0,0.0,0.0,0.0,0.0,0.0,0.0,0.0,0.0,0.0,0.0,0.0,0.0,0.0,0.0,0.0,0.0,0.0,3.9177,3.9104,3.8819,3.8782,3.8612,3.8202,3.8202,3.8202,3.8202,3.8202,3.8202,3.8202,3.8202,3.8202,3.8202,3.8202,3.8202,3.8202,3.8202,3.8202,3.8202,3.8202,3.8202,3.8202,3.8202,3.8202,3.8202,3.8202,3.8202,3.8202,1.7512,1.7473,1.7481,1.7768,1.7815,1.7861,1.8087,1.8369,1.8628,1.872,1.9033,1.9277,1.9361,1.9261,1.9169,1.9269,1.8987,1.8892,1.8942,1.8626,1.8438,1.8438,1.8494,1.859,1.8645,1.9604,2.0329,2.0817,2.1722,2.2407,2.2803,2.3013,2.3091,2.3091,2.3363,2.3634,2.397,2.469,2.5242,2.5737,2.6268,2.6745,2.7149,2.7015,2.6745,2.6404,2.5863,2.5158,2.4411,2.4024,2.358,0.0,2.3135,0.0,0.0,0.0,0.0,0.0,2.3091,0.0,0.0,0.0,0.0,0.0,0.0,0.0,0.0,0.0,0.0,0.0,0.0,0.0,0.0,0.0,0.0,0.0,0.0,0.0,0.0,0.0,0.0,0.0,0.0,0.0,0.0,0.0,0.0,3.8943,3.8723,3.8723,3.8575,3.8202,3.8202,3.8202,3.8202,3.8202,3.8202,3.8202,3.8202,3.8202,3.8202,3.8202,3.8202,3.8202,3.8202,3.8202,3.8202,3.8202,3.8202,3.8202,3.8202,3.8202,3.8202,3.8202,3.8202,3.8202,1.804,1.7854,1.7768,1.804,1.8087,1.8087,1.8087,1.8369,1.8712,1.904,1.9384,1.9712,2.0017,2.0048,2.0158,2.0431,2.0128,2.0084,2.0327,2.0043,1.9844,1.9844,1.9733,1.9776,2.0036,2.0371,2.0862,2.1356,2.2078,2.253,2.2803,2.3013,2.3091,2.3091,2.3363,2.3764,2.4249,2.4914,2.5569,2.6238,2.6887,2.7452,2.7812,0.0,2.7167,2.7092,2.6445,0.0,0.0,2.4411,2.3894,0.0,0.0,0.0,0.0,0.0,0.0,0.0,0.0,0.0,0.0,2.3091,0.0,0.0,0.0,0.0,2.3188,0.0,0.0,0.0,0.0,0.0,0.0,0.0,0.0,0.0,0.0,0.0,0.0,0.0,0.0,0.0,0.0,0.0,0.0,0.0,0.0,0.0,3.8516,3.8516,3.8389,3.8202,3.8202,3.8202,3.8202,3.8202,3.8202,3.8202,3.8202,3.8202,3.8202,3.8202,3.8202,3.8202,3.8202,3.8202,3.8202,3.8202,3.8202,3.8202,3.8202,3.8202,3.8202,3.8202,3.8202,3.8202,1.8504,1.8781,1.8866,1.8596,1.8735,1.8874,1.9066,1.962,2.0039,2.016,2.0775,2.1281,2.1395,2.1564,2.1717,0.0,0.0,2.1686,2.1787,2.1486,2.1276,2.1276,2.1365,2.1341,2.109,2.1687,2.2033,2.2078,2.2485,2.2794,2.3013,2.3057,2.3091,2.3135,2.3537,2.396,2.4466,2.5285,2.6052,0.0,0.0,2.7829,2.807,0.0,2.7464,2.7144,2.6599,2.5863,0.0,2.4411,2.3894,2.345,2.3188,2.3091,2.3042,2.2769,2.2682,0.0,0.0,0.0,2.2682,2.2682,0.0,0.0,0.0,0.0,0.0,0.0,0.0,0.0,0.0,0.0,0.0,0.0,0.0,0.0,0.0,0.0,0.0,0.0,0.0,0.0,0.0,0.0,0.0,0.0,3.8427,0.0,0.0,3.8478,3.8404,3.8202,3.8202,3.8202,3.8202,3.8202,3.8202,3.8202,3.8202,3.8202,3.8202,3.8202,3.8202,3.8202,3.8202,3.8202,3.8202,3.8202,3.8202,3.8202,3.8202,3.8202,3.8202,3.8202,3.8202,3.8202,1.9142,1.9762,1.9987,1.9312,1.9417,1.9654,1.9799,2.0473,2.095,2.095,2.1726,0.0,2.2375,0.0,2.2728,0.0,2.2929,2.2979,2.3079,2.2892,0.0,2.2751,2.2835,2.2749,2.244,2.275,2.2879,2.2748,2.2871,2.2969,2.3091,2.3091,2.3091,2.3135,2.358,2.409,2.468,2.5549,2.6354,0.0,0.0,2.8191,0.0,0.0,2.7857,2.747,0.0,2.6279,2.5527,2.4828,2.4239,2.3777,2.3185,2.3006,2.2918,2.2412,2.2295,2.2236,2.1963,2.209,0.0,2.2295,2.249,0.0,2.2838,0.0,0.0,0.0,0.0,0.0,0.0,0.0,0.0,0.0,0.0,0.0,0.0,2.9201,0.0,0.0,0.0,0.0,0.0,0.0,3.7197,3.7825,3.8142,0.0,0.0,0.0,3.8329,3.8202,3.8202,3.8101,3.7883,3.7883,3.7767,3.7535,3.7535,3.7535,3.7535,3.7535,3.7651,3.7883,3.7883,3.7999,3.8202,3.8202,3.8202,3.8202,3.8202,3.8202,3.8202,3.8202,3.8202,3.8202,1.9941,2.079,2.1113,2.0229,2.0298,2.0434,0.0,0.0,2.1526,0.0,2.2171,2.2677,2.2929,2.2979,2.3179,2.3728,2.3777,2.3886,2.4134,2.4134,0.0,0.0,2.402,2.396,2.3932,2.3623,2.3457,2.3419,2.3237,2.312,2.3091,2.3091,2.3101,2.3144,2.358,2.4229,2.4946,2.5644,2.655,2.7603,2.8259,2.851,2.851,2.851,2.8419,2.8179,2.747,2.694,2.6404,2.5538,2.4914,2.4339,2.3253,2.2901,2.277,2.2117,2.1897,2.1887,2.1867,2.1877,2.1897,2.1897,0.0,0.0,0.0,0.0,2.2693,0.0,0.0,0.0,0.0,0.0,0.0,0.0,0.0,0.0,0.0,0.0,0.0,0.0,0.0,0.0,0.0,3.5923,3.6557,3.7211,3.7663,0.0,0.0,0.0,3.8202,3.8202,3.8173,3.7883,3.7317,3.7273,3.6939,3.6301,3.6301,3.6301,3.6301,3.6301,3.6649,3.7259,3.7302,3.7636,3.8159,3.8188,3.8202,3.8202,3.8202,3.8202,3.8202,3.8202,3.8202,3.8202,2.1602,2.2339,2.2842,2.2723,2.2481,2.2295,0.0,0.0,0.0,0.0,2.3568,2.4026,2.4084,2.4282,2.443,2.4578,2.4578,0.0,0.0,0.0,0.0,2.4677,2.4837,2.4783,2.4479,2.4628,2.4331,2.3699,2.3637,2.3457,2.3091,2.3091,2.3188,2.3406,2.3667,2.4305,2.5158,2.5821,2.694,2.8259,2.8566,2.8816,0.0,0.0,2.8895,2.8776,2.799,2.7342,2.6674,2.5946,2.5316,2.4617,2.3665,2.3239,2.2962,2.2099,2.183,2.176,2.1441,2.159,2.183,2.183,2.2079,2.2348,0.0,0.0,0.0,0.0,0.0,0.0,0.0,0.0,0.0,0.0,0.0,0.0,0.0,0.0,0.0,3.0294,0.0,0.0,0.0,3.5229,3.61,3.7028,3.7586,0.0,0.0,0.0,0.0,3.8202,3.7767,3.7462,3.7302,3.6823,3.6475,3.6301,3.6301,3.6301,3.6301,3.6301,3.6402,3.6591,3.7085,3.7404,3.7578,3.8028,3.8202,3.8202,3.8202,3.8202,3.8202,3.8202,3.8202,3.8202,2.2564,2.3363,2.406,2.4345,0.0,0.0,2.3411,2.3662,0.0,2.3923,2.4326,0.0,2.4833,2.4981,2.5137,2.5235,2.5235,0.0,2.5235,0.0,0.0,2.5235,2.5382,2.5382,2.5141,2.5128,0.0,2.4062,2.3887,2.3564,2.3091,2.3091,2.3232,2.3503,2.3851,2.4487,2.5411,2.6569,2.7644,2.851,2.8816,2.9013,0.0,2.9091,2.9091,2.9052,2.859,2.8018,2.7371,2.658,2.5946,2.5241,2.3908,2.3382,2.2961,2.1868,2.1528,2.1478,2.1275,2.1386,2.1528,2.1528,2.1719,2.2,2.2151,2.2191,2.2352,0.0,0.0,0.0,0.0,0.0,0.0,0.0,0.0,0.0,0.0,0.0,0.0,0.0,3.0375,0.0,0.0,0.0,3.5551,3.6286,0.0,0.0,0.0,0.0,0.0,3.7825,3.7491,3.7041,3.646,3.6083,3.5749,3.5488,3.5488,3.5488,3.5488,3.5488,3.5633,3.5923,3.6301,3.678,3.7331,3.768,3.797,3.8202,3.8277,3.8329,3.8352,3.8427,3.8352,3.8202,2.3287,2.4136,2.4929,0.0,0.0,0.0,0.0,2.426,0.0,2.4507,0.0,2.5079,2.5342,2.5333,2.544,2.5684,0.0,2.5693,2.5693,2.5693,2.5693,2.5693,2.5693,2.5693,2.5693,2.5352,2.4941,0.0,0.0,2.3652,2.3179,2.312,2.3276,2.3547,2.398,0.0,0.0,2.751,2.8379,2.863,2.8973,2.917,2.917,2.917,2.917,2.9182,2.917,2.8776,2.8127,2.733,2.6745,2.603,2.4309,2.3547,2.3017,2.1761,2.1371,2.1282,2.1282,2.1282,2.1282,2.1282,2.1282,2.1383,2.1717,2.1808,2.1968,2.2625,2.2757,2.2982,0.0,0.0,0.0,0.0,0.0,0.0,0.0,0.0,0.0,0.0,0.0,0.0,0.0,0.0,0.0,0.0,0.0,0.0,0.0,0.0,0.0,3.7317,3.7143,3.6504,3.5407,0.0,3.5,3.4414,3.4414,3.4414,3.4414,3.4414,3.4719,3.5276,3.5363,3.6089,3.7186,3.7273,3.7665,3.8202,3.8404,3.8478,3.8516,3.8723,3.8575,3.8277,2.5073,2.5373,2.5548,0.0,0.0,2.5684,2.57,2.5557,2.5431,2.5431,2.5538,2.5586,2.5635,2.5635,2.5645,2.5693,2.5693,0.0,0.0,0.0,0.0,2.5693,2.5693,2.5693,2.5693,2.5615,2.54,0.0,0.0,2.4092,2.3662,2.3257,2.3319,2.3754,0.0,0.0,2.6715,2.7938,0.0,2.9013,2.9275,2.9482,2.9675,2.9675,2.9675,2.9663,2.9431,2.9067,2.8605,2.8127,2.7551,2.6796,2.5551,2.4486,2.3549,2.2757,2.2146,2.1693,2.1693,2.1693,2.1693,2.1693,2.1693,2.1714,2.1786,2.1806,2.194,2.2443,2.2536,2.272,2.3225,0.0,0.0,0.0,0.0,0.0,0.0,0.0,0.0,0.0,0.0,0.0,0.0,0.0,0.0,0.0,0.0,0.0,0.0,0.0,0.0,0.0,3.6293,0.0,0.0,0.0,3.453,3.4414,3.4414,3.4414,3.4414,3.4414,3.4472,3.4603,3.5174,3.5828,3.6533,3.707,3.7665,3.8202,3.8404,3.8478,3.8516,3.8723,3.8745,3.8671,2.582,0.0,2.612,0.0,0.0,0.0,0.0,2.6207,2.612,2.612,2.5965,2.5917,2.5917,2.5781,2.5693,2.5693,2.5693,2.5693,2.5693,2.5693,2.5693,2.5693,2.5693,2.5693,2.5693,2.5693,2.5518,2.5116,0.0,0.0,2.3779,0.0,0.0,2.4067,0.0,2.6155,0.0,0.0,0.0,2.9275,2.9521,2.9702,2.9792,2.9792,2.9792,2.9792,2.965,2.9482,2.9209,2.8578,2.8047,2.751,2.6268,2.53,2.448,2.3346,2.2675,2.2223,2.1869,2.1807,2.1807,2.1807,2.1807,2.1807,2.1807,2.1807,2.1908,2.2202,2.2293,2.2467,2.3056,2.4111,0.0,0.0,0.0,0.0,0.0,0.0,0.0,0.0,0.0,0.0,0.0,0.0,0.0,0.0,0.0,0.0,0.0,0.0,0.0,0.0,0.0,0.0,0.0,0.0,0.0,3.4414,3.4414,3.4414,3.4414,3.4414,3.4414,3.4428,3.4733,3.5415,3.6388,3.736,3.7978,3.8366,3.8575,3.8738,3.8848,3.9031,3.9104,3.9068,2.6139,2.6352,0.0,0.0,2.6496,2.6496,2.6602,2.6602,2.6544,2.6496,2.6294,2.6197,2.6197,2.6014,2.5878,2.5878,2.583,2.5781,2.5781,2.5732,2.5693,2.5693,2.5693,2.5693,2.5693,2.5693,2.5566,0.0,0.0,0.0,0.0,0.0,0.0,0.0,0.0,0.0,0.0,0.0,2.9352,2.9766,3.004,3.0131,3.0118,3.0005,2.9967,2.9955,2.9829,2.9792,2.9675,2.8946,2.8538,2.8136,2.6978,2.6171,2.5392,2.4078,2.3332,2.2836,2.2248,2.1994,2.1911,2.1911,2.1911,2.1911,2.1911,2.1911,2.1959,2.2138,2.2214,2.2438,2.3097,2.4226,0.0,0.0,0.0,0.0,0.0,0.0,0.0,0.0,0.0,0.0,0.0,0.0,0.0,0.0,0.0,0.0,3.5511,3.5884,3.588,0.0,0.0,3.4922,3.4414,0.0,3.4414,3.4414,3.4414,3.4414,3.4414,3.4414,3.4414,3.4414,3.4448,3.5209,3.6509,3.7645,3.831,3.859,3.8797,3.8943,3.9104,3.9337,3.9388,3.9337,0.0,0.0,0.0,0.0,0.0,0.0,2.6853,2.6853,2.6805,2.6544,2.6496,2.6448,2.6448,2.6448,2.6458,2.6458,2.6197,2.6052,2.6052,2.582,2.5693,2.5693,2.5693,2.5693,2.5693,2.5693,2.5664,0.0,0.0,2.4925,0.0,0.0,0.0,0.0,0.0,0.0,0.0,2.9788,3.0475,3.0975,3.1167,3.1235,3.1185,3.0721,3.0545,3.047,2.9967,2.9792,2.9753,2.9431,2.9067,2.8673,2.8159,2.7139,2.6029,2.5436,2.4428,2.3365,2.3051,2.2656,2.2327,2.2327,2.2327,2.2327,2.2327,2.2327,2.2365,2.2365,2.2515,2.2854,2.3531,2.4209,2.5169,0.0,0.0,0.0,0.0,0.0,0.0,0.0,0.0,0.0,0.0,0.0,0.0,0.0,0.0,0.0,3.4853,3.527,3.5465,3.5392,0.0,3.4472,3.4414,3.4414,3.4414,3.4414,3.4414,3.4414,3.4414,3.4414,3.4414,3.4414,3.4597,3.5497,3.6884,3.7561,3.823,3.8797,3.898,3.9068,3.9104,3.9337,3.9388,3.9388,0.0,0.0,0.0,0.0,0.0,0.0,0.0,2.7129,2.7071,2.6976,2.6842,2.6747,2.6747,2.6602,2.6496,2.6496,2.64,2.6352,2.6352,2.6255,2.6169,2.6169,2.6014,2.5965,2.5965,2.5781,2.5781,0.0,0.0,0.0,0.0,0.0,0.0,0.0,0.0,2.935,3.0121,3.0585,3.0966,3.1276,3.1345,3.1386,3.1361,3.116,3.0884,3.0583,3.0369,3.0068,2.9792,2.9702,2.9443,2.9067,2.8538,2.7825,2.7019,2.616,2.532,2.4544,2.3731,2.3378,2.3134,2.2692,2.259,2.259,2.259,2.259,2.2665,2.2889,2.3187,2.3549,2.3936,2.4605,2.5529,0.0,0.0,0.0,0.0,0.0,0.0,0.0,0.0,0.0,0.0,0.0,0.0,0.0,0.0,0.0,0.0,3.4586,0.0,3.4791,0.0,3.4414,3.4414,3.4414,3.4414,3.4414,3.4414,3.4414,3.4414,3.4414,3.4481,3.4612,3.5194,3.5987,3.6954,3.7538,3.8279,3.898,3.9068,3.9177,3.9301,3.9373,3.9388,3.9388,2.6938,0.0,2.7309,0.0,2.7309,2.7309,2.7309,2.7309,2.7309,2.7309,2.7129,2.7034,2.7034,2.6842,2.6736,2.6736,2.6651,2.6602,2.6602,2.6544,2.6496,2.6496,2.6294,0.0,2.6197,2.6014,2.6062,2.6332,2.6032,0.0,0.0,0.0,0.0,0.0,2.9809,3.0493,3.1153,3.1361,3.1614,3.1888,3.1888,3.1888,3.1863,3.17,3.1399,3.1047,3.0721,3.0369,3.0005,2.9842,2.965,2.9431,2.8922,2.8395,2.7832,2.7012,2.6365,2.566,2.4626,2.4253,2.3982,2.3308,2.315,2.315,2.315,2.315,2.3224,2.3519,2.3886,2.4177,2.4322,2.4976,2.585,2.6791,0.0,0.0,0.0,0.0,0.0,0.0,2.9792,2.9972,3.0368,0.0,0.0,0.0,0.0,0.0,0.0,0.0,0.0,0.0,0.0,0.0,0.0,3.4534,3.4549,3.4481,3.4481,3.4481,3.4481,3.4549,3.465,3.4894,3.5455,3.6202,3.7064,3.7493,3.8296,3.9177,3.9177,3.9265,3.9388,3.9388,3.9388,3.9388,2.7262,2.7309,2.7309,2.7309,2.7309,2.7309,2.7309,2.7309,2.7309,2.7309,2.7309,2.7309,2.7309,2.7309,2.7309,2.7309,2.7034,2.69,2.69,2.6651,2.6496,0.0,0.0,2.6496,2.6496,2.6496,2.663,2.6907,0.0,0.0,2.732,0.0,2.9118,2.9821,3.0479,3.1203,3.1891,3.2089,3.2528,3.3056,3.3056,3.3056,3.2993,3.2416,3.2202,3.2051,3.0997,3.0608,3.052,2.998,2.9792,2.9753,2.947,2.8961,2.8471,2.8247,2.7509,2.6639,2.5881,2.5337,2.4869,2.4326,2.4189,2.4189,2.4189,2.4189,2.4189,2.42,2.4455,2.4671,2.4671,2.5206,2.5994,2.7299,0.0,0.0,0.0,0.0,0.0,0.0,2.9792,2.9972,3.0368,0.0,0.0,0.0,0.0,0.0,0.0,0.0,0.0,3.4698,3.4698,0.0,3.4902,3.4902,3.485,3.4698,3.4698,3.4698,3.4698,3.4835,3.5001,3.518,3.5195,3.6056,3.737,3.7385,3.8212,3.9388,3.9388,3.9388,3.9388,3.9388,3.9388,3.9388,2.7262,2.7309,2.7309,2.7309,2.7309,2.7309,2.7309,2.7309,2.7309,2.7309,2.7309,2.7309,2.7309,2.7309,2.7309,0.0,2.7214,2.7177,0.0,2.7071,2.7071,2.7071,2.689,2.6747,2.6747,2.6774,2.6918,2.7156,0.0,0.0,0.0,3.0115,3.0894,3.1601,3.1933,3.2343,3.2719,3.2805,3.2905,3.3124,3.3124,3.3124,3.3056,3.2867,3.2554,3.2177,3.1825,3.1461,3.106,3.0532,3.0357,3.0281,2.9814,2.9339,2.8855,2.8498,2.81,2.7612,2.6847,2.6382,2.5904,2.514,2.4722,2.4551,2.4551,2.4743,2.5004,2.5111,2.5253,2.5347,2.5488,2.5793,2.636,2.7532,2.7865,0.0,0.0,0.0,0.0,0.0,2.9792,2.9972,0.0,3.0835,0.0,0.0,0.0,0.0,0.0,0.0,0.0,0.0,3.401,0.0,3.4271,3.4286,3.4475,3.485,3.485,3.485,3.4835,3.5016,3.5148,3.5213,3.5326,3.6156,3.7404,3.7404,3.8197,3.9388,3.9388,3.9388,3.9388,3.9388,3.9388,3.9388,2.7262,2.7309,2.7309,2.7309,2.7309,2.7309,2.7309,2.7309,2.7309,2.7309,2.7309,2.7309,2.7309,2.7309,0.0,2.7309,2.7309,2.7309,2.7309,2.7309,2.7309,2.7309,2.7214,2.7177,2.7177,2.7251,0.0,2.7867,2.8595,2.9566,3.0623,3.135,3.1981,3.2519,3.2766,3.2939,3.3124,3.3124,3.3124,3.3124,3.3124,3.3124,3.3124,3.3124,3.2855,3.2503,3.229,3.1989,3.1625,3.1085,3.0909,3.0821,3.0269,2.9897,2.9559,2.8995,2.8697,2.8378,2.772,2.7387,2.7006,2.6052,2.5648,2.5397,2.5206,2.5347,2.5571,2.5688,2.5758,2.5863,2.598,2.6328,2.6891,2.7764,2.8199,2.8737,2.9666,0.0,0.0,0.0,0.0,0.0,0.0,3.0985,3.1579,0.0,0.0,0.0,0.0,0.0,0.0,3.3718,3.3988,0.0,3.409,3.4421,3.4715,3.5001,3.5001,3.5001,3.5001,3.5213,3.5326,3.5326,3.5439,3.6222,3.7404,3.7404,3.8197,3.9388,3.9388,3.9388,3.9388,3.9388,3.9388,3.9388,2.7309,2.7309,2.7309,0.0,2.7309,0.0,2.7309,2.7309,2.7309,2.7309,2.7309,2.7309,2.7309,2.7309,2.7309,2.7309,0.0,0.0,0.0,2.7309,2.7309,2.7309,2.7499,2.7631,2.7631,2.7904,2.8326,2.8932,3.0068,3.0892,3.1395,3.2069,3.2519,3.2766,3.2982,3.3124,3.3124,3.3124,3.3124,3.3124,3.3124,3.3124,3.3124,3.3124,3.3124,3.3048,3.2466,3.2277,3.219,3.1637,3.1449,3.1348,3.0834,3.0645,3.0455,2.9632,2.9275,2.902,2.8478,2.8356,2.8074,2.7029,2.6709,2.6525,2.6021,2.5945,2.5945,2.5945,2.6097,2.6201,2.6201,2.6812,2.7469,2.8009,2.8561,2.9126,2.9716,0.0,0.0,0.0,0.0,0.0,0.0,3.1121,3.1763,0.0,0.0,0.0,0.0,0.0,3.4176,3.3718,3.4453,3.4632,3.4203,3.5004,3.5347,3.5213,3.5213,3.5213,3.5213,3.5407,3.5504,3.5504,3.5504,3.6222,3.7404,3.7404,3.8197,3.9388,3.9388,3.9388,3.9388,3.9388,3.9388,3.9388,0.0,0.0,2.7309,2.7309,2.7309,2.7309,2.7309,2.7309,2.7309,2.7309,2.7309,2.7309,2.7309,2.7309,2.7309,2.7309,2.7309,2.7309,2.7309,2.7309,2.7357,2.7536,2.7584,2.7773,2.8207,2.8477,2.9106,3.017,3.0802,3.1484,3.2169,3.2463,3.2766,3.3025,3.3068,3.3124,3.3124,3.3124,3.3124,3.3124,3.3124,3.3124,3.3124,3.3124,3.3124,3.3056,3.2918,3.2867,3.278,3.2215,3.2014,3.1926,3.1373,3.0934,3.0455,2.9632,2.938,2.9277,2.8971,2.8704,2.8336,2.7521,2.6829,2.6293,2.6156,2.6258,2.6361,2.6361,2.6396,2.643,2.643,2.6917,2.7469,2.8009,2.8561,2.9126,2.9716,2.9792,0.0,0.0,2.9707,3.0063,2.9939,3.1043,3.1992,0.0,0.0,0.0,0.0,3.4278,3.4176,3.3718,3.4044,3.4221,3.4188,3.4573,3.4981,3.5439,3.5439,3.5439,3.5439,3.5472,3.5504,3.5504,3.5504,3.6222,3.7404,3.7404,3.8197,3.9388,3.9388,3.9388,3.9388,3.9388,3.9388,3.9388,2.7309,2.7309,2.7309,2.7309,2.7309,2.7309,2.7309,2.7309,2.7309,2.7309,2.7309,2.7309,2.7309,2.7309,2.7309,2.7309,2.7309,2.7309,2.7309,2.7404,2.7536,2.7762,2.8008,2.8384,2.8896,2.9185,2.9817,3.0937,3.1528,3.2069,3.2562,3.2766,3.2939,3.3124,3.3124,3.3124,3.3124,3.3124,3.3124,3.3124,3.3124,3.3124,3.3124,3.3124,3.3124,3.3124,3.3124,3.3124,3.3074,3.2717,3.2604,3.2503,3.1938,3.1574,3.1145,3.0211,2.976,2.956,2.9456,2.9283,2.8924,2.8015,2.7218,2.6639,2.6389,2.643,2.6499,2.6499,2.6499,2.6562,2.6826,2.7293,2.7846,2.8398,2.895,2.9428,2.9741,2.9566,0.0,2.8925,2.9238,2.955,2.9781,3.0979,3.1995,3.264,3.3577,0.0,3.423,3.4501,3.4309,3.3634,3.4126,3.4289,3.4122,3.4658,3.513,3.5504,3.5504,3.5504,3.5504,3.5504,3.5504,3.5519,3.5818,3.6507,3.7434,3.7734,3.8482,3.9388,3.9388,3.9388,3.9388,3.9388,3.9388,3.9388,2.7309,2.7309,2.7309,2.7309,2.7309,2.7309,2.7309,2.7309,2.7309,2.7309,2.7309,2.7309,2.7309,2.7309,2.7309,2.7309,2.7309,2.7357,2.7357,2.7536,2.782,2.8092,2.8606,2.9117,2.9669,3.0057,3.0646,3.1484,3.2113,3.255,3.2766,3.2982,3.3124,3.3124,3.3124,3.3124,3.3124,3.3124,3.3124,3.3124,3.3124,3.3124,3.3124,3.3124,3.3124,3.3124,3.3124,3.3124,3.3124,3.3124,3.3124,3.2993,3.2503,3.2277,3.2039,3.1122,3.0407,2.9892,2.9817,2.9729,2.9428,2.8473,2.7821,2.7268,2.6738,2.6612,2.6612,2.6612,2.6612,2.6788,2.7306,2.7858,2.8386,2.8813,2.9415,2.9767,2.9679,0.0,2.8863,2.8699,2.8715,2.8988,2.9616,3.0761,3.1805,3.2527,3.3519,3.4124,3.4191,3.4545,3.4405,3.3616,3.4464,3.4702,3.4221,3.5076,3.5504,3.5504,3.5504,3.5504,3.5504,3.5504,3.5564,3.5684,3.6237,3.6896,3.7599,3.8167,3.8796,3.9388,3.9388,3.9388,3.9388,3.9388,3.9388,3.9388,2.7309,2.7309,2.7309,2.7309,2.7309,2.7309,2.7309,2.7309,2.7309,2.7309,2.7309,2.7309,2.7309,2.7309,2.7309,2.7309,2.7452,2.7536,2.7536,2.7809,2.8139,2.8653,2.9117,2.9715,3.0397,3.1238,3.1869,3.2213,3.2506,3.281,3.3038,3.3068,3.3124,3.3124,3.3124,3.3124,3.3124,3.3124,3.3124,3.3124,3.3124,3.3124,3.3124,3.3124,3.3124,3.3124,3.3124,3.3124,3.3124,3.3124,3.3124,3.3056,3.2968,3.2604,3.2177,3.2014,3.126,3.0382,2.9917,2.944,2.8988,2.8813,2.8386,2.7833,2.7281,2.719,2.719,2.719,2.719,2.7318,2.7871,2.8423,2.8787,2.8875,2.9415,2.9616,2.9126,0.0,2.8624,2.7885,2.8411,2.8915,2.9019,3.0222,3.1296,3.1981,3.2482,3.2914,3.3218,3.3797,3.408,3.3944,3.4709,3.5201,3.5257,3.5412,3.5504,3.5504,3.5504,3.5504,3.5504,3.5504,3.5804,3.6342,3.6432,3.715,3.8242,3.8347,3.8796,3.9388,3.9388,3.9388,3.9388,3.9388,3.9388,3.9388,2.7309,2.7309,2.7309,2.7309,2.7309,2.7309,2.7309,2.7309,2.7309,2.7309,2.7309,2.7309,2.7309,2.7309,2.7357,2.7452,2.7547,2.7773,2.8243,2.8373,2.8653,2.9174,2.976,3.0476,3.1327,3.2045,3.245,3.255,3.281,3.2982,3.3124,3.3124,3.3124,3.3124,3.3124,3.3124,3.3124,3.3124,3.3124,3.3124,3.3124,3.3124,3.3124,3.3124,3.3124,3.3124,3.3124,3.3124,3.3124,3.3124,3.3124,3.3124,3.3124,3.2893,3.2616,3.2303,3.1461,3.0495,2.9942,2.9591,2.9315,2.8963,2.87,2.8398,2.7846,2.772,2.772,2.772,2.772,2.7896,2.8411,2.8712,2.9001,2.934,2.9616,0.0,0.0,2.8749,2.838,2.769,2.8014,2.8491,2.8993,3.0132,3.1176,3.2004,3.2579,3.2926,3.3114,3.3862,3.4265,3.4265,3.4872,3.5294,3.5504,3.5504,3.5504,3.5504,3.5504,3.5504,3.5519,3.5863,3.6207,3.6522,3.721,3.7853,3.8422,3.8796,3.9125,3.9388,3.9388,3.9388,3.9388,3.9388,3.9388,3.9388,2.7309,2.7309,2.7309,2.7309,2.7309,2.7309,2.7309,2.7309,2.7309,2.7309,2.7309,2.7309,2.7309,2.7357,2.7441,2.7594,2.7773,2.8149,2.885,2.9071,2.9393,2.976,3.0578,3.1383,3.2176,3.2581,3.281,3.281,3.2995,3.3124,3.3124,3.3124,3.3124,3.3124,3.3124,3.3124,3.3124,3.3124,3.3124,3.3124,3.3124,3.3124,3.3124,3.3124,3.3124,3.3124,3.3124,3.3124,3.3124,3.3124,3.3124,3.3124,3.3124,3.3124,3.2993,3.2541,3.165,3.0645,2.998,2.9792,2.9691,2.9239,2.9126,2.895,2.8423,2.8298,2.8298,2.8298,2.8298,2.8461,2.9026,2.9126,2.9277,2.9716,0.0,0.0,0.0,2.8533,2.816,2.7615,2.773,2.8212,2.9085,3.0053,3.0979,3.1798,3.2408,3.2778,3.2808,3.3737,3.4429,3.4728,3.5091,3.5326,3.5504,3.5504,3.5504,3.5504,3.5504,3.5504,3.5534,3.6193,3.6567,3.6761,3.7898,3.8482,3.8676,3.92,3.9388,3.9388,3.9388,3.9388,3.9388,3.9388,3.9388,3.9388,2.7309,2.7309,2.7309,2.7309,2.7309,2.7309,2.7309,2.7309,2.7309,2.7309,2.7309,2.7309,2.7309,2.7452,2.7584,2.7584,2.829,2.8803,2.9082,2.9943,3.0476,3.0532,3.1617,3.2376,3.2624,3.2939,3.3068,3.3068,3.3081,3.3124,3.3124,3.3124,3.3124,3.3124,3.3124,3.3124,3.3124,3.3124,3.3124,3.3124,3.3124,3.3124,3.3124,3.3124,3.3124,3.3124,3.3124,3.3124,3.3124,3.3124,3.3124,3.3124,3.3124,3.3124,3.3111,3.3074,3.2215,3.111,3.0068,2.9792,2.9779,2.9741,2.9729,2.9578,2.8963,2.8838,2.8838,2.8838,2.8838,2.9001,2.9616,2.9729,2.9741,2.9779,0.0,0.0,2.8323,2.8293,2.8127,2.7395,2.7716,2.8281,2.9027,2.9738,3.0352,3.0878,3.122,3.1485,3.1616,3.2841,3.4143,3.5385,3.5442,3.5504,3.5504,3.5504,3.5504,3.5504,3.5504,3.5504,3.5534,3.6193,3.6791,3.7375,3.8078,3.8751,3.9313,3.9394,3.9388,3.9388,3.9388,3.9388,3.9388,3.9388,3.9388,3.9388,2.7309,2.7309,2.7309,2.7309,2.7309,2.7309,2.7309,2.7309,2.7309,2.7309,2.7309,2.7357,2.7452,2.7536,2.782,2.829,2.8757,2.9255,2.9988,3.0668,3.1261,3.1717,3.2288,3.268,3.2939,3.3038,3.3124,3.3124,3.3124,3.3124,3.3124,3.3124,3.3124,3.3124,3.3124,3.3124,3.3124,3.3124,3.3124,3.3124,3.3124,3.3124,3.3124,3.3124,3.3124,3.3124,3.3124,3.3124,3.3124,3.3124,3.3124,3.3124,3.3124,3.3124,3.3048,3.2641,3.1989,3.1235,3.0495,3.0055,2.9792,2.9792,2.9792,2.9729,2.9515,2.9465,2.9465,2.9465,2.9465,2.9528,2.9754,2.9792,2.9792,2.9792,0.0,2.9441,2.8432,2.8424,2.8254,2.7499,2.7987,2.8605,2.9166,2.9946,3.0568,3.0955,3.1278,3.1617,3.2093,3.338,3.4532,3.5474,3.5504,3.5504,3.5504,3.5504,3.5504,3.5504,3.5504,3.5714,3.6133,3.6761,3.7404,3.8063,3.8736,3.917,3.9388,3.9388,3.9388,3.9388,3.9388,3.9388,3.9388,3.9388,3.9388,3.9388,2.7309,2.7309,2.7309,2.7309,2.7309,2.7309,2.7309,2.7309,2.7309,2.7309,2.7309,2.7404,2.7584,2.7678,2.8055,2.885,2.9174,2.9772,3.0758,3.1383,3.1969,3.2475,3.2723,3.2896,3.3124,3.3124,3.3124,3.3124,3.3124,3.3124,3.3124,3.3124,3.3124,3.3124,3.3124,3.3124,3.3124,3.3124,3.3124,3.3124,3.3124,3.3124,3.3124,3.3124,3.3124,3.3124,3.3124,3.3124,3.3124,3.3124,3.3124,3.3124,3.3124,3.3124,3.3006,3.2604,3.2089,3.1537,3.0997,3.047,3.0005,2.9829,2.9792,2.9792,2.9792,2.9792,2.983,2.9869,2.9908,2.9895,2.9972,2.9972,2.9972,2.9972,2.9972,2.9682,2.8843,2.872,2.8495,2.7949,2.8304,2.8798,2.9355,3.0144,3.0805,3.1353,3.1663,3.2183,3.308,3.3978,3.4801,3.5489,3.5504,3.5504,3.5504,3.5504,3.5504,3.5504,3.5504,3.5848,3.6507,3.712,3.7764,3.8422,3.9125,3.9388,3.9388,3.9388,3.9388,3.9388,3.9388,3.9388,3.9388,3.9388,3.9388,3.9388,2.7309,2.7309,2.7309,2.7309,2.7309,2.7309,2.7309,2.7309,2.7309,2.7309,2.7309,2.7404,2.7584,2.7857,2.8279,2.9035,2.9611,3.0284,3.1261,3.2176,3.2711,3.2711,3.2939,3.3124,3.3124,3.3124,3.3124,3.3124,3.3124,3.3124,3.3124,3.3124,3.3124,3.3124,3.3124,3.3124,3.3124,3.3124,3.3124,3.3124,3.3124,3.3124,3.3124,3.3124,3.3124,3.3124,3.3124,3.3124,3.3124,3.3124,3.3124,3.3124,3.3124,3.3124,3.3124,3.3124,3.2667,3.2089,3.1537,3.1009,3.0482,2.993,2.9792,2.9792,2.9792,2.9792,2.9869,3.0049,3.0113,3.0152,3.0368,3.0406,3.0406,3.0406,3.0406,3.0214,2.9575,2.922,2.8937,2.8731,2.8638,2.889,2.9554,3.0233,3.0994,3.1957,3.2333,3.3095,3.4444,3.4503,3.4801,3.5489,3.5504,3.5504,3.5504,3.5504,3.5504,3.5504,3.5504,3.5848,3.6507,3.7135,3.7778,3.8437,3.9125,3.9388,3.9388,3.9388,3.9388,3.9388,3.9388,3.9388,3.9388,3.9388,3.9388,3.9388,2.7309,2.7309,2.7309,2.7309,2.7309,2.7309,2.7309,2.7309,2.7309,2.7309,2.7309,2.7452,2.7857,2.7951,2.8466,2.9554,3.0091,3.0937,3.2189,3.2723,3.2982,3.2982,3.3081,3.3124,3.3124,3.3124,3.3124,3.3124,3.3124,3.3124,3.3124,3.3124,3.3124,3.3124,3.3124,3.3124,3.3124,3.3124,3.3124,3.3124,3.3124,3.3124,3.3124,3.3124,3.3124,3.3124,3.3124,3.3124,3.3124,3.3124,3.3124,3.3124,3.3124,3.3124,3.3124,3.3124,3.2667,3.2089,3.1537,3.1009,3.0482,2.993,2.9792,2.9792,2.9792,2.9792,2.9869,3.0049,3.0113,3.0152,3.0368,3.0406,3.0406,3.0406,3.0406,3.0239,2.9785,2.9639,2.9532,2.9499,2.9706,3.0137,3.0797,3.1524,3.2147,3.2648,3.3449,3.4099,3.4488,3.4936,3.5295,3.5489,3.5504,3.5504,3.5504,3.5504,3.5504,3.5504,3.5504,3.6073,3.715,3.733,3.8033,3.9125,3.9334,3.9388,3.9388,3.9388,3.9388,3.9388,3.9388,3.9388,3.9388,3.9388,3.9388,3.9388,2.7309,2.7309,2.7309,2.7309,2.7309,2.7309,2.7309,2.7309,2.7309,2.7309,2.7309,2.7489,2.7951,2.7998,2.8549,2.992,3.0814,3.1705,3.2624,3.2939,3.3124,3.3124,3.3124,3.3124,3.3124,3.3124,3.3124,3.3124,3.3124,3.3124,3.3124,3.3124,3.3124,3.3124,3.3124,3.3124,3.3124,3.3124,3.3124,3.3124,3.3124,3.3124,3.3124,3.3124,3.3124,3.3124,3.3124,3.3124,3.3124,3.3124,3.3124,3.3124,3.3124,3.3124,3.3124,3.3124,3.283,3.2428,3.1863,3.1323,3.0796,3.0256,2.9955,2.9792,2.9792,2.9792,2.9869,3.0152,3.0228,3.0292,3.0596,3.0634,3.0634,3.0634,3.0634,3.0556,3.0318,3.0071,2.9993,3.014,3.0306,3.0658,3.1343,3.2084,3.2794,3.3547,3.4407,3.4891,3.4891,3.528,3.5504,3.5504,3.5504,3.5504,3.5504,3.5504,3.5504,3.5504,3.5774,3.6432,3.7419,3.7674,3.8392,3.9388,3.9388,3.9388,3.9388,3.9388,3.9388,3.9388,3.9388,3.9388,3.9388,3.9388,3.9388,3.9388,2.7309,2.7309,2.7309,2.7309,2.7309,2.7309,2.7309,2.7309,2.7309,2.7309,2.7309,2.7489,2.7951,2.7998,2.8595,3.008,3.1528,3.2519,3.2723,3.2939,3.3124,3.3124,3.3124,3.3124,3.3124,3.3124,3.3124,3.3124,3.3124,3.3124,3.3124,3.3124,3.3124,3.3124,3.3124,3.3124,3.3124,3.3124,3.3124,3.3124,3.3124,3.3124,3.3124,3.3124,3.3124,3.3124,3.3124,3.3124,3.3124,3.3124,3.3124,3.3124,3.3124,3.3124,3.3124,3.3124,3.3124,3.2955,3.2365,3.1813,3.1273,3.0746,3.0206,2.9792,2.9792,2.9792,2.9895,3.033,3.0406,3.052,3.0949,3.0986,3.0986,3.0986,3.0986,3.0986,3.0986,3.0542,3.0312,3.0734,3.0643,3.0822,3.1497,3.2256,3.3243,3.4485,3.5145,3.5504,3.5504,3.5504,3.5504,3.5504,3.5504,3.5504,3.5504,3.5564,3.5594,3.5609,3.6207,3.6851,3.7524,3.8123,3.8766,3.9388,3.9388,3.9388,3.9388,3.9388,3.9388,3.9388,3.9388,3.9388,3.9388,3.9388,3.9388,3.9388,2.7309,2.7309,2.7309,2.7309,2.7309,2.7309,2.7309,2.7309,2.7309,2.7309,2.7309,2.7489,2.7951,2.7998,2.8595,3.008,3.1528,3.2562,3.2995,3.3068,3.3124,3.3124,3.3124,3.3124,3.3124,3.3124,3.3124,3.3124,3.3124,3.3124,3.3124,3.3124,3.3124,3.3124,3.3124,3.3124,3.3124,3.3124,3.3124,3.3124,3.3124,3.3124,3.3124,3.3124,3.3124,3.3124,3.3124,3.3124,3.3124,3.3124,3.3124,3.3124,3.3124,3.3124,3.3124,3.3124,3.3124,3.2955,3.2365,3.1813,3.1273,3.0746,3.0206,2.9792,2.9792,2.9792,2.9895,3.033,3.0406,3.052,3.0949,3.0986,3.0986,3.0986,3.0986,3.0986,3.0986,3.0882,3.0952,3.1372,3.159,3.2034,3.2807,3.3797,3.4581,3.5023,3.5317,3.5504,3.5504,3.5504,3.5504,3.5504,3.5504,3.5504,3.5504,3.6013,3.6267,3.6267,3.6417,3.7075,3.8182,3.8317,3.8766,3.9388,3.9388,3.9388,3.9388,3.9388,3.9388,3.9388,3.9388,3.9388,3.9388,3.9388,3.9388,3.9388,2.7309,2.7309,2.7309,2.7309,2.7309,2.7309,2.7309,2.7309,2.7309,2.7309,2.7309,2.7489,2.7951,2.7998,2.8678,3.0374,3.1661,3.2605,3.3081,3.3124,3.3124,3.3124,3.3124,3.3124,3.3124,3.3124,3.3124,3.3124,3.3124,3.3124,3.3124,3.3124,3.3124,3.3124,3.3124,3.3124,3.3124,3.3124,3.3124,3.3124,3.3124,3.3124,3.3124,3.3124,3.3124,3.3124,3.3124,3.3124,3.3124,3.3124,3.3124,3.3124,3.3124,3.3124,3.3124,3.3124,3.3124,3.3048,3.2704,3.2215,3.1712,3.1449,3.0783,3.0118,2.9854,2.9792,2.9895,3.033,3.0406,3.052,3.0949,3.0986,3.0986,3.0986,3.0986,3.0986,3.0986,3.0986,3.1149,3.1572,3.184,3.2395,3.3444,3.4351,3.4968,3.518,3.5392,3.5504,3.5504,3.5504,3.5504,3.5504,3.5504,3.5654,3.5968,3.6312,3.6791,3.7389,3.7389,3.7749,3.8407,3.8736,3.908,3.9388,3.9388,3.9388,3.9388,3.9388,3.9388,3.9388,3.9388,3.9388,3.9388,3.9388,3.9388,3.9388,2.7309,2.7309,2.7309,2.7309,2.7309,2.7309,2.7309,2.7309,2.7309,2.7309,2.7309,2.7489,2.7951,2.8222,2.9048,3.0767,3.1837,3.2605,3.3081,3.3124,3.3124,3.3124,3.3124,3.3124,3.3124,3.3124,3.3124,3.3124,3.3124,3.3124,3.3124,3.3124,3.3124,3.3124,3.3124,3.3124,3.3124,3.3124,3.3124,3.3124,3.3124,3.3124,3.3124,3.3124,3.3124,3.3124,3.3124,3.3124,3.3124,3.3124,3.3124,3.3124,3.3124,3.3124,3.3124,3.3124,3.3124,3.3124,3.3124,3.2654,3.2215,3.2215,3.1474,3.0608,3.0055,2.9867,2.9895,3.033,3.0406,3.052,3.0949,3.0986,3.0986,3.0986,3.0986,3.0986,3.0986,3.0986,3.1149,3.1572,3.1927,3.2552,3.3667,3.4452,3.4968,3.5148,3.5359,3.5504,3.5504,3.5504,3.5504,3.5504,3.5504,3.5818,3.6477,3.6596,3.7225,3.8392,3.8512,3.8556,3.8586,3.9155,3.9388,3.9388,3.9388,3.9388,3.9388,3.9388,3.9388,3.9388,3.9388,3.9388,3.9388,3.9388,3.9388,3.9388,2.7309,2.7309,2.7309,2.7309,2.7309,2.7309,2.7309,2.7309,2.7309,2.7309,2.7309,2.7489,2.7951,2.9152,3.0159,3.0857,3.1837,3.2605,3.3081,3.3124,3.3124,3.3124,3.3124,3.3124,3.3124,3.3124,3.3124,3.3124,3.3124,3.3124,3.3124,3.3124,3.3124,3.3124,3.3124,3.3124,3.3124,3.3124,3.3124,3.3124,3.3124,3.3124,3.3124,3.3124,3.3124,3.3124,3.3124,3.3124,3.3124,3.3124,3.3124,3.3124,3.3124,3.3124,3.3124,3.3124,3.3124,3.3124,3.3124,3.2654,3.2215,3.2215,3.1738,3.1148,3.062,3.0131,2.9895,3.033,3.0406,3.052,3.0949,3.0986,3.0986,3.0986,3.0986,3.0986,3.0986,3.0986,3.1149,3.1572,3.2503,3.3248,3.3591,3.4399,3.4902,3.4935,3.5294,3.5504,3.5504,3.5504,3.5504,3.5504,3.5504,3.5818,3.6477,3.7015,3.7659,3.8407,3.899,3.9239,3.929,3.9379,3.9388,3.9388,3.9388,3.9388,3.9388,3.9388,3.9388,3.9388,3.9388,3.9388,3.9388,3.9388,3.9388,3.9388,2.7309,2.7309,2.7309,2.7309,2.7309,2.7309,2.7309,2.7309,2.7309,2.7309,2.7309,2.7489,2.7951,2.9336,3.0442,3.1059,3.1925,3.2605,3.3081,3.3124,3.3124,3.3124,3.3124,3.3124,3.3124,3.3124,3.3124,3.3124,3.3124,3.3124,3.3124,3.3124,3.3124,3.3124,3.3124,3.3124,3.3124,3.3124,3.3124,3.3124,3.3124,3.3124,3.3124,3.3124,3.3124,3.3124,3.3124,3.3124,3.3124,3.3124,3.3124,3.3124,3.3124,3.3124,3.3124,3.3124,3.3124,3.3124,3.3124,3.2893,3.2692,3.2692,3.2265,3.1788,3.1562,3.0859,3.0273,3.0394,3.0406,3.052,3.0949,3.0986,3.0986,3.0986,3.0986,3.0986,3.0986,3.0986,3.1149,3.1572,3.261,3.3353,3.3437,3.4317,3.4902,3.4902,3.5261,3.5504,3.5504,3.5504,3.5504,3.5504,3.5863,3.6357,3.7,3.7644,3.8302,3.8975,3.9275,3.9388,3.9388,3.9388,3.9388,3.9388,3.9388,3.9388,3.9388,3.9388,3.9388,3.9388,3.9388,3.9388,3.9388,3.9388,3.9388,3.9388]}]]